[[{"header":{"parameterUnit":"m.s-1","parameterCategory":1,"la1":30.6,"la2":29.2853,"lo1":-89.7004,"lo2":-87.6739,"dy":0.0162,"dx":0.0183,"nx":112,"ny":82,"refTime":"2023-08-23T12:00:00:Z","depth":0,"parameterNumber":2,"parameterNumberName":"U-component_of_WINDS"},"data":[0.0,0.0,0.0,0.0,0.0,0.0,0.0,0.0,0.0,0.0,0.0,0.0,0.0,0.0,0.0,0.0,0.0,0.0,0.0,0.0,0.0,0.0,0.0,0.0,0.0,0.0,0.0,0.0,0.0,0.0,0.0,0.0,0.0,0.0,0.0,0.0,0.0,0.0,0.0,0.0,0.0,0.0,0.0,0.0,0.0,0.0,0.0,0.0,0.0,0.0,0.0,0.0,0.0,0.0,0.0,0.0,0.0,0.0,0.0,0.0,0.0,0.0,0.0,0.0,0.0,0.0,0.0,0.0,0.0,0.0,0.0,0.0,0.0,0.0,0.0,0.0,0.0,0.0,0.0,0.0,0.0,0.0,0.0,0.0,0.0,0.0,0.0,0.0,0.0,0.0,-0.525,-0.5528,-0.6672,-0.7383,-0.7383,-0.7791,-0.7523,-0.6251,0.0,0.0,0.0,0.0,0.0,0.0,0.0,0.0,0.0,0.0,0.0,0.0,0.0,0.0,0.0,0.0,0.0,0.0,0.0,0.0,0.0,0.0,0.0,0.0,0.0,0.0,0.0,0.0,0.0,0.0,0.0,0.0,0.0,0.0,0.0,0.0,0.0,0.0,0.0,0.0,0.0,0.0,0.0,0.0,0.0,0.0,0.0,0.0,0.0,0.0,0.0,0.0,0.0,0.0,0.0,0.0,0.0,0.0,0.0,0.0,0.0,0.0,0.0,0.0,0.0,0.0,0.0,0.0,0.0,0.0,0.0,0.0,0.0,0.0,0.0,0.0,0.0,0.0,0.0,0.0,0.0,0.0,0.0,0.0,0.0,0.0,0.0,0.0,0.0,0.0,0.0,0.0,0.0,0.0,0.0,0.0,0.0,0.0,0.0,0.0,0.0,0.0,0.0,0.0,-0.5353,-0.6679,-0.74,-0.7834,-0.7834,-0.7819,-0.7471,-0.659,0.0,0.0,0.0,0.0,0.0,0.0,0.0,0.0,0.0,0.0,0.0,0.0,0.0,0.0,0.0,0.0,0.0,0.0,0.0,0.0,0.0,0.0,0.0,0.0,0.0,0.0,0.0,0.0,0.0,0.0,0.0,0.0,0.0,0.0,0.0,0.0,0.0,0.0,0.0,0.0,0.0,0.0,0.0,0.0,0.0,0.0,0.0,0.0,0.0,0.0,0.0,0.0,0.0,0.0,0.0,0.0,0.0,0.0,0.0,0.0,0.0,0.0,0.0,0.0,0.0,0.0,0.0,0.0,0.0,0.0,0.0,0.0,0.0,0.0,0.0,0.0,0.0,0.0,0.0,0.0,0.0,0.0,0.0,0.0,0.0,0.0,0.0,0.0,0.0,0.0,0.0,0.0,0.0,0.0,0.0,0.0,0.0,0.0,0.0,0.0,0.0,0.0,0.0,-0.4912,-0.5777,-0.7052,-0.7617,-0.7848,-0.7783,-0.7945,-0.7567,-0.6539,-0.6022,0.0,0.0,0.0,0.0,0.0,0.0,0.0,0.0,0.0,0.0,0.0,0.0,0.0,0.0,0.0,0.0,0.0,0.0,0.0,0.0,0.0,0.0,0.0,0.0,0.0,0.0,0.0,0.0,0.0,0.0,0.0,0.0,0.0,0.0,0.0,0.0,0.0,0.0,0.0,0.0,0.0,0.0,0.0,0.0,0.0,0.0,0.0,0.0,0.0,0.0,0.0,0.0,0.0,0.0,0.0,0.0,0.0,0.0,0.0,0.0,0.0,0.0,0.0,0.0,0.0,0.0,0.0,0.0,0.0,0.0,0.0,0.0,0.0,0.0,0.0,0.0,0.0,0.0,0.0,0.0,0.0,0.0,0.0,0.0,0.0,0.0,0.0,0.0,0.0,0.0,0.0,0.0,0.0,0.0,0.0,0.0,0.0,0.0,0.0,0.0,0.0,0.0,-0.5618,-0.618,-0.7094,-0.7473,-0.7681,-0.7676,-0.7668,-0.7273,-0.6398,-0.5489,0.0,0.0,0.0,0.0,0.0,0.0,0.0,0.0,0.0,0.0,0.0,0.0,0.0,0.0,0.0,0.0,0.0,0.0,0.0,0.0,0.0,0.0,0.0,0.0,0.0,0.0,0.0,0.0,0.0,0.0,0.0,0.0,0.0,0.0,0.0,0.0,0.0,0.0,0.0,0.0,0.0,0.0,0.0,0.0,0.0,0.0,0.0,0.0,0.0,0.0,0.0,0.0,0.0,0.0,0.0,0.0,0.0,0.0,0.0,0.0,0.0,0.0,0.0,0.0,0.0,0.0,0.0,0.0,0.0,0.0,0.0,0.0,0.0,0.0,0.0,0.0,0.0,0.0,0.0,0.0,0.0,0.0,0.0,0.0,0.0,0.0,0.0,0.0,0.0,0.0,0.0,0.0,0.0,0.0,0.0,0.0,0.0,0.0,0.0,0.0,0.0,0.0,-0.5551,-0.636,-0.6876,-0.6933,-0.7095,-0.7467,-0.6611,-0.6087,-0.6227,-0.4418,0.0,0.0,0.0,0.0,0.0,0.0,0.0,0.0,0.0,0.0,0.0,0.0,0.0,0.0,0.0,0.0,0.0,0.0,0.0,0.0,0.0,0.0,0.0,0.0,0.0,0.0,0.0,0.0,0.0,0.0,0.0,0.0,0.0,0.0,0.0,0.0,0.0,0.0,0.0,0.0,0.0,0.0,0.0,0.0,0.0,0.0,0.0,0.0,0.0,0.0,0.0,0.0,0.0,0.0,0.0,0.0,0.0,0.0,0.0,0.0,0.0,0.0,0.0,0.0,0.0,0.0,0.0,0.0,0.0,0.0,0.0,0.0,0.0,0.0,0.0,0.0,0.0,0.0,0.0,0.0,0.0,0.0,0.0,0.0,0.0,0.0,0.0,0.0,0.0,0.0,0.0,0.0,0.0,0.0,0.0,0.0,0.0,0.0,0.0,0.0,0.0,0.0,-0.5281,-0.6092,-0.6801,-0.7041,-0.7257,-0.7467,-0.7218,-0.6707,-0.5996,0.0,0.0,0.0,0.0,0.0,0.0,0.0,0.0,0.0,0.0,0.0,0.0,0.0,0.0,0.0,0.0,0.0,0.0,0.0,0.0,0.0,0.0,0.0,0.0,0.0,0.0,0.0,0.0,0.0,0.0,0.0,0.0,0.0,0.0,0.0,0.0,0.0,0.0,0.0,0.0,0.0,0.0,0.0,0.0,0.0,0.0,0.0,0.0,0.0,0.0,0.0,0.0,0.0,0.0,0.0,0.0,0.0,0.0,0.0,0.0,0.0,0.0,0.0,0.0,0.0,0.0,0.0,0.0,0.0,0.0,0.0,0.0,0.0,0.0,0.0,0.0,0.0,0.0,0.0,0.0,0.0,0.0,0.0,0.0,0.0,0.0,0.0,0.0,0.0,0.0,0.0,0.0,0.0,0.0,0.0,0.0,0.0,0.0,0.0,0.0,0.0,0.0,-0.4303,-0.5171,-0.6018,-0.6737,-0.7041,-0.7257,-0.7419,-0.7298,-0.6769,-0.5786,0.0,0.0,0.0,0.0,0.0,0.0,0.0,0.0,0.0,0.0,0.0,0.0,0.0,0.0,0.0,0.0,0.0,0.0,0.0,0.0,0.0,0.0,0.0,0.0,0.0,0.0,0.0,0.0,0.0,0.0,0.0,0.0,0.0,0.0,0.0,0.0,0.0,0.0,0.0,0.0,0.0,0.0,0.0,0.0,0.0,0.0,0.0,0.0,0.0,0.0,0.0,0.0,0.0,0.0,0.0,0.0,0.0,0.0,0.0,0.0,0.0,0.0,0.0,0.0,0.0,0.0,0.0,0.0,0.0,0.0,0.0,0.0,0.0,0.0,0.0,0.0,0.0,0.0,0.0,0.0,0.0,0.0,0.0,0.0,0.0,0.0,0.0,0.0,0.0,0.0,0.0,0.0,0.0,0.0,0.0,0.0,0.0,0.0,0.0,0.0,0.0,0.0,-0.4159,-0.5316,-0.6167,-0.6656,-0.682,-0.6987,-0.7257,-0.6548,-0.5969,0.0,0.0,0.0,0.0,0.0,0.0,0.0,0.0,0.0,0.0,0.0,0.0,0.0,0.0,0.0,0.0,0.0,0.0,0.0,0.0,0.0,0.0,0.0,0.0,0.0,0.0,0.0,0.0,0.0,0.0,0.0,0.0,0.0,0.0,0.0,0.0,0.0,0.0,0.0,0.0,0.0,0.0,0.0,0.0,0.0,0.0,0.0,0.0,0.0,0.0,0.0,0.0,0.0,0.0,0.0,0.0,0.0,0.0,0.0,0.0,0.0,0.0,0.0,0.0,0.0,0.0,0.0,0.0,0.0,0.0,0.0,0.0,0.0,0.0,0.0,0.0,0.0,0.0,0.0,0.0,0.0,0.0,0.0,0.0,0.0,0.0,0.0,0.0,0.0,0.0,0.0,0.0,0.0,0.0,0.0,0.0,0.0,0.0,0.0,0.0,0.0,0.0,0.0,-0.4191,-0.5351,-0.6262,-0.6656,-0.682,-0.7041,-0.7413,-0.6954,-0.6363,-0.5705,0.0,0.0,0.0,0.0,0.0,0.0,0.0,0.0,0.0,0.0,0.0,0.0,0.0,0.0,0.0,0.0,0.0,0.0,0.0,0.0,0.0,0.0,0.0,0.0,0.0,0.0,0.0,0.0,0.0,0.0,0.0,0.0,0.0,0.0,0.0,0.0,0.0,0.0,0.0,0.0,0.0,0.0,0.0,0.0,0.0,0.0,0.0,0.0,0.0,0.0,0.0,0.0,0.0,0.0,0.0,0.0,0.0,0.0,0.0,0.0,0.0,0.0,0.0,0.0,0.0,0.0,0.0,0.0,0.0,0.0,0.0,0.0,0.0,0.0,0.0,0.0,0.0,0.0,0.0,0.0,0.0,0.0,0.0,0.0,0.0,0.0,0.0,0.0,0.0,0.0,0.0,0.0,0.0,0.0,0.0,0.0,0.0,0.0,0.0,0.0,0.0,0.0,-0.4262,-0.5306,-0.6207,-0.6656,-0.682,-0.6987,-0.7139,-0.6982,-0.6526,-0.5649,0.0,0.0,0.0,0.0,0.0,0.0,0.0,0.0,0.0,0.0,0.0,0.0,0.0,0.0,0.0,0.0,0.0,0.0,0.0,0.0,0.0,0.0,0.0,0.0,0.0,0.0,0.0,0.0,0.0,0.0,0.0,0.0,0.0,0.0,0.0,0.0,0.0,0.0,0.0,0.0,0.0,0.0,0.0,0.0,0.0,0.0,0.0,0.0,0.0,0.0,0.0,0.0,0.0,0.0,0.0,0.0,0.0,0.0,0.0,0.0,0.0,0.0,0.0,0.0,0.0,0.0,0.0,0.0,0.0,0.0,0.0,0.0,0.0,0.0,0.0,0.0,0.0,0.0,0.0,0.0,0.0,0.0,0.0,0.0,0.0,0.0,0.0,0.0,0.0,0.0,0.0,0.0,0.0,0.0,0.0,0.0,0.0,0.0,0.0,0.0,0.0,0.0,-0.4342,-0.5237,-0.6087,-0.6632,-0.6812,-0.6877,-0.6737,-0.6797,-0.6468,-0.5512,0.0,0.0,0.0,0.0,0.0,0.0,0.0,0.0,0.0,0.0,0.0,0.0,0.0,0.0,0.0,0.0,0.0,0.0,0.0,0.0,0.0,0.0,0.0,0.0,0.0,0.0,0.0,0.0,0.0,0.0,0.0,0.0,0.0,0.0,0.0,0.0,0.0,0.0,0.0,0.0,0.0,0.0,0.0,0.0,0.0,0.0,0.0,0.0,0.0,0.0,0.0,0.0,0.0,0.0,0.0,0.0,0.0,0.0,0.0,0.0,0.0417,0.0318,0.0,0.0,0.0,0.0,0.0,0.0,0.0,0.0,0.0,0.0,0.0,0.0,0.0,0.0,0.0,0.0,0.0,0.0,0.0,0.0,0.0,0.0,0.0,0.0,0.0,0.0,0.0,0.0,0.0,0.0,0.0,0.0,0.0,0.0,0.0,0.0,0.0,0.0,0.0,0.0,-0.4196,-0.5363,-0.6368,-0.6753,-0.6899,-0.6992,-0.7094,-0.6803,-0.6323,-0.5692,-0.5042,0.0,0.0,0.0,0.0,0.0,0.0,0.0,0.0,0.0,0.0,0.0,0.0,0.0,0.0,0.0,0.0,0.0,0.0,0.0,0.0,0.0,0.0,0.0,0.0,0.0,0.0,0.0,0.0,0.0,0.0,0.0,0.0,0.0,0.0,0.0,0.0,0.0,0.0,0.0,0.0,0.0,0.0,0.0,0.0,0.0,0.0,0.0,0.0,0.0,0.0,0.0,0.0,0.0,0.0,0.0,0.0,0.0,0.0,0.0,0.0687,0.0456,0.0,0.0,0.0,0.0,0.0,0.0,0.0,0.0,0.0,0.0,0.0,0.0,0.0,0.0,0.0,0.0,0.0,0.0,0.0,0.0,0.0,0.0,0.0,0.0,0.0,0.0,0.0,0.0,0.0,0.0,0.0,0.0,0.0,0.0,0.0,0.0,0.0,0.0,0.0,0.0,-0.4373,-0.551,-0.6357,-0.6577,-0.6716,-0.6773,-0.6748,-0.6535,-0.6211,-0.5819,-0.5242,0.0,0.0,0.0,0.0,0.0,0.0,0.0,0.0,0.0,0.0,0.0,0.0,0.0,0.0,0.0,0.0,0.0,0.0,0.0,0.0,0.0,0.0,0.0,0.0,0.0,0.0,0.0,0.0,0.0,0.0,0.0,0.0,0.0,0.0,0.0,0.0,0.0,0.0,0.0,0.0,0.0,0.0,0.0,0.0,0.0,0.0,0.0,0.0,0.0,0.0,0.0,0.0,0.0,0.0295,0.0212,0.0582,0.0733,0.0889,0.0972,0.0805,0.0526,0.0173,0.0054,0.0,0.0,0.0,0.0,0.0,0.0,0.0,0.0,0.0,0.0,0.0,0.0,0.0,0.0,0.0,0.0,0.0,0.0,0.0,0.0,0.0,0.0,-0.3835,-0.3949,-0.4239,-0.426,-0.3581,0.0,0.0,0.0,0.0,0.0,0.0,0.0,0.0,0.0,0.0,0.0,-0.4679,-0.5611,-0.6313,-0.6486,-0.6606,-0.6547,-0.6318,-0.6269,-0.6174,-0.5939,-0.5429,-0.4942,0.0,0.0,0.0,0.0,0.0,0.0,0.0,0.0,0.0,0.0,0.0,0.0,0.0,0.0,0.0,0.0,0.0,0.0,0.0,0.0,0.0,0.0,0.0,0.0,0.0,0.0,0.0,0.0,0.0,0.0,0.0,0.0,0.0338,0.0441,0.0,0.0,0.0,0.0,0.0,0.0,0.0,0.0,0.0,0.0,0.0,0.0,0.0,0.0191,0.0464,0.1002,0.0881,0.0156,0.0078,-0.0,0.0153,0.0861,0.1111,0.0955,0.04,0.0,0.0723,0.0189,0.0,0.0,0.0,0.0,0.0,0.0,0.0,0.0,0.0,0.0,0.0,0.0,0.0,0.0,0.0,0.0,0.0,0.0,0.0,0.0,0.0,0.0,-0.4755,-0.4774,-0.5094,-0.5417,-0.5305,-0.4615,-0.4084,-0.4078,-0.3999,-0.3742,0.0,0.0,0.0,0.0,0.0,0.0,-0.4884,-0.5754,-0.6406,-0.6819,-0.6867,-0.6777,-0.6561,-0.6373,-0.6205,-0.5897,-0.5831,-0.5524,-0.4928,-0.4555,0.0,0.0,0.0,0.0,0.0,0.0,0.0,0.0,0.0,0.0,0.0,0.0,0.0,0.0,0.0,0.0,0.0,0.0,0.0,0.0,0.0,0.0,0.0,0.0,0.0,0.0,0.0,0.0,0.0,0.015,0.0308,0.0463,0.061,0.0673,0.0,0.0,0.0,0.0,0.0,0.0,0.0,0.0,0.0,0.0405,0.0483,0.0403,0.0235,0.0414,0.0342,-0.0,-0.0,-0.0,-0.0,0.0434,0.0789,0.1053,-0.0269,-0.0786,-0.049,-0.015,-0.0,-0.0067,0.0,0.0,0.0,0.0,-0.0956,-0.0945,-0.1047,-0.107,-0.1154,-0.1833,0.0,0.0,0.0,0.0,0.0,0.0,0.0,-0.3792,-0.3889,-0.4402,-0.4954,-0.5103,-0.5433,-0.57,-0.5694,-0.556,-0.5225,-0.4685,-0.4681,-0.4482,-0.3706,-0.3738,0.0,0.0,0.0,-0.4922,-0.5402,-0.6158,-0.6675,-0.6861,-0.6958,-0.6931,-0.6597,-0.6479,-0.6339,-0.607,-0.5877,-0.564,-0.5255,-0.4759,-0.4204,0.0,0.0,0.0,0.0,0.0,0.0,0.0,0.0,0.0,0.0,0.0,0.0,0.0,0.0,0.0,0.0,0.0,0.0,0.0,0.0,0.0,0.0,0.0,0.0,0.0,0.0,0.0,0.0,0.0151,0.0182,0.0342,0.0623,0.0708,0.0,0.0,0.0,0.0,0.0,0.0,0.0465,0.0325,0.0138,-0.0,0.0448,0.0326,-0.0359,-0.0181,-0.0,-0.0,-0.0,-0.0185,-0.0365,-0.0371,-0.0,0.0653,-0.0758,-0.1518,-0.1495,-0.0599,-0.0241,-0.0231,-0.0832,-0.1178,-0.1364,-0.1327,-0.1275,-0.1232,-0.1367,-0.1247,-0.1131,-0.1556,-0.1677,-0.1886,-0.3124,0.0,0.0,0.0,0.0,-0.4568,-0.4479,-0.4727,-0.5114,-0.5326,-0.5594,-0.5845,-0.5918,-0.6138,-0.6146,-0.5237,-0.5314,-0.5254,-0.4351,-0.4313,0.0,-0.441,-0.4929,-0.5444,-0.5994,-0.6538,-0.6876,-0.6898,-0.709,-0.7044,-0.6604,-0.6575,-0.6492,-0.6201,-0.5926,-0.5625,-0.5367,-0.4841,-0.4314,-0.386,0.0,0.0,0.0,0.0,0.0,0.0,0.0,0.0,0.0,0.0,0.0,0.0,0.0,0.0,0.0,0.0,0.0,0.0,0.0,0.0,0.0,0.0,0.0,0.0,0.0,0.0,0.0,0.0,0.0,-0.0,0.0645,0.0,0.0,0.0,0.0,0.079,0.0593,0.0559,0.0646,0.0232,-0.0,-0.0,-0.0,-0.0434,-0.1524,-0.0553,-0.0,-0.0,-0.0,-0.0561,-0.1522,-0.1523,-0.1238,-0.0667,-0.0763,-0.1144,-0.1523,-0.1029,-0.073,-0.08,-0.1597,-0.1902,-0.1997,-0.2001,-0.1754,-0.1256,-0.1265,-0.1377,-0.1498,-0.2491,-0.2623,-0.2447,-0.2514,-0.3238,0.0,0.0,-0.4449,-0.4818,-0.4793,-0.5036,-0.5331,-0.5442,-0.5664,-0.5999,-0.6237,-0.6314,-0.6173,-0.5835,-0.5955,-0.5989,-0.5611,0.0,-0.547,-0.5521,-0.5836,-0.6218,-0.6611,-0.6775,-0.6981,-0.7154,-0.719,-0.7099,-0.681,-0.6657,-0.6492,-0.6201,-0.595,-0.5611,-0.5233,-0.48,-0.44,-0.4012,-0.3373,0.0,0.0,0.0,0.0,0.0,0.0,0.0,0.0,0.0,0.0,0.0,0.0,0.0,0.0,0.0,0.0,0.0,0.0,0.0,0.0,0.0,0.0,0.0,0.0,0.0,0.0,0.0,0.0,0.0066,0.0214,0.0,0.071,0.0359,0.0218,0.029,0.069,0.0725,0.0251,0.0087,-0.0,-0.0,-0.0642,-0.0837,-0.0571,-0.0865,-0.0679,-0.0,-0.0686,-0.1278,-0.1584,-0.1584,-0.1485,-0.1287,-0.1287,-0.1386,-0.1584,-0.138,-0.135,-0.14,-0.1867,-0.2036,-0.2103,-0.2121,-0.2104,-0.1994,-0.1597,-0.1855,-0.2424,-0.2784,-0.2815,-0.2814,-0.2981,-0.346,-0.3963,-0.4221,-0.4461,-0.4608,-0.4683,-0.4956,-0.5173,-0.536,-0.5671,-0.5941,-0.6022,-0.6254,-0.6437,-0.6197,-0.6182,-0.6183,-0.584,-0.5849,-0.5848,-0.5797,-0.6023,-0.6331,-0.6777,-0.6865,-0.6997,-0.7386,-0.7396,-0.7283,-0.7073,-0.6801,-0.6429,-0.6087,-0.5676,-0.5332,-0.5039,-0.4689,-0.4407,-0.4066,-0.37,-0.3169,0.0,0.0,0.0,0.0,0.0,0.0,0.0,0.0,0.0,0.0,0.0,0.0,0.0,0.0,0.0,0.0,0.0,0.0,0.0,0.0,0.0,0.0,0.0,0.0,0.0,0.0,0.0667,0.0433,0.0156,0.0081,0.0157,0.0081,-0.0,-0.0,0.0087,0.009,-0.0,-0.0,-0.0,-0.0,-0.1062,-0.1272,-0.0595,-0.1091,-0.0998,-0.0303,-0.101,-0.1415,-0.1617,-0.1617,-0.1617,-0.1617,-0.1617,-0.1617,-0.1617,-0.1617,-0.1692,-0.1751,-0.2042,-0.2236,-0.2334,-0.2417,-0.26,-0.2691,-0.2231,-0.2444,-0.2875,-0.2875,-0.2943,-0.3081,-0.3246,-0.3601,-0.389,-0.4222,-0.4371,-0.4491,-0.4706,-0.4811,-0.4996,-0.5271,-0.5473,-0.5628,-0.586,-0.6173,-0.6409,-0.6412,-0.6359,-0.6244,-0.6041,-0.6052,-0.61,-0.6133,-0.6238,-0.644,-0.6835,-0.691,-0.7017,-0.7274,-0.733,-0.7311,-0.7173,-0.6838,-0.6456,-0.6119,-0.5595,-0.5199,-0.4982,-0.4666,-0.4365,-0.4153,-0.3794,-0.332,-0.2716,0.0,0.0,0.0,0.0,0.0,0.0,0.0,0.0,0.0,0.0,0.0,0.0,0.0,0.0,0.0,0.0,0.0,0.0,0.0,0.0,0.0,0.0,0.0,0.0186,0.0067,0.0218,0.094,0.0419,-0.0433,-0.1443,-0.0626,-0.0093,-0.0093,-0.0962,-0.1164,-0.0094,-0.0098,-0.0099,-0.0096,-0.1091,-0.1618,-0.1618,-0.1113,-0.081,-0.081,-0.081,-0.1113,-0.162,-0.162,-0.1619,-0.1618,-0.1618,-0.1618,-0.1617,-0.1617,-0.1819,-0.2021,-0.2322,-0.2522,-0.2814,-0.3,-0.3128,-0.3194,-0.2961,-0.2879,-0.2877,-0.2875,-0.2996,-0.3183,-0.3183,-0.3406,-0.3785,-0.4036,-0.4199,-0.4426,-0.4814,-0.4705,-0.4678,-0.5196,-0.5165,-0.5165,-0.5783,-0.5864,-0.6022,-0.6486,-0.6435,-0.6279,-0.6338,-0.6172,-0.619,-0.6571,-0.6628,0.0,-0.6846,-0.689,-0.6886,-0.6902,-0.7073,-0.7187,-0.7119,-0.6782,-0.6511,-0.6306,-0.5665,-0.5213,-0.5088,-0.4653,-0.4342,-0.4193,-0.3687,-0.3249,-0.2913,0.0,0.0,0.0,0.0,0.0,0.0,0.0,0.0,0.0,0.0,0.0,0.0,0.0,0.0,0.0,0.0,0.0,0.0,0.0,0.0,0.0,0.0,0.0068,0.0068,-0.0,-0.0247,-0.0792,-0.1004,-0.0934,-0.0471,-0.085,-0.1155,-0.1306,-0.1091,-0.1089,-0.111,-0.1111,-0.1207,-0.1194,-0.1527,-0.165,-0.165,-0.1566,-0.1471,-0.1472,-0.1471,-0.1575,-0.168,-0.168,-0.1669,-0.165,-0.165,-0.174,-0.1921,-0.1921,-0.2122,-0.2524,-0.2222,-0.2424,-0.2822,-0.3093,-0.2967,-0.2837,-0.2939,-0.2881,-0.2749,-0.2888,-0.3035,-0.3279,-0.3457,-0.3585,-0.3776,-0.397,-0.4036,-0.4163,-0.4477,-0.4409,-0.4442,-0.4967,-0.5001,-0.4957,-0.5419,-0.5707,-0.5905,-0.6278,-0.63,-0.6373,-0.6655,-0.6559,-0.6503,-0.662,-0.6564,-0.6604,-0.67,-0.6676,-0.6747,-0.6898,-0.6946,-0.6924,-0.6798,-0.6427,-0.6096,-0.5793,-0.532,-0.4971,-0.4879,-0.4552,-0.4344,-0.421,-0.3666,-0.3364,0.0,0.0,0.0,0.0,0.0,0.0,0.0,0.0,0.0,0.0,0.0,0.0,0.0,0.0,0.0,0.0,0.0,0.0,0.0,0.0,0.0,0.0,-0.031,-0.0669,-0.0669,-0.0258,-0.0268,-0.0849,-0.1352,-0.1379,-0.0803,-0.0797,-0.1103,-0.1658,-0.1426,-0.1322,-0.1666,-0.1635,-0.1617,-0.1617,-0.165,-0.1668,-0.1668,-0.1692,-0.1705,-0.1706,-0.1705,-0.1704,-0.1704,-0.1704,-0.17,-0.1692,-0.1894,-0.1978,-0.2052,-0.2149,-0.244,-0.2725,0.0,0.0,0.0,0.0,-0.307,-0.2791,-0.3038,-0.2904,-0.2767,-0.2981,-0.3139,-0.3406,-0.3678,-0.38,-0.3986,-0.4022,-0.4065,-0.4093,-0.447,-0.4322,-0.4272,-0.502,-0.4859,-0.4693,-0.534,-0.5416,-0.5562,-0.6038,-0.6103,0.0,-0.6666,-0.6651,-0.66,-0.6507,-0.6544,-0.6599,-0.6568,-0.6553,-0.6583,-0.6823,-0.6796,-0.6745,-0.6613,-0.6278,0.0,0.0,0.0,-0.4997,-0.482,-0.4605,0.0,0.0,0.0,-0.381,-0.393,-0.3486,0.0,0.0,-0.3185,-0.3084,0.0,0.0,0.0,0.0,0.0,0.0,0.0,0.0,0.0,0.0,0.0,0.0,0.0,0.0,0.0,0.0,-0.0993,-0.1618,-0.1622,-0.0776,-0.019,-0.0197,-0.1106,-0.1741,-0.1669,-0.0834,-0.0626,-0.1567,-0.1666,-0.1771,-0.1676,-0.1641,0.0,0.0,0.0,-0.1684,-0.1684,-0.1705,-0.1714,-0.1714,-0.1714,-0.1714,-0.1714,-0.1714,-0.1722,-0.1736,-0.2147,-0.2229,-0.2308,-0.2497,-0.2669,-0.2825,-0.2819,-0.2918,-0.3119,-0.3213,-0.3138,-0.3035,-0.3008,0.0,0.0,-0.3165,-0.3414,-0.3678,-0.3857,-0.4072,-0.4185,-0.4177,-0.4114,-0.4132,-0.4622,-0.436,-0.4272,-0.5126,-0.4712,-0.4387,-0.5281,-0.5187,-0.5176,-0.5786,-0.5864,-0.6018,-0.6483,-0.6563,-0.6513,-0.6368,-0.6543,-0.6659,-0.6648,-0.6496,-0.6478,-0.6712,-0.6743,0.0,-0.642,-0.6185,-0.6018,-0.5899,-0.5574,-0.5239,-0.4841,-0.4777,-0.4709,-0.4594,-0.4358,-0.4362,-0.4671,-0.4421,-0.4308,-0.4128,-0.349,-0.3362,0.0,0.0,0.0,0.0,0.0,0.0,0.0,0.0,0.0,0.0,0.0,0.0,0.0,0.0,0.0,-0.115,-0.15,-0.1626,-0.165,-0.1536,-0.1325,-0.1335,-0.1149,-0.1276,-0.1622,-0.1497,-0.1493,-0.1623,-0.1688,-0.1667,-0.1676,-0.1662,-0.1657,-0.1665,-0.1711,-0.1735,-0.1735,-0.1763,-0.1778,-0.1778,-0.1778,0.0,-0.2111,-0.2111,-0.2098,-0.2074,-0.2397,-0.248,-0.2546,-0.2715,-0.2977,-0.3124,-0.3077,-0.296,-0.2855,-0.3005,-0.3038,-0.2982,-0.3023,-0.3157,-0.3163,-0.3295,-0.3545,-0.3857,-0.3859,-0.4111,0.0,-0.4191,-0.4329,-0.4466,-0.4641,-0.4472,-0.428,-0.4584,-0.4334,-0.4232,-0.5073,-0.5036,-0.4967,-0.5578,-0.5637,-0.5712,-0.6018,-0.6328,-0.6626,-0.6743,-0.6842,-0.6885,-0.7096,-0.6892,-0.682,-0.6932,-0.6796,-0.6578,-0.6292,-0.6181,-0.6018,-0.5702,-0.5486,-0.5216,-0.488,-0.4958,-0.4897,-0.4629,-0.4417,-0.4309,-0.4305,-0.4119,-0.3985,-0.3885,-0.3898,-0.3896,0.0,0.0,0.0,0.0,0.0,0.0,0.0,0.0,0.0,0.0,0.0,-0.0,0.0,0.0,-0.0361,-0.1438,-0.1643,-0.1627,-0.1658,-0.1675,-0.1583,-0.1385,-0.1397,-0.1413,-0.177,-0.1745,-0.1733,-0.1748,-0.1722,-0.1708,-0.1712,-0.1708,-0.1708,-0.1713,-0.1737,-0.175,-0.175,-0.178,-0.1795,-0.1795,-0.1795,-0.1907,-0.202,-0.202,-0.2122,-0.2216,-0.2549,-0.273,-0.2766,-0.3002,-0.3156,-0.3224,-0.3164,-0.306,-0.2983,-0.3053,-0.3219,-0.3289,-0.3191,-0.332,-0.3521,-0.3557,-0.3796,-0.4006,-0.4097,-0.4278,-0.4349,-0.444,-0.45,-0.4662,-0.4783,-0.4646,-0.4545,-0.4715,-0.4339,-0.4136,-0.4814,-0.4796,-0.4765,-0.5176,-0.5398,-0.5479,-0.5712,-0.6018,-0.6328,-0.6714,-0.6865,-0.6988,-0.7143,-0.7127,-0.7078,-0.712,-0.6937,-0.6757,-0.6478,-0.6183,-0.5917,-0.551,-0.5441,-0.5281,-0.5011,-0.5068,-0.5004,-0.469,-0.4556,-0.4529,-0.4602,-0.4277,-0.4178,-0.4223,-0.404,-0.3952,0.0,0.0,0.0,0.0,0.0,0.0,0.0,0.0,-0.0759,-0.0415,-0.0257,-0.0178,-0.0191,-0.0193,-0.0491,-0.1464,-0.1654,-0.1636,-0.1666,-0.169,-0.1608,-0.1309,-0.1535,-0.1768,-0.1793,-0.1773,-0.1756,-0.175,-0.175,-0.1749,-0.1747,-0.1748,-0.1752,-0.1759,-0.1759,-0.1759,-0.1759,-0.1782,-0.1795,-0.1795,-0.1907,-0.1907,-0.1907,-0.1908,-0.202,-0.2244,-0.2581,-0.2868,-0.31,-0.3219,-0.3268,-0.3243,-0.3194,-0.3198,-0.3228,-0.3204,-0.3396,-0.3491,-0.3251,-0.3488,-0.3912,-0.383,-0.3971,-0.4179,-0.4348,-0.4449,-0.444,-0.4602,-0.4687,-0.4797,-0.4933,-0.4835,-0.4837,-0.4924,-0.4422,-0.4124,-0.4646,-0.4582,-0.4597,-0.4967,-0.5199,-0.543,-0.5562,-0.5786,-0.6096,-0.6563,-0.6788,-0.7022,-0.7257,-0.7291,-0.7261,-0.7302,-0.7179,-0.6979,-0.6805,-0.6261,-0.5851,-0.5589,-0.5514,-0.5379,-0.5238,-0.5232,-0.5081,-0.4864,-0.4733,-0.4707,-0.4858,-0.4484,-0.4428,-0.461,-0.4102,-0.3893,-0.1772,-0.1336,0.0,-0.1322,-0.1281,-0.1136,0.0,0.0,-0.1066,-0.1485,-0.1167,-0.0852,-0.0752,-0.085,-0.0954,-0.1626,-0.1694,-0.1667,-0.1695,-0.1702,-0.1715,-0.1746,-0.1774,-0.1791,-0.1795,-0.1792,-0.1778,-0.1752,-0.175,-0.1746,-0.1737,-0.1745,-0.1762,-0.1789,-0.179,-0.179,-0.179,-0.1793,-0.1795,-0.1795,-0.202,-0.2132,-0.2132,-0.2469,-0.2469,-0.2244,-0.2581,-0.2996,-0.3485,-0.3473,-0.3405,-0.3311,-0.3304,-0.3273,-0.3217,-0.3109,-0.3261,-0.3462,-0.3222,-0.3583,-0.4106,-0.3983,-0.4148,-0.454,-0.4459,-0.4491,-0.452,-0.4349,-0.4782,-0.5158,-0.4795,-0.4924,-0.5013,-0.4748,-0.4338,-0.4141,-0.4651,-0.4751,-0.4804,-0.5106,-0.5328,-0.5536,-0.5581,-0.5786,-0.6096,-0.6563,-0.6788,-0.7099,-0.7646,-0.7548,-0.7546,-0.7751,-0.7405,-0.711,-0.6964,-0.6576,-0.6343,-0.6324,-0.5965,-0.5752,-0.5752,-0.5613,-0.5405,-0.507,-0.4873,-0.4625,-0.4386,-0.4306,-0.4292,-0.4268,-0.4186,-0.4064,-0.2179,0.0,0.0,0.0,-0.1523,-0.1432,-0.1591,-0.1452,-0.1596,-0.2286,-0.1859,-0.1426,-0.144,-0.1423,-0.1519,0.0,-0.1714,-0.1697,-0.1727,-0.1823,-0.193,-0.1855,-0.1854,-0.1968,-0.1767,-0.1785,-0.1782,-0.1752,-0.1766,-0.1774,-0.177,-0.1774,-0.1782,-0.1795,-0.1795,-0.1795,-0.1795,-0.1795,-0.1795,-0.1795,-0.1908,-0.202,-0.202,-0.2132,-0.2244,-0.2467,-0.2777,-0.3193,-0.3493,-0.3461,-0.3418,-0.3371,-0.3335,-0.3307,-0.3273,-0.3187,-0.3449,-0.3749,-0.3283,-0.3644,-0.4283,-0.4112,-0.4301,-0.4524,-0.4582,-0.4696,-0.4687,-0.4693,-0.4978,-0.52,-0.4961,-0.5196,-0.5272,-0.4853,-0.4644,-0.4552,-0.4592,-0.4775,-0.4936,-0.5133,-0.5319,-0.5497,-0.5524,-0.5761,-0.6018,-0.6335,-0.6563,-0.6868,-0.7415,-0.7484,-0.7491,-0.7463,-0.7159,-0.6958,-0.6686,-0.6538,-0.6408,-0.6244,-0.6093,-0.595,-0.5803,-0.5745,-0.557,-0.5358,-0.516,-0.4891,-0.461,-0.4469,-0.4394,-0.4224,-0.4092,-0.3936,-0.2585,0.0,0.0,-0.2113,-0.1985,-0.1903,-0.1933,-0.1871,-0.2136,-0.2661,-0.2449,-0.2001,-0.1905,-0.1984,-0.1955,-0.1737,-0.1718,-0.1819,-0.1734,-0.1933,-0.1926,-0.1843,-0.1932,-0.203,-0.2046,-0.1861,-0.1761,-0.1847,-0.1876,-0.1782,-0.1782,-0.1791,-0.1795,-0.1795,-0.1795,-0.1795,-0.1795,-0.1804,-0.1804,-0.1795,-0.1916,-0.1916,-0.1795,-0.1795,-0.2132,-0.2691,-0.2881,-0.3195,-0.3518,-0.3477,-0.3451,-0.3431,-0.3387,-0.335,-0.3316,-0.3271,-0.3559,-0.3861,-0.3356,-0.3729,-0.4305,-0.424,-0.4334,-0.4572,-0.4772,-0.489,-0.4867,-0.4951,-0.5218,-0.542,-0.5256,-0.54,-0.5376,-0.4815,-0.4805,-0.4816,-0.4637,-0.4925,-0.5199,-0.5336,-0.5513,-0.5679,-0.569,-0.5909,-0.6146,-0.6264,-0.6412,-0.6641,-0.7103,-0.7257,-0.7359,-0.7159,-0.7026,-0.6847,-0.6529,-0.6622,-0.6566,-0.6232,-0.6225,-0.6152,-0.5928,-0.5888,-0.5791,-0.5577,-0.5318,-0.5058,-0.4784,-0.4572,-0.448,-0.4335,-0.3941,-0.3857,0.0,0.0,-0.2401,-0.2888,-0.2781,-0.2626,-0.2654,-0.2751,-0.2814,-0.2818,-0.2785,-0.263,-0.2251,-0.2293,-0.2345,-0.1812,-0.1919,-0.2024,-0.1705,-0.1705,-0.1811,-0.2026,-0.1918,-0.1905,0.0,-0.2006,-0.1813,-0.2026,-0.1951,-0.1751,-0.1751,-0.1779,-0.1795,-0.1795,-0.1795,-0.1795,-0.1795,-0.1824,-0.1824,-0.1795,-0.2167,-0.2166,-0.1795,-0.1795,-0.2132,-0.2693,-0.2692,-0.3026,-0.3585,-0.3582,-0.3548,-0.3493,-0.3492,-0.3421,-0.3322,-0.3319,-0.3523,-0.3625,-0.3421,-0.3835,-0.4466,-0.4337,-0.4624,-0.4967,-0.4967,-0.5028,-0.5043,-0.5072,-0.5425,-0.571,-0.5502,-0.5419,-0.5298,-0.4919,-0.4727,-0.4743,-0.4917,-0.5184,-0.5505,-0.582,-0.6055,-0.6144,-0.6205,-0.6311,-0.642,-0.6281,-0.6338,-0.649,-0.6865,-0.7099,-0.7099,-0.6934,-0.7096,-0.7099,-0.6927,-0.6853,-0.678,-0.6626,-0.6549,-0.6472,-0.6325,-0.6101,-0.5946,-0.5793,-0.5365,-0.5015,-0.4731,-0.4531,-0.452,-0.4515,-0.4042,-0.3939,-0.3495,0.0,-0.308,-0.3226,-0.3046,-0.2814,-0.2452,-0.2603,-0.2737,-0.2737,-0.2678,-0.2621,-0.2715,-0.2529,-0.227,-0.1984,-0.2008,-0.2032,-0.1839,-0.1951,-0.2051,-0.2133,-0.2214,0.0,0.0,0.0,0.0,-0.2305,-0.2152,-0.2187,-0.2297,-0.2001,-0.1907,-0.202,-0.1907,-0.1907,-0.202,-0.2053,-0.2053,-0.202,-0.2031,-0.203,-0.202,-0.202,-0.2356,-0.2914,-0.2914,-0.3251,-0.3587,-0.3587,-0.3575,-0.3549,-0.3471,-0.344,-0.3422,-0.3305,-0.3439,-0.3848,-0.3613,-0.38,-0.4264,-0.4445,-0.4663,-0.4861,-0.5028,-0.5173,-0.5167,-0.5118,-0.5283,-0.5453,-0.5284,-0.5338,-0.5303,-0.5011,-0.5091,-0.5193,-0.528,-0.546,-0.5719,-0.5937,-0.6127,-0.6294,-0.6454,-0.6522,-0.6424,-0.6281,-0.6412,-0.6563,-0.6714,-0.6795,-0.6795,-0.6714,-0.6644,-0.6641,-0.6714,-0.6714,-0.6637,-0.6412,-0.6412,-0.6257,-0.587,-0.5745,-0.5644,-0.5484,-0.5366,-0.5039,-0.4508,-0.4616,-0.453,-0.4302,-0.4121,-0.4149,-0.4062,-0.3948,-0.3864,-0.3943,-0.3717,-0.3323,-0.3044,-0.2943,-0.3041,-0.2987,-0.2894,-0.2807,-0.2854,-0.2643,-0.2399,-0.2083,-0.2241,-0.2302,-0.2158,-0.2178,-0.2287,-0.2477,-0.2449,-0.2538,0.0,0.0,0.0,-0.2622,-0.2476,-0.2406,-0.2626,-0.2335,-0.2244,-0.2356,-0.2244,-0.2244,-0.2356,-0.2409,-0.2423,-0.2397,-0.2257,-0.2244,-0.2356,-0.2356,-0.2691,-0.3137,-0.3137,-0.325,-0.3587,-0.3587,-0.3587,-0.3579,-0.3504,-0.3471,-0.3455,-0.3466,-0.3597,-0.3877,-0.3722,-0.3919,-0.4402,-0.4663,-0.4765,-0.4863,-0.506,-0.5218,-0.5226,-0.5241,-0.5409,-0.5559,-0.5383,-0.5415,-0.5348,-0.5021,-0.5089,-0.528,-0.528,-0.5463,-0.5822,-0.6083,-0.6192,-0.6378,-0.6586,-0.6549,-0.6522,-0.643,-0.6527,-0.6546,-0.6493,-0.649,-0.649,-0.649,-0.6412,-0.6335,-0.649,-0.649,-0.6409,-0.618,-0.618,-0.6025,-0.5637,-0.5637,-0.5581,-0.5463,-0.5344,-0.5107,-0.4676,-0.4683,-0.463,-0.4361,-0.4332,-0.4375,-0.4643,-0.4532,-0.4534,-0.485,-0.4487,-0.4058,-0.4116,-0.3899,-0.3617,-0.3432,-0.3294,-0.3053,0.0,0.0,-0.2573,-0.2282,-0.2483,-0.2701,-0.2644,-0.238,-0.2406,0.0,0.0,0.0,0.0,0.0,0.0,-0.3,0.0,-0.2626,-0.2626,-0.2669,-0.2693,-0.2693,-0.2693,-0.2693,-0.2693,-0.2776,-0.282,-0.2823,-0.2735,-0.2693,-0.2693,-0.2693,-0.2917,-0.3137,-0.3137,-0.325,-0.3587,-0.3587,-0.3587,-0.3587,-0.3583,-0.3516,-0.3428,-0.3801,-0.3892,-0.394,-0.3761,-0.4198,-0.4687,-0.4687,-0.4841,-0.4998,-0.5094,-0.5179,-0.5228,-0.5469,-0.5829,-0.6043,-0.5739,-0.5575,-0.5439,-0.496,-0.4917,-0.5008,-0.5008,-0.5371,-0.5822,-0.6083,-0.6254,-0.6477,-0.6602,-0.6635,-0.6709,-0.6702,-0.6576,-0.643,-0.6291,-0.6268,-0.6338,-0.6338,-0.6338,-0.6338,-0.6338,-0.6261,-0.6183,-0.5951,-0.5867,-0.5792,-0.5581,-0.5575,-0.5629,-0.5755,-0.5477,-0.5241,-0.5195,-0.4963,-0.4762,-0.4714,-0.4675,-0.453,-0.4888,-0.495,-0.4964,-0.4893,-0.4865,-0.4658,-0.4118,-0.3987,-0.3792,-0.3198,-0.3011,-0.2828,0.0,0.0,0.0,-0.2317,-0.2509,0.0,-0.2644,-0.2488,0.0,-0.3064,0.0,-0.3062,-0.3497,-0.3538,0.0,0.0,-0.3211,-0.3063,-0.3279,-0.289,-0.2806,-0.3027,-0.2805,-0.2806,-0.3027,-0.3052,-0.3102,-0.3177,-0.285,-0.2805,-0.3027,-0.3027,-0.3139,-0.3475,-0.3475,-0.3475,-0.3587,-0.3587,-0.3587,-0.3583,-0.3538,-0.364,-0.3866,-0.3891,-0.4237,-0.4627,-0.4486,-0.4596,-0.4774,-0.4992,-0.504,-0.5102,-0.5263,-0.5279,-0.5253,-0.5625,-0.5713,-0.5766,-0.569,-0.5637,-0.5475,-0.5324,-0.5388,-0.5544,-0.5813,-0.5905,-0.6083,-0.6254,-0.6343,-0.6477,-0.6602,-0.6632,-0.6574,-0.6386,-0.6503,-0.6586,-0.6437,-0.6325,-0.6338,-0.6338,-0.6338,-0.6338,-0.6338,-0.6099,-0.6067,-0.6096,-0.5849,-0.5647,-0.5685,-0.5758,-0.5681,-0.5317,-0.5459,-0.5377,-0.4826,-0.5009,-0.5076,-0.5025,-0.5071,-0.5002,-0.5102,-0.5235,-0.5214,-0.5187,-0.5077,-0.4792,-0.4308,-0.3987,-0.361,-0.306,-0.267,0.0,0.0,0.0,0.0,0.0,0.0,0.0,-0.2889,-0.2787,-0.2845,0.0,-0.3104,0.0,-0.3352,-0.3518,-0.3681,0.0,-0.3543,-0.3494,-0.3578,-0.3271,-0.3165,-0.3363,-0.3141,-0.3163,-0.3436,-0.3388,-0.342,-0.3532,-0.3191,-0.3141,-0.3362,-0.3362,-0.3474,-0.3587,-0.3587,-0.3587,-0.3587,-0.3587,-0.3587,-0.3583,-0.3549,-0.3763,-0.3986,-0.4157,-0.4498,-0.4867,-0.492,-0.5041,-0.5068,-0.5102,-0.5151,-0.5126,-0.5445,-0.5469,-0.5471,-0.5854,-0.5971,-0.5941,-0.5852,-0.5627,-0.5413,-0.537,-0.5405,-0.5543,-0.5778,-0.5891,-0.5997,-0.6343,-0.6428,-0.6495,-0.6686,-0.6757,-0.673,-0.657,-0.6675,-0.677,-0.6681,-0.6485,-0.6329,-0.6268,-0.6338,-0.6285,-0.6349,-0.6195,-0.6016,-0.6078,-0.5876,-0.5737,-0.5699,-0.5825,-0.5758,-0.5439,-0.565,-0.5485,-0.5024,-0.5242,-0.5221,-0.5035,-0.5269,-0.5218,-0.5202,-0.5294,-0.538,-0.5453,-0.5142,-0.477,-0.4575,-0.4042,-0.3375,-0.2939,0.0,-0.214,-0.1958,-0.1993,-0.2127,-0.2358,0.0,-0.2936,-0.3184,-0.3158,-0.3158,-0.3171,-0.326,-0.3207,-0.3207,-0.3611,-0.3766,-0.3758,-0.3779,-0.3759,-0.3683,-0.3679,-0.365,-0.359,-0.3587,-0.3646,-0.3768,-0.3649,-0.3649,-0.3768,-0.3646,-0.3587,-0.3587,-0.3587,-0.3587,-0.3587,-0.3587,-0.3587,-0.3587,-0.3587,-0.3587,-0.3587,-0.3587,-0.3778,-0.4065,-0.4345,-0.4661,-0.4832,-0.5242,-0.5382,-0.5355,-0.5196,-0.5137,-0.5128,-0.5563,-0.5616,-0.5787,-0.6129,-0.6203,-0.6232,-0.6046,-0.5784,-0.5453,-0.5379,-0.5302,-0.5267,-0.5654,-0.5702,-0.5908,-0.6343,-0.634,-0.6432,-0.6704,-0.6861,-0.6854,-0.6789,-0.6847,-0.6843,-0.6929,-0.6661,-0.6434,-0.6329,-0.6302,-0.6346,-0.6488,-0.6344,-0.6163,-0.6053,-0.6012,-0.5927,-0.5754,-0.5876,-0.5921,-0.5909,-0.5811,-0.5642,-0.5489,-0.5469,-0.5249,-0.5088,-0.5355,-0.5229,-0.5108,-0.5198,-0.5271,-0.5286,-0.5324,-0.5142,-0.4746,-0.4167,0.0,0.0,-0.2328,-0.189,-0.171,-0.1847,0.0,-0.2244,0.0,0.0,0.0,0.0,-0.3283,0.0,0.0,0.0,0.0,0.0,0.0,0.0,-0.3834,-0.3849,-0.3687,-0.3679,-0.365,-0.359,-0.3587,-0.3646,-0.3768,-0.3649,-0.3649,-0.3768,-0.3646,-0.3587,-0.3587,-0.3587,-0.3587,-0.3587,-0.3587,-0.3587,-0.3587,-0.3587,-0.3587,-0.3587,-0.3587,-0.3916,-0.435,-0.4475,-0.4695,-0.491,-0.5264,-0.5268,-0.5037,-0.5232,-0.5282,-0.5235,-0.5636,-0.5726,-0.58,-0.6438,-0.648,-0.6267,-0.6229,-0.5943,-0.5581,-0.5649,-0.5583,-0.5697,-0.6096,-0.6099,-0.6083,-0.6343,-0.6083,-0.5997,-0.6432,-0.6253,-0.6216,-0.6416,-0.6579,-0.6751,-0.6843,-0.6661,-0.6512,-0.6614,-0.6512,-0.6498,-0.6647,-0.6493,-0.6386,-0.6531,-0.6402,-0.6192,-0.6008,-0.6325,-0.6239,-0.5786,-0.5943,-0.5943,-0.57,-0.5499,-0.5403,-0.5315,-0.5154,-0.4987,-0.5297,-0.5283,-0.5233,-0.5186,-0.5171,-0.5026,-0.4483,0.0,0.0,0.0,-0.2079,-0.1659,-0.1542,0.0,0.0,0.0,0.0,0.0,0.0,0.0,0.0,0.0,0.0,0.0,0.0,0.0,0.0,-0.3728,-0.3865,-0.3871,-0.3688,-0.3649,-0.3504,-0.3363,-0.3475,-0.3532,-0.3532,-0.3564,-0.3564,-0.3532,-0.3594,-0.3666,-0.3635,-0.3668,-0.3681,-0.3681,-0.3681,-0.3665,-0.3635,-0.3748,-0.373,-0.3587,-0.3921,-0.4257,-0.448,-0.4704,-0.4929,-0.5156,-0.5382,-0.5268,-0.5156,-0.5382,-0.546,-0.5541,-0.5697,-0.601,-0.6313,-0.6478,-0.6386,-0.6386,-0.6495,-0.6077,-0.5686,-0.6052,-0.6139,-0.6059,-0.6118,-0.6136,-0.6253,-0.6272,-0.6083,-0.5997,-0.6169,-0.6204,-0.6183,-0.6248,-0.638,-0.6511,-0.6602,-0.6505,-0.6373,-0.6456,-0.6305,-0.6321,-0.6466,-0.6392,-0.6282,-0.6331,-0.6468,-0.6395,-0.6248,-0.648,-0.6471,-0.608,-0.6083,-0.5905,-0.5552,-0.546,-0.5282,-0.5015,-0.5013,-0.4921,-0.5313,-0.521,-0.5173,-0.512,-0.5024,-0.479,-0.42,-0.3599,0.0,0.0,-0.1846,-0.1495,-0.1414,0.0,0.0,0.0,0.0,0.0,0.0,0.0,0.0,0.0,0.0,0.0,0.0,0.0,0.0,-0.3749,-0.385,-0.3849,-0.3706,-0.3653,-0.3507,-0.3267,-0.3393,-0.3441,-0.3414,-0.3489,-0.3489,-0.3414,-0.3651,-0.3744,-0.3699,-0.3748,-0.377,-0.377,-0.377,-0.3734,-0.3679,-0.391,-0.387,-0.3699,-0.4145,-0.448,-0.448,-0.4706,-0.5043,-0.5268,-0.5268,-0.5268,-0.5268,-0.5268,-0.5489,-0.5822,-0.5822,-0.6156,-0.6604,-0.6386,-0.6274,-0.6272,-0.6495,-0.6174,-0.5842,-0.631,-0.6382,-0.6276,-0.5969,-0.6068,-0.6116,-0.6103,-0.6083,-0.5997,-0.6083,-0.6169,-0.6257,-0.6083,-0.6257,-0.6343,-0.6343,-0.6256,-0.6156,-0.6135,-0.6095,-0.6132,-0.6267,-0.6282,-0.6237,-0.6077,-0.6421,-0.6499,-0.6251,-0.6421,-0.6412,-0.6163,-0.5991,-0.5727,-0.5282,-0.5282,-0.5018,-0.4661,-0.4835,-0.4921,-0.4916,-0.4869,-0.5014,-0.509,-0.4977,-0.4726,-0.4265,0.0,0.0,-0.2332,-0.1857,-0.1549,-0.1507,-0.1534,-0.1623,0.0,0.0,-0.2218,0.0,0.0,0.0,0.0,0.0,0.0,0.0,0.0,0.0,-0.3687,-0.3748,-0.3778,-0.3762,-0.3755,-0.3728,-0.3672,-0.349,-0.3522,-0.3768,-0.3527,-0.3527,-0.3768,-0.3768,-0.3766,-0.376,-0.3766,-0.377,-0.377,-0.377,-0.3734,-0.3679,-0.3679,-0.3643,-0.3587,-0.3924,-0.4258,-0.448,-0.448,-0.4706,-0.4929,-0.4704,-0.4706,-0.4931,-0.4931,-0.5375,-0.5822,-0.5822,-0.6049,-0.6386,-0.6274,-0.6049,-0.5935,-0.6272,-0.6011,-0.5684,-0.5907,-0.6026,-0.6078,-0.5934,-0.5822,-0.5836,-0.6086,-0.5908,-0.5822,-0.6083,-0.5908,-0.5819,-0.6083,-0.6083,-0.6171,-0.6171,-0.6074,-0.606,-0.5778,-0.6028,-0.6273,-0.6401,-0.6413,-0.6331,-0.6083,-0.6334,-0.6242,-0.5819,-0.5985,-0.5983,-0.546,-0.546,-0.528,-0.501,-0.4837,-0.475,-0.4661,-0.4748,-0.475,-0.4869,-0.4893,-0.4967,-0.4949,-0.4808,-0.4545,-0.404,0.0,0.0,-0.2254,-0.1871,-0.1576,-0.1465,-0.1453,-0.1568,-0.17,-0.1824,0.0,0.0,0.0,0.0,0.0,0.0,0.0,0.0,0.0,-0.3763,-0.3837,-0.3865,-0.3846,-0.3774,-0.377,-0.3624,-0.3107,-0.3271,-0.3297,-0.3179,-0.3297,-0.3414,-0.3533,-0.3687,-0.3824,-0.3826,-0.3862,-0.3877,-0.3876,-0.4077,-0.4022,-0.396,-0.4153,-0.421,-0.4145,-0.4482,-0.4482,-0.4592,-0.4929,-0.4929,-0.4704,-0.4931,-0.4931,-0.4931,-0.5156,-0.5489,-0.5822,-0.5603,-0.5938,-0.6274,-0.5828,-0.5826,-0.5822,-0.5935,-0.5895,-0.5936,-0.6187,-0.6037,-0.5797,-0.5844,-0.5598,-0.5363,-0.5471,-0.5369,-0.5369,-0.5638,-0.546,-0.5369,-0.5638,-0.5547,-0.5455,-0.5455,-0.5455,-0.5366,-0.5275,-0.5684,-0.5943,-0.5991,-0.5994,-0.5905,-0.5727,-0.5899,-0.5811,-0.5552,-0.5638,-0.5549,-0.5371,-0.528,-0.5013,-0.4837,-0.475,-0.4659,-0.4478,-0.4478,-0.4569,-0.4767,-0.4743,-0.4742,-0.4806,-0.4528,-0.4242,0.0,0.0,-0.2747,-0.2198,-0.19,-0.1658,-0.1478,-0.1515,-0.1523,-0.1602,-0.1703,-0.186,0.0,0.0,0.0,0.0,0.0,0.0,0.0,0.0,-0.3805,-0.3891,-0.3931,-0.3898,-0.3775,-0.3803,-0.3432,-0.2898,-0.3058,-0.3076,-0.2943,-0.3178,-0.3297,-0.3416,-0.371,-0.3869,-0.3888,-0.3931,-0.3951,-0.3947,-0.4125,-0.4179,-0.4114,-0.451,-0.4548,-0.437,-0.4706,-0.4706,-0.4592,-0.5043,-0.4931,-0.4704,-0.5043,-0.5043,-0.5043,-0.5156,-0.5491,-0.5601,-0.5493,-0.5714,-0.6049,-0.5493,-0.5601,-0.5822,-0.5822,-0.6025,-0.6226,-0.6268,-0.5997,-0.5623,-0.5784,-0.5414,-0.5146,-0.507,-0.5032,-0.5099,-0.528,-0.5099,-0.5099,-0.528,-0.5099,-0.501,-0.4924,-0.4921,-0.501,-0.4924,-0.5282,-0.5463,-0.5463,-0.5552,-0.5552,-0.5371,-0.5547,-0.5547,-0.5371,-0.5282,-0.5282,-0.5193,-0.5102,-0.4848,-0.4613,-0.4674,-0.4585,-0.4338,-0.4401,-0.4465,-0.4212,-0.4189,-0.4307,-0.459,-0.4256,-0.3761,0.0,0.0,-0.2795,-0.2134,-0.1994,-0.1928,-0.1658,-0.1614,-0.1612,-0.1595,-0.1668,-0.1812,-0.2178,0.0,0.0,0.0,0.0,0.0,0.0,0.0,-0.377,-0.3771,-0.3883,0.0,-0.3775,-0.3641,-0.3405,-0.3299,-0.2988,-0.2991,-0.3297,-0.3297,-0.3414,-0.377,-0.3831,-0.3891,-0.395,-0.3951,-0.3951,-0.3947,-0.4125,-0.406,-0.3882,-0.4394,-0.4323,-0.4036,-0.4707,-0.4706,-0.448,-0.4817,-0.4929,-0.4817,-0.4592,-0.4929,-0.5382,-0.5043,-0.5156,-0.5382,-0.5382,-0.5601,-0.571,-0.5491,-0.5601,-0.5822,-0.5822,-0.6189,-0.6406,-0.6088,-0.6002,-0.5912,-0.5608,-0.532,-0.5076,-0.5076,-0.5082,-0.501,-0.501,-0.501,-0.501,-0.501,-0.501,-0.4921,-0.475,-0.4835,-0.4924,-0.4748,-0.4924,-0.501,-0.501,-0.528,-0.5371,-0.5371,-0.5371,-0.5371,-0.5371,-0.5102,-0.4924,-0.475,-0.4921,-0.4793,-0.4432,-0.4617,-0.4619,-0.4432,-0.4615,-0.4608,-0.381,-0.3769,-0.3836,-0.3889,-0.3673,-0.3473,-0.3203,0.0,-0.2617,-0.1975,-0.183,-0.1716,-0.1458,-0.1415,-0.1452,-0.1699,-0.1756,-0.1843,-0.2126,0.0,0.0,0.0,0.0,0.0,0.0,0.0,-0.3786,-0.3828,-0.3905,-0.3898,-0.3775,-0.3641,-0.3407,-0.33,-0.299,-0.2991,-0.3297,-0.3261,-0.3377,-0.377,-0.3789,-0.3852,-0.3951,-0.3951,-0.3928,-0.3886,-0.4179,-0.4112,-0.405,-0.4096,-0.4392,-0.4594,-0.4372,-0.4484,-0.4817,-0.4817,-0.4817,-0.4704,-0.5043,-0.5043,-0.5043,-0.5156,-0.527,-0.5382,-0.5382,-0.5493,-0.5491,-0.5382,-0.5491,-0.5603,-0.571,-0.5751,-0.5669,-0.5964,-0.5588,-0.5136,-0.5398,-0.5172,-0.4795,-0.4795,-0.477,-0.4837,-0.4837,-0.4656,-0.4567,-0.4748,-0.448,-0.4302,-0.4389,-0.4302,-0.4302,-0.4389,-0.4478,-0.4743,-0.5191,-0.5371,-0.5282,-0.5099,-0.5099,-0.501,-0.4656,-0.4567,-0.4478,-0.4389,-0.4478,-0.4491,-0.4342,-0.4403,-0.4403,-0.434,-0.4341,-0.4251,0.0,-0.334,-0.3319,-0.3409,-0.3235,0.0,0.0,0.0,-0.2303,-0.1801,-0.169,-0.1646,-0.1423,-0.1427,-0.1508,-0.1655,-0.1713,-0.1798,-0.2,0.0,0.0,0.0,0.0,0.0,0.0,-0.3694,-0.3775,-0.379,-0.3869,-0.3864,-0.3741,-0.3588,-0.3476,-0.3503,-0.32,-0.3083,-0.3267,-0.3329,-0.3455,-0.377,-0.377,-0.3833,-0.3951,-0.3951,-0.3929,-0.389,-0.4158,-0.4213,0.0,-0.4188,-0.437,-0.4706,-0.4484,-0.4484,-0.4596,-0.4931,-0.4817,-0.4592,-0.5156,-0.5268,-0.5156,-0.5382,-0.5382,-0.5382,-0.5382,-0.5382,-0.5382,-0.5382,-0.5382,-0.5485,-0.5667,-0.5528,-0.5488,-0.581,-0.5384,-0.4988,-0.5308,-0.4989,-0.4624,-0.4716,-0.4595,-0.4569,-0.4569,-0.4302,-0.4212,-0.4393,-0.4036,-0.3855,-0.4032,-0.3944,-0.3946,-0.4123,-0.421,-0.4567,-0.5104,-0.5191,-0.5102,-0.4924,-0.4921,-0.4832,-0.448,-0.4389,-0.43,-0.43,-0.4389,-0.4405,-0.4351,-0.4385,-0.4383,-0.4349,-0.4297,-0.4206,0.0,0.0,0.0,0.0,0.0,0.0,0.0,0.0,0.0,-0.1567,-0.1609,-0.1666,-0.1547,-0.1595,-0.1645,-0.1581,-0.1604,-0.1725,0.0,0.0,0.0,0.0,0.0,0.0,0.0,-0.3634,-0.3744,-0.3683,-0.379,-0.3807,-0.3684,-0.3505,-0.3392,-0.3674,-0.35,-0.3271,-0.3218,-0.3504,-0.3646,-0.3763,-0.3885,-0.383,-0.3944,-0.3944,-0.3944,-0.3937,-0.4169,-0.4226,-0.4217,-0.4427,-0.448,-0.448,-0.4706,-0.4484,-0.415,-0.5044,-0.5043,-0.4592,-0.5156,-0.5382,-0.5382,-0.5382,-0.5382,-0.5382,-0.5382,-0.5382,-0.5382,-0.5382,-0.5382,-0.5472,-0.5599,-0.5643,-0.5751,-0.5466,-0.5399,-0.5344,-0.5138,-0.4761,-0.4545,-0.4725,-0.4555,-0.4308,-0.4308,-0.4037,-0.3859,-0.3859,-0.3681,-0.3593,-0.3588,-0.3773,-0.3864,-0.3859,-0.4123,-0.4389,-0.4572,-0.4835,-0.4921,-0.475,-0.4835,-0.4924,-0.4661,-0.4389,-0.4302,-0.4308,-0.4587,-0.4634,-0.4444,-0.453,-0.4528,-0.4444,-0.4426,-0.4336,-0.2292,0.0,-0.219,-0.2075,-0.2079,0.0,0.0,0.0,0.0,0.0,0.0,0.0,0.0,-0.1587,-0.158,-0.1971,-0.1937,-0.1973,-0.2215,0.0,0.0,0.0,0.0,0.0,0.0,-0.3681,-0.3744,-0.3683,-0.379,-0.3807,-0.3684,-0.3779,-0.3767,-0.3615,-0.3713,-0.3623,-0.3564,-0.3617,-0.3739,-0.4048,-0.4096,-0.4282,-0.4606,-0.4606,-0.4484,-0.4233,-0.4451,-0.4274,-0.3807,-0.407,-0.4148,-0.4148,-0.3923,-0.4258,-0.4706,-0.4706,-0.4929,-0.5156,-0.5043,-0.5043,-0.4931,-0.4817,-0.4817,-0.5043,-0.5043,-0.5156,-0.5382,-0.5382,-0.5382,-0.5487,-0.5684,-0.5584,-0.555,-0.5547,-0.5391,-0.5112,-0.5152,-0.5057,-0.4908,-0.4926,-0.465,-0.431,-0.4217,-0.3895,-0.3678,-0.3678,-0.3455,-0.3469,-0.3595,-0.3545,-0.3469,-0.3683,-0.3857,-0.3946,-0.3855,-0.4391,-0.4748,-0.4661,-0.475,-0.4659,-0.4389,-0.43,-0.4332,-0.4402,-0.4566,-0.4614,-0.454,-0.4561,-0.4561,-0.4536,-0.433,-0.4283,-0.1877,-0.1994,-0.2068,-0.1977,-0.1945,-0.1888,0.0,0.0,0.0,0.0,0.0,0.0,0.0,0.0,0.0,-0.1906,-0.2003,0.0,0.0,0.0,0.0,0.0,0.0,0.0,0.0,-0.3673,-0.3702,-0.3642,-0.3724,-0.3736,-0.3642,-0.3699,-0.3689,-0.359,-0.3651,-0.367,-0.3636,-0.3604,-0.3731,-0.391,-0.3941,-0.4109,-0.4294,-0.4294,-0.4292,-0.4048,-0.4182,-0.4023,-0.3904,-0.3839,-0.3924,-0.4038,-0.4035,-0.4258,-0.4484,-0.4817,-0.5043,-0.5156,-0.4931,-0.4817,-0.4706,-0.4704,-0.4817,-0.4929,-0.4929,-0.5043,-0.5156,-0.5156,-0.5238,-0.5318,-0.5537,-0.5347,-0.5222,-0.5472,-0.5212,-0.4938,-0.5114,-0.5029,-0.4859,-0.472,-0.4467,-0.4145,-0.3924,-0.3612,-0.3406,-0.3406,-0.3285,-0.3214,-0.3239,-0.3289,-0.3304,-0.3414,-0.3587,-0.3678,-0.3587,-0.3944,-0.4214,-0.4304,-0.4302,-0.43,-0.43,-0.4212,-0.4164,-0.4432,-0.4483,-0.451,-0.451,-0.4594,-0.4614,-0.4571,-0.4467,-0.4518,-0.1653,-0.1907,-0.2207,-0.2107,-0.199,-0.1886,0.0,0.0,0.0,0.0,0.0,0.0,0.0,0.0,0.0,0.0,0.0,0.0,0.0,0.0,0.0,0.0,0.0,0.0,-0.3587,-0.3643,-0.3653,-0.3593,-0.3644,-0.3651,-0.3591,-0.3597,-0.3597,-0.3587,-0.3597,-0.3597,-0.3587,-0.3597,-0.3631,-0.3806,-0.3806,-0.3834,-0.3886,-0.3876,-0.3878,-0.3883,-0.382,-0.3908,-0.402,-0.3849,-0.3821,-0.4036,-0.4369,-0.4369,-0.426,-0.5044,-0.5156,-0.4929,-0.4817,-0.4594,-0.4369,-0.4706,-0.4817,-0.4817,-0.4817,-0.4921,-0.4914,-0.4814,-0.4991,-0.5156,-0.5156,-0.509,-0.4983,-0.5365,-0.5118,-0.4861,-0.5082,-0.4891,-0.4696,-0.4418,-0.4175,-0.3952,-0.3616,-0.3325,-0.3138,-0.3138,-0.3102,-0.2937,-0.2882,-0.3106,-0.3211,-0.3145,-0.3408,-0.3497,-0.3497,-0.3497,-0.3587,-0.3767,-0.3853,-0.403,-0.43,-0.4137,-0.4087,-0.4342,-0.4449,-0.437,-0.4384,-0.4632,-0.4675,-0.4614,-0.4651,-0.4695,-0.1811,-0.2046,-0.2189,-0.1804,-0.1853,-0.1924,0.0,0.0,0.0,0.0,0.0,0.0,0.0,0.0,0.0,0.0,0.0,0.0,0.0,0.0,0.0,0.0,0.0,-0.3587,-0.3587,-0.3643,-0.3653,-0.3593,-0.3644,-0.3651,-0.3591,-0.3636,-0.364,-0.3589,-0.3638,-0.364,-0.3589,-0.3639,-0.3809,-0.4102,-0.422,-0.4344,-0.4588,-0.4525,-0.4414,-0.4232,-0.4394,-0.4251,-0.3793,-0.4238,-0.4313,-0.4036,-0.4369,-0.4594,-0.4817,-0.4931,-0.4931,-0.4819,-0.426,-0.3923,-0.3811,-0.4036,-0.437,-0.4592,-0.4592,-0.488,-0.506,-0.4686,-0.4697,-0.491,-0.491,-0.509,-0.513,-0.5135,-0.5167,-0.5044,-0.4892,-0.4885,-0.4778,-0.4405,-0.3975,-0.3696,-0.35,-0.3178,-0.2963,-0.2963,-0.3014,-0.2937,-0.2882,-0.3015,-0.3028,-0.2969,-0.3139,-0.3229,-0.3053,-0.3139,-0.3317,-0.3317,-0.3676,-0.4034,-0.43,-0.4282,-0.4236,-0.4156,-0.4416,-0.4492,-0.4276,-0.4596,-0.4738,-0.479,-0.4575,-0.4639,-0.1758,-0.1931,-0.2021,-0.1953,-0.2119,-0.229,-0.2192,0.0,0.0,0.0,0.0,0.0,0.0,0.0,0.0,0.0,0.0,0.0,0.0,0.0,0.0,0.0,0.0,-0.3587,-0.3587,-0.3613,-0.3617,-0.359,-0.3613,-0.3617,-0.3589,-0.3615,-0.3729,-0.3813,-0.3727,-0.3746,-0.3865,-0.3779,-0.3789,-0.3898,-0.3898,-0.4012,-0.4127,-0.4095,-0.4003,-0.3946,-0.3996,-0.3989,-0.3907,-0.4211,-0.4288,-0.4258,-0.4594,-0.4817,-0.4929,-0.4929,-0.4817,-0.4592,-0.437,-0.4035,-0.3924,-0.4372,-0.4594,-0.4704,-0.4592,-0.479,-0.4882,-0.436,-0.4675,-0.4985,-0.4806,-0.4788,-0.485,-0.4876,-0.4781,-0.4753,-0.4854,-0.4842,-0.4614,-0.4148,-0.3835,-0.3468,-0.306,-0.2822,-0.2604,-0.2513,-0.2558,-0.2572,-0.2521,-0.2559,-0.2581,-0.2743,-0.2801,-0.2884,-0.2917,-0.298,-0.3051,-0.3051,-0.3499,-0.3765,-0.3674,-0.389,-0.4021,-0.4062,-0.4287,-0.4328,-0.437,-0.4514,-0.4726,-0.4812,-0.4729,-0.49,-0.1632,-0.1749,-0.185,-0.2091,0.0,-0.2488,-0.2655,0.0,0.0,0.0,0.0,0.0,0.0,0.0,0.0,0.0,0.0,0.0,0.0,0.0,-0.3486,-0.3576,-0.3587,-0.3587,-0.3587,-0.3587,-0.3587,-0.3587,-0.3587,-0.3587,-0.3587,-0.3587,-0.3699,-0.3924,-0.3699,-0.3723,-0.4,-0.3772,-0.3649,-0.363,-0.3616,-0.3608,-0.3608,-0.3594,-0.3613,-0.3655,-0.3623,-0.3741,-0.4113,-0.4076,-0.4273,-0.4592,-0.4929,-0.4931,-0.4929,-0.4817,-0.4594,-0.4369,-0.4369,-0.4147,-0.4036,-0.4594,-0.4706,-0.4706,-0.448,-0.458,-0.4793,-0.4143,-0.454,-0.5045,-0.4571,-0.4578,-0.4545,-0.4687,-0.4454,-0.4412,-0.4669,-0.4635,-0.4287,-0.3849,-0.3572,-0.3221,-0.2787,-0.2559,-0.2438,-0.2246,-0.2275,-0.2285,-0.2249,-0.2275,-0.2299,-0.2482,-0.2539,-0.2619,-0.2935,-0.2912,-0.2888,-0.2875,-0.332,-0.3497,-0.3406,-0.3587,-0.3794,-0.4036,-0.4127,-0.4229,-0.4434,-0.4599,-0.4703,-0.4935,-0.4982,-0.5153,-0.1465,-0.1602,-0.1832,-0.1971,-0.196,0.0,-0.2762,0.0,0.0,0.0,0.0,0.0,0.0,0.0,0.0,0.0,0.0,0.0,0.0,0.0,-0.3578,-0.3587,-0.3587,-0.3587,-0.3587,-0.3587,-0.3587,-0.3587,-0.3587,-0.3587,-0.3587,-0.3587,-0.3587,-0.3587,-0.3587,-0.359,-0.3594,-0.3594,-0.3649,-0.3755,-0.3699,-0.3672,-0.367,-0.3613,-0.359,-0.3597,-0.3649,-0.3757,-0.4049,-0.4447,-0.4658,-0.4929,-0.5268,-0.5156,-0.4817,-0.4592,-0.437,-0.4036,-0.4036,-0.3813,-0.3699,-0.4369,-0.437,-0.4036,-0.4036,-0.4434,-0.472,-0.4129,-0.4429,-0.4824,-0.4571,-0.465,-0.4686,-0.4393,-0.4269,-0.4227,-0.4073,-0.4041,-0.3919,-0.3644,-0.3284,-0.3029,-0.2969,-0.2587,-0.2295,-0.2431,-0.2517,-0.2428,-0.2244,-0.2336,-0.243,-0.2249,-0.2426,-0.2606,-0.288,-0.2925,-0.2931,-0.2877,-0.3139,-0.3406,-0.3857,-0.3859,-0.386,-0.3956,-0.4133,-0.4351,-0.4434,-0.4629,-0.4953,-0.5221,-0.5129,-0.5269,-0.1247,-0.1443,-0.1703,-0.1839,0.0,0.0,0.0,0.0,0.0,0.0,0.0,0.0,0.0,0.0,0.0,0.0,0.0,0.0,-0.3456,-0.3536,-0.3587,-0.3587,-0.3587,-0.3587,-0.3587,-0.3587,-0.3587,-0.3587,-0.3587,-0.3587,-0.3587,-0.3587,-0.3699,-0.3813,-0.3699,-0.3699,-0.3813,-0.3699,-0.361,-0.3655,-0.3632,-0.3621,-0.3621,-0.3598,-0.3608,-0.3643,-0.3855,-0.4084,-0.4437,-0.4644,-0.4959,-0.5268,-0.5382,-0.5156,-0.4817,-0.4592,-0.4258,-0.4038,-0.4038,-0.3924,-0.3924,-0.4369,-0.434,-0.4195,-0.4195,-0.4503,-0.4702,-0.4297,-0.4538,-0.4779,-0.4252,-0.4207,-0.4242,-0.4063,-0.3907,-0.3951,-0.3954,-0.3833,-0.3726,-0.3603,-0.3117,-0.2756,-0.2549,-0.2216,-0.1902,-0.1797,-0.1794,-0.1794,-0.1705,-0.1794,-0.1894,-0.201,-0.238,-0.264,-0.2873,-0.2891,-0.3077,-0.3321,-0.3227,-0.3317,-0.3497,-0.3587,-0.3767,-0.3859,-0.4036,-0.4228,-0.4624,-0.4716,-0.4915,-0.5317,-0.5275,-0.5525,-0.115,-0.1329,-0.1542,0.0,0.0,0.0,0.0,0.0,0.0,0.0,0.0,0.0,0.0,0.0,0.0,0.0,0.0,-0.3432,-0.3489,-0.3549,-0.3587,-0.3587,-0.3587,-0.3579,-0.3561,-0.3559,-0.355,-0.3533,-0.3549,-0.3559,-0.3559,-0.3576,-0.3699,-0.3813,-0.3699,-0.3699,-0.3924,-0.3813,-0.3699,-0.3587,-0.3699,-0.3699,-0.3587,-0.3587,-0.3723,-0.3762,-0.3945,-0.4275,-0.4632,-0.483,-0.5043,-0.5268,-0.5268,-0.4931,-0.4596,-0.448,-0.4257,-0.3924,-0.4036,-0.4036,-0.3924,-0.4258,-0.4322,-0.4264,-0.4046,-0.4354,-0.4557,-0.4147,-0.4299,-0.4453,-0.403,-0.3875,-0.381,-0.3743,-0.3572,-0.361,-0.3747,-0.3633,-0.3433,-0.3433,-0.3049,-0.2688,-0.2481,-0.204,-0.1718,-0.1527,-0.1615,-0.1619,-0.1448,-0.1532,-0.1714,-0.2014,-0.2306,-0.2571,-0.2875,-0.298,-0.3163,-0.3499,-0.3406,-0.3317,-0.3406,-0.3587,-0.3767,-0.4036,-0.4036,-0.4304,-0.4837,-0.4837,-0.5015,-0.5463,-0.5549,-0.5816,-0.1242,-0.1267,0.0,0.0,0.0,0.0,0.0,0.0,0.0,0.0,0.0,0.0,0.0,0.0,0.0,-0.321,-0.3332,-0.3431,-0.3488,-0.3548,-0.3586,-0.3587,-0.3586,-0.3563,-0.3501,-0.3496,-0.3473,-0.3417,-0.3465,-0.3496,-0.3496,-0.3555,-0.3587,-0.3587,-0.3587,-0.3587,-0.3587,-0.3813,-0.3813,-0.3587,-0.3924,-0.3813,-0.3587,-0.3587,-0.3701,-0.4038,-0.4038,-0.433,-0.4813,-0.4895,-0.4929,-0.4929,-0.4929,-0.4484,-0.4036,-0.4369,-0.4145,-0.3699,-0.4257,-0.4145,-0.3699,-0.3924,-0.399,-0.3826,-0.3605,-0.3778,-0.4061,-0.3587,-0.3714,-0.3841,-0.3682,-0.3763,-0.381,-0.3427,-0.3365,-0.3304,-0.3244,-0.323,-0.323,-0.323,-0.2882,-0.2728,-0.2676,-0.2156,-0.1838,-0.18,-0.2064,-0.1989,-0.1569,-0.191,-0.2155,-0.2155,-0.2195,-0.2387,-0.2879,-0.3109,-0.3299,-0.323,-0.3497,-0.3678,-0.3859,-0.3859,-0.4036,-0.43,-0.43,-0.4565,-0.501,-0.501,-0.528,-0.5733,-0.5997,-0.6083,-0.1142,0.0,0.0,0.0,0.0,0.0,0.0,0.0,0.0,0.0,0.0,0.0,0.0,0.0,0.0,-0.3168,-0.3268,-0.3369,-0.3429,-0.3452,-0.3478,-0.3519,-0.3489,-0.3456,-0.3439,-0.3437,-0.3431,-0.3414,-0.3465,-0.3496,-0.3496,-0.3555,-0.3587,-0.3587,-0.3587,-0.3699,-0.3924,-0.3924,-0.4036,-0.4257,-0.4369,-0.4033,-0.3587,-0.3813,-0.3924,-0.4038,-0.4484,-0.458,-0.4559,-0.4582,-0.4592,-0.4592,-0.4592,-0.437,-0.4036,-0.4369,-0.4145,-0.3699,-0.4036,-0.3923,-0.3587,-0.3699,-0.3769,-0.3926,-0.3769,-0.3956,-0.4158,-0.3857,-0.3789,-0.3841,-0.3682,-0.3622,-0.354,-0.3417,-0.3334,-0.3252,-0.3234,-0.323,-0.323,-0.323,-0.2754,-0.2401,-0.2386,-0.2157,-0.1847,-0.1652,-0.1834,-0.1838,-0.1572,-0.1933,-0.211,-0.1926,-0.2214,-0.2662,-0.3056,-0.3156,-0.334,-0.368,-0.3767,-0.3857,-0.3859,-0.3859,-0.4036,-0.43,-0.448,-0.4746,-0.501,-0.5364,-0.5633,-0.5997,-0.6169,-0.652,-0.1194,0.0,0.0,0.0,0.0,0.0,0.0,0.0,0.0,0.0,0.0,0.0,0.0,-0.3286,0.0,-0.321,-0.3273,-0.3342,-0.3403,-0.3432,-0.345,-0.3462,-0.3452,-0.3428,-0.3382,-0.3376,-0.3367,-0.3342,-0.3394,-0.3427,-0.3427,-0.3506,-0.3541,-0.3519,-0.3563,-0.3688,-0.3997,-0.4134,-0.4258,-0.448,-0.448,-0.4257,-0.3813,-0.4035,-0.426,-0.437,-0.4784,-0.477,-0.4438,-0.4547,-0.4453,-0.4258,-0.4258,-0.4147,-0.3924,-0.4369,-0.4145,-0.3699,-0.4035,-0.3923,-0.3587,-0.3587,-0.3768,-0.3921,-0.3642,-0.3834,-0.404,-0.3696,-0.363,-0.3689,-0.3508,-0.3447,-0.3383,-0.3407,-0.3319,-0.323,-0.323,-0.323,-0.323,-0.323,-0.2858,-0.2605,-0.2509,-0.2263,-0.1944,-0.1666,-0.1771,-0.1873,-0.1966,-0.2169,-0.2261,-0.2133,-0.2407,-0.2754,-0.3056,-0.3229,-0.3509,-0.3812,-0.3904,-0.4085,-0.4268,-0.4143,-0.4212,-0.4478,-0.4659,-0.4924,-0.5275,-0.5542,-0.5899,-0.6257,-0.652,-0.6874,0.0,0.0,0.0,0.0,0.0,0.0,0.0,0.0,0.0,0.0,0.0,0.0,0.0,-0.3185,-0.3184,-0.3294,-0.3313,-0.3335,-0.3395,-0.3443,-0.3455,-0.341,-0.3444,-0.3431,-0.3324,-0.3313,-0.329,-0.3234,-0.3288,-0.3323,-0.333,-0.3436,-0.3473,-0.3421,-0.3523,-0.3775,-0.3935,-0.4325,-0.4585,-0.4592,-0.4592,-0.437,-0.415,-0.437,-0.4704,-0.4925,-0.5062,-0.4809,-0.4375,-0.4588,-0.4411,-0.3917,-0.3923,-0.3813,-0.3699,-0.4257,-0.4145,-0.3699,-0.4257,-0.4145,-0.3587,-0.3587,-0.3772,-0.3823,-0.3545,-0.3627,-0.3714,-0.3449,-0.3365,-0.3405,-0.3412,-0.3367,-0.3335,-0.3391,-0.3315,-0.323,-0.323,-0.323,-0.323,-0.323,-0.3078,-0.3034,-0.2844,-0.2474,-0.2229,-0.2047,-0.1985,-0.2104,-0.2579,-0.2518,-0.251,-0.261,-0.2596,-0.2755,-0.2969,-0.3409,-0.3617,-0.3685,-0.3963,-0.433,-0.4702,-0.4443,-0.4489,-0.475,-0.4748,-0.5102,-0.5719,-0.5808,-0.6074,-0.6517,-0.6962,-0.7139,0.0,0.0,0.0,0.0,0.0,0.0,0.0,0.0,0.0,0.0,0.0,0.0,-0.3432,-0.3321,-0.3219,-0.3245,-0.3249,-0.3271,-0.3332,-0.3311,-0.3301,-0.3337,-0.3309,-0.338,-0.3558,-0.3352,-0.3347,-0.3536,-0.339,-0.3342,-0.339,-0.3459,-0.3491,-0.3478,-0.3723,-0.3951,-0.4264,-0.4605,-0.4865,-0.5156,-0.5156,-0.5156,-0.5044,-0.4706,-0.4817,-0.5264,-0.4737,-0.4484,-0.4375,-0.3934,-0.3723,-0.3632,-0.368,-0.3699,-0.3699,-0.4257,-0.4145,-0.3699,-0.4257,-0.4145,-0.3587,-0.3587,-0.3802,-0.3892,-0.3606,-0.3661,-0.3831,-0.3501,-0.3368,-0.3352,-0.3399,-0.3367,-0.3324,-0.3338,-0.3285,-0.323,-0.323,-0.323,-0.323,-0.323,-0.2946,-0.2697,-0.2542,-0.25,-0.257,-0.261,-0.2528,-0.2535,-0.2436,-0.2703,-0.2866,-0.2653,-0.2895,-0.3211,-0.3416,-0.3678,-0.3864,-0.3882,-0.4332,-0.451,-0.4418,-0.4379,-0.4645,-0.5196,-0.5369,-0.5633,-0.5991,-0.652,-0.6874,-0.6962,-0.7496,-0.7848,0.0,0.0,0.0,0.0,0.0,0.0,0.0,0.0,0.0,0.0,0.0,0.0,-0.3433,-0.3331,-0.323,-0.323,-0.323,-0.3241,-0.3273,-0.3376,-0.3478,-0.3483,-0.348,-0.3565,-0.3737,-0.3432,-0.3332,-0.3536,-0.339,-0.3323,-0.3324,-0.3435,-0.3458,-0.3372,-0.3668,-0.4029,-0.432,-0.4678,-0.4958,-0.5382,-0.5268,-0.5156,-0.5156,-0.5043,-0.502,-0.509,-0.4717,-0.4459,-0.4103,-0.3778,-0.3563,-0.3462,-0.3521,-0.3544,-0.3658,-0.4244,-0.4145,-0.3699,-0.4257,-0.4145,-0.3587,-0.3587,-0.3699,-0.3795,-0.3484,-0.3542,-0.361,-0.3341,-0.3303,-0.3285,-0.3318,-0.3301,-0.3278,-0.3278,-0.3253,-0.323,-0.323,-0.323,-0.323,-0.323,-0.3079,-0.2948,-0.2779,-0.2719,-0.2685,-0.2837,-0.2704,-0.269,-0.274,-0.299,-0.3038,-0.2914,-0.3164,-0.3394,-0.3593,-0.3944,-0.416,-0.4242,-0.4663,-0.4931,-0.5069,-0.5073,-0.5211,-0.5549,-0.5813,-0.608,-0.6438,-0.6877,-0.7143,-0.7323,-0.7852,-0.8201,0.0,0.0,0.0,0.0,0.0,0.0,0.0,0.0,0.0,0.0,0.0,-0.3203,-0.3213,-0.3215,-0.3218,-0.3229,-0.323,-0.323,-0.323,-0.3475,-0.3592,-0.3643,-0.3682,-0.3795,-0.3939,-0.3531,-0.3332,-0.3536,-0.338,-0.3289,-0.3248,-0.3386,-0.3504,-0.3249,-0.3707,-0.4093,-0.4367,-0.4643,-0.5054,-0.5382,-0.5156,-0.4931,-0.5043,-0.5268,-0.5228,-0.4824,-0.4796,-0.4423,-0.3939,-0.382,-0.3607,-0.3402,-0.3459,-0.3481,-0.3598,-0.4213,-0.4016,-0.3685,-0.4252,-0.4033,-0.3587,-0.3587,-0.3587,-0.3567,-0.3459,-0.342,-0.339,-0.3278,-0.3238,-0.323,-0.323,-0.323,-0.323,-0.323,-0.323,-0.323,-0.323,-0.323,-0.323,-0.323,-0.313,-0.3123,-0.3203,-0.2937,-0.2703,-0.2827,-0.2764,-0.2837,-0.3113,-0.3167,-0.3297,-0.3427,-0.341,-0.3562,-0.3681,-0.4121,-0.4453,-0.461,-0.4915,-0.5366,-0.5831,-0.5926,-0.5916,-0.5902,-0.608,-0.6438,-0.6884,-0.7146,-0.7411,-0.7591,-0.8116,-0.8464,0.0,0.0,0.0,0.0,0.0,0.0,0.0,0.0,0.0,0.0,0.0,-0.3186,-0.3437,-0.3251,-0.3169,-0.3525,-0.3332,-0.323,-0.323,-0.3237,-0.3341,-0.3536,-0.3643,-0.3745,-0.3934,-0.3734,-0.3534,-0.3636,-0.334,-0.3262,-0.3307,-0.3536,-0.3641,-0.3615,-0.4162,-0.4519,-0.468,-0.4906,-0.5212,-0.5382,-0.5382,-0.5382,-0.5382,-0.5382,-0.5262,-0.4906,-0.4546,-0.4163,-0.3829,-0.3564,-0.3334,-0.3339,-0.3399,-0.3424,-0.3431,-0.3814,-0.3729,-0.3516,-0.3905,-0.3811,-0.3587,-0.3587,-0.3587,-0.3575,-0.3506,-0.3451,-0.3398,-0.3328,-0.3271,-0.323,-0.323,-0.323,-0.323,-0.323,-0.323,-0.323,-0.323,-0.323,-0.323,-0.323,-0.3027,-0.2897,-0.3091,-0.295,-0.2875,-0.3075,-0.3287,-0.3394,-0.3354,-0.3479,-0.3711,-0.388,-0.4091,-0.4133,-0.421,-0.4654,-0.4846,-0.4698,-0.5136,-0.5399,-0.5505,-0.6022,-0.645,-0.6615,-0.6704,-0.6972,-0.7415,-0.768,-0.794,-0.8113,-0.8556,-0.8823,0.0,0.0,0.0,0.0,0.0,0.0,0.0,0.0,0.0,0.0,-0.2882,-0.303,-0.3258,-0.3214,-0.3149,-0.3275,-0.3209,-0.323,-0.323,-0.3432,-0.3633,-0.3636,-0.3736,-0.3934,-0.4236,-0.3734,-0.3533,-0.4038,-0.3567,-0.3278,-0.3477,-0.3542,-0.3548,-0.3679,-0.4023,-0.4371,-0.4614,-0.4928,-0.5124,-0.5304,-0.5253,-0.5255,-0.5304,-0.5304,-0.5222,-0.5146,-0.4543,-0.4261,-0.4039,-0.3514,-0.327,-0.3277,-0.3338,-0.3361,-0.3372,-0.3789,-0.3716,-0.3506,-0.3902,-0.3813,-0.3587,-0.3587,-0.3564,-0.3526,-0.3467,-0.3409,-0.3349,-0.3288,-0.3149,-0.3027,-0.313,-0.2927,-0.2826,-0.313,-0.313,-0.3027,-0.313,-0.323,-0.323,-0.323,-0.313,-0.3012,-0.3159,-0.3067,-0.3074,-0.3351,-0.3291,-0.3342,-0.3623,-0.3711,-0.3819,-0.4176,-0.4232,-0.4387,-0.4654,-0.5013,-0.5218,-0.5192,-0.5586,-0.5847,-0.6093,-0.656,-0.6877,-0.7149,-0.7149,-0.7415,-0.7852,-0.8028,-0.8292,-0.8556,-0.8823,-0.8999,0.0,0.0,0.0,0.0,0.0,0.0,0.0,0.0,0.0,0.0,-0.2762,-0.2824,-0.2956,-0.3055,-0.3121,-0.3236,-0.3191,-0.323,-0.323,-0.3633,-0.3833,-0.3635,-0.3935,-0.4135,-0.4236,-0.3835,-0.3734,-0.4236,-0.3681,-0.3484,-0.3638,-0.3524,-0.3533,-0.3739,-0.3989,-0.4334,-0.4665,-0.4892,-0.5073,-0.51,-0.5032,-0.5036,-0.51,-0.4994,-0.5029,-0.5194,-0.4525,-0.4251,-0.4011,-0.3478,-0.323,-0.3234,-0.3281,-0.3298,-0.3311,-0.3627,-0.3668,-0.3463,-0.376,-0.3788,-0.3564,-0.3564,-0.3533,-0.3484,-0.3412,-0.3358,-0.3309,-0.3248,-0.3029,-0.2927,-0.313,-0.2927,-0.2724,-0.313,-0.3029,-0.2927,-0.313,-0.323,-0.323,-0.323,-0.323,-0.3226,-0.3311,-0.3282,-0.3367,-0.3583,-0.3485,-0.3503,-0.3784,-0.3961,-0.4057,-0.448,-0.4476,-0.4654,-0.5099,-0.5369,-0.5586,-0.5582,-0.5955,-0.6302,-0.6672,-0.6933,-0.7231,-0.7591,-0.768,-0.794,-0.8285,-0.8285,-0.8552,-0.8999,-0.8999,-0.9257,0.0,0.0,0.0,0.0,0.0,0.0,0.0,0.0,0.0,0.0,-0.2703,-0.2786,-0.2796,-0.2937,-0.317,-0.3425,-0.329,-0.323,-0.323,-0.3433,-0.3636,-0.3636,-0.4038,-0.4236,-0.4033,-0.4236,-0.4236,-0.4033,-0.3737,-0.3539,-0.3636,-0.3643,-0.3742,-0.3934,-0.4241,-0.4583,-0.4971,-0.5057,-0.4998,-0.4687,-0.4682,-0.4682,-0.4687,-0.4477,-0.448,-0.4693,-0.4475,-0.3906,-0.3322,-0.3258,-0.323,-0.323,-0.3234,-0.3236,-0.3243,-0.3307,-0.3331,-0.3346,-0.3462,-0.3501,-0.3501,-0.3501,-0.3499,-0.3476,-0.3361,-0.3324,-0.3309,-0.3248,-0.323,-0.323,-0.323,-0.313,-0.313,-0.323,-0.323,-0.323,-0.323,-0.323,-0.323,-0.323,-0.323,-0.3213,-0.3451,-0.3491,-0.3688,-0.3847,-0.4069,-0.4151,-0.409,-0.4248,-0.4487,-0.4931,-0.4921,-0.5099,-0.5371,-0.5816,-0.5994,-0.573,-0.6169,-0.6523,-0.6805,-0.6969,-0.7319,-0.7764,-0.8285,-0.8548,-0.8548,-0.8548,-0.8815,-0.9262,-0.9262,-0.9519,0.0,0.0,0.0,0.0,0.0,0.0,0.0,0.0,0.0,-0.2465,-0.255,-0.2644,-0.2762,-0.2897,-0.3092,-0.3209,-0.3171,-0.3115,-0.3115,-0.3345,-0.3472,-0.3272,-0.3765,-0.406,-0.3961,-0.3864,-0.3965,-0.4459,-0.3809,-0.3533,-0.4038,-0.3836,-0.3836,-0.4236,-0.4338,-0.4552,-0.4883,-0.4916,-0.4858,-0.4914,-0.4652,-0.4553,-0.4605,-0.4396,-0.4162,-0.4017,-0.3958,-0.3858,-0.3623,-0.3356,-0.3331,-0.3433,-0.323,-0.3331,-0.3442,-0.33,-0.3322,-0.3334,-0.3414,-0.3443,-0.3443,-0.3443,-0.3416,-0.3376,-0.3334,-0.3294,-0.3259,-0.3237,-0.3029,-0.3027,-0.313,-0.2927,-0.2725,-0.2927,-0.323,-0.3433,-0.3433,-0.3633,-0.3732,-0.3732,-0.3533,-0.3527,-0.3503,-0.362,-0.3703,-0.3898,-0.4085,-0.4234,-0.427,-0.4292,-0.4514,-0.4924,-0.501,-0.5188,-0.5816,-0.5819,-0.5905,-0.6163,-0.6432,-0.6789,-0.6966,-0.7492,-0.7845,-0.8025,-0.8727,-0.9082,-0.9082,-0.9082,-0.9253,-0.9777,-0.9777,-0.9951,0.0,0.0,0.0,0.0,0.0,0.0,0.0,0.0,0.0,-0.2225,-0.2335,-0.2446,-0.2665,-0.2789,-0.2888,-0.2948,-0.301,-0.3144,-0.3144,-0.3373,-0.3401,-0.3109,-0.3594,-0.3885,-0.3786,-0.3692,-0.3898,-0.4508,-0.3871,-0.3709,-0.4336,-0.3935,-0.3935,-0.4338,-0.4437,-0.4624,-0.4792,-0.482,-0.475,-0.4679,-0.4349,-0.4266,-0.4215,-0.4008,-0.3778,-0.3638,-0.3579,-0.3595,-0.3592,-0.3348,-0.3331,-0.3433,-0.323,-0.3331,-0.3439,-0.3277,-0.329,-0.33,-0.3255,-0.3276,-0.3276,-0.3276,-0.325,-0.3214,-0.3297,-0.3263,-0.323,-0.323,-0.3029,-0.2927,-0.313,-0.2927,-0.2725,-0.2927,-0.3215,-0.3607,-0.3632,-0.3835,-0.4033,-0.4033,-0.3734,-0.3635,-0.3836,-0.3715,-0.3789,-0.4159,-0.4193,-0.4319,-0.4628,-0.4537,-0.474,-0.5158,-0.5187,-0.5448,-0.6088,-0.6034,-0.6218,-0.6612,-0.6881,-0.7146,-0.7492,-0.7937,-0.8288,-0.8468,-0.8995,-0.9349,-0.9519,-0.9519,-0.9694,-1.0125,-1.0125,-1.0299,0.0,0.0,0.0,0.0,0.0,0.0,0.0,0.0,0.0,-0.1897,-0.2001,-0.2203,-0.2415,-0.244,-0.257,-0.2918,-0.3,-0.3136,-0.3136,-0.333,-0.3428,-0.3141,-0.3525,-0.3811,-0.3525,-0.3715,-0.4032,-0.43,-0.4016,-0.4051,-0.4431,-0.4131,-0.413,-0.4431,-0.4628,-0.4787,-0.4706,-0.4787,-0.4487,-0.392,-0.3997,-0.3835,-0.3636,-0.3332,-0.3332,-0.3534,-0.3332,-0.323,-0.323,-0.323,-0.323,-0.323,-0.323,-0.323,-0.323,-0.323,-0.323,-0.3137,-0.2988,-0.2903,-0.2903,-0.2902,-0.2902,-0.2893,-0.3147,-0.323,-0.323,-0.323,-0.323,-0.323,-0.323,-0.323,-0.323,-0.323,-0.3386,-0.3555,-0.3621,-0.3833,-0.4033,-0.4033,-0.3835,-0.3736,-0.4237,-0.4072,-0.4143,-0.4714,-0.4681,-0.4697,-0.5068,-0.4997,-0.5183,-0.555,-0.5631,-0.5789,-0.6103,-0.6466,-0.6753,-0.7061,-0.7326,-0.768,-0.8201,-0.8201,-0.8468,-0.8911,-0.9174,-0.9519,-1.0038,-1.0038,-1.012,-1.0294,-1.0294,-1.0564,-0.0405,0.0,0.0,0.0,0.0,0.0,0.0,0.0,0.0,-0.1499,-0.1753,-0.1954,-0.2201,-0.2292,-0.246,-0.2677,-0.2788,-0.2857,-0.2857,-0.3022,-0.3077,-0.3077,-0.3264,-0.3451,-0.3357,-0.3451,-0.3645,-0.4131,-0.3861,-0.3934,-0.4548,-0.4548,-0.4518,-0.4552,-0.445,-0.4342,-0.4321,-0.4206,-0.4037,-0.392,-0.3799,-0.3635,-0.3636,-0.3332,-0.313,-0.3029,-0.313,-0.313,-0.2927,-0.313,-0.3332,-0.3433,-0.323,-0.3332,-0.3433,-0.323,-0.323,-0.3233,-0.3148,-0.3153,-0.3052,-0.2847,-0.2847,-0.2845,-0.2628,-0.2725,-0.2927,-0.2927,-0.323,-0.3534,-0.3534,-0.3332,-0.323,-0.323,-0.3518,-0.3909,-0.393,-0.4234,-0.4433,-0.4033,-0.3932,-0.3934,-0.4033,-0.4016,-0.407,-0.4367,-0.46,-0.4812,-0.4796,-0.512,-0.536,-0.5687,-0.5981,-0.6332,-0.6795,-0.6913,-0.7187,-0.768,-0.7676,-0.7852,-0.8201,-0.8556,-0.8823,-0.9174,-0.9607,-0.9951,-1.0207,-1.0207,-1.0381,-1.0554,-1.0738,-1.1176,0.0,0.0,0.0,0.0,0.0,0.0,-0.0843,-0.0908,-0.1034,0.0,-0.1374,-0.1589,-0.1812,-0.1952,-0.2021,-0.228,-0.2475,-0.2586,-0.2768,-0.2842,-0.2886,-0.2886,-0.2976,-0.3066,-0.3066,-0.3066,-0.3269,-0.3784,-0.3686,-0.3941,-0.4649,-0.4554,-0.4432,-0.4478,-0.4191,-0.408,-0.3951,-0.3934,-0.3876,-0.3683,-0.356,-0.3507,-0.3433,-0.323,-0.313,-0.2927,-0.313,-0.313,-0.3027,-0.313,-0.3331,-0.3433,-0.323,-0.3331,-0.3433,-0.323,-0.323,-0.323,-0.3029,-0.3029,-0.3027,-0.2826,-0.2725,-0.2623,-0.2725,-0.2725,-0.2826,-0.2927,-0.323,-0.3433,-0.3433,-0.3433,-0.3332,-0.3332,-0.371,-0.3995,-0.4026,-0.4307,-0.4493,-0.4327,-0.4234,-0.4135,-0.4135,-0.418,-0.4324,-0.4685,-0.4834,-0.5014,-0.5303,-0.5448,-0.5673,-0.6071,-0.6391,-0.67,-0.7161,-0.7295,-0.7486,-0.8139,-0.8155,-0.8201,-0.838,-0.8823,-0.9174,-0.9262,-0.9694,-1.0038,-1.0381,-1.0472,-1.0733,-1.0997,-1.1176,-1.1527,0.0,0.0,0.0,0.0,-0.0608,0.0,-0.0742,-0.0834,-0.0916,0.0,-0.1064,-0.1169,-0.1484,-0.142,-0.148,-0.1903,-0.2086,-0.2317,-0.2718,-0.2764,-0.2774,-0.2774,-0.2774,-0.2774,-0.2774,-0.2779,-0.3003,-0.3389,-0.3598,-0.4009,-0.4553,-0.4271,-0.4171,-0.4161,-0.3976,-0.3757,-0.3689,-0.3764,-0.3612,-0.3325,-0.3393,-0.3359,-0.3221,-0.3221,-0.3224,-0.313,-0.323,-0.323,-0.313,-0.323,-0.323,-0.323,-0.323,-0.323,-0.323,-0.323,-0.323,-0.313,-0.2927,-0.2826,-0.2826,-0.2826,-0.2623,-0.2522,-0.2927,-0.2927,-0.2826,-0.323,-0.323,-0.323,-0.3331,-0.3534,-0.3635,-0.3635,-0.3785,-0.3951,-0.4017,-0.418,-0.4447,-0.472,-0.4537,-0.4438,-0.4336,-0.4413,-0.4749,-0.5302,-0.5207,-0.5339,-0.6013,-0.595,-0.6029,-0.6578,-0.6789,-0.7052,-0.7431,-0.7612,-0.7912,-0.85,-0.8609,-0.8693,-0.8685,-0.9121,-0.9367,-0.9349,-0.9602,-0.9951,-1.0472,-1.0829,-1.1094,-1.1354,-1.1607,-1.1699,0.0,0.0,0.0,-0.0724,-0.0775,0.0,-0.0674,-0.0667,-0.0677,0.0,-0.0827,-0.0965,-0.1093,-0.1275,-0.1462,-0.1697,-0.1897,-0.2094,-0.2523,-0.2649,-0.271,-0.271,-0.271,-0.271,-0.271,-0.2755,-0.2966,-0.3427,-0.381,-0.4072,-0.4181,-0.3905,-0.3786,-0.3723,-0.3448,-0.3351,-0.3337,-0.3223,-0.3161,-0.307,-0.3133,-0.3195,-0.3157,-0.3157,-0.2985,-0.2927,-0.313,-0.3029,-0.2927,-0.313,-0.323,-0.323,-0.323,-0.323,-0.323,-0.323,-0.323,-0.323,-0.313,-0.313,-0.313,-0.2826,-0.2725,-0.2724,-0.2623,-0.2623,-0.2927,-0.363,-0.3734,-0.3635,-0.4036,-0.4034,-0.3934,-0.3934,-0.3922,-0.4014,-0.4029,-0.4223,-0.4418,-0.4435,-0.4438,-0.4437,-0.4636,-0.4706,-0.4872,-0.5426,-0.5519,-0.5636,-0.5733,-0.604,-0.6377,-0.6701,-0.7155,-0.7455,-0.7743,-0.8225,-0.8509,-0.8664,-0.9095,-0.9287,-0.9135,-0.9494,-0.9776,-0.9868,-1.0391,-1.0824,-1.1089,-1.1181,-1.1262,-1.1354,-1.1602,-1.1946,-0.0787,-0.0834,-0.0896,-0.0798,-0.0787,0.0,0.0,-0.0651,-0.0601,-0.0594,-0.0705,-0.0784,-0.0818,-0.0946,-0.1181,-0.1465,-0.1546,-0.1748,-0.2221,-0.2422,-0.2568,-0.2598,-0.2575,-0.2568,-0.2598,-0.2657,-0.2886,-0.3467,-0.3683,-0.3881,-0.4058,-0.3655,-0.3479,-0.3532,-0.3212,-0.3051,-0.3051,-0.2991,-0.2931,-0.2959,-0.2989,-0.3052,-0.3139,-0.3139,-0.3074,-0.3027,-0.313,-0.313,-0.3027,-0.313,-0.323,-0.323,-0.323,-0.323,-0.323,-0.323,-0.323,-0.323,-0.323,-0.323,-0.313,-0.3029,-0.2927,-0.2826,-0.2826,-0.2927,-0.3128,-0.3531,-0.3633,-0.3635,-0.3937,-0.4137,-0.4236,-0.4236,-0.4334,-0.4423,-0.4384,-0.4508,-0.4624,-0.4585,-0.4746,-0.4892,-0.4843,-0.4897,-0.5066,-0.5461,-0.5749,-0.596,-0.6266,-0.6614,-0.6862,-0.713,-0.7538,-0.7883,-0.8189,-0.8748,-0.9119,-0.9214,-0.9605,-0.9745,-0.9457,-0.9818,-1.0084,-1.0043,-1.0391,-1.0651,-1.0651,-1.1089,-1.1262,-1.1354,-1.178,-1.2118,-0.0868,-0.086,-0.0875,-0.0918,-0.0838,-0.0769,0.0,0.0,0.0,-0.0611,0.0,0.0,0.0,0.0,0.0,-0.1165,0.0,0.0,0.0,-0.2058,0.0,-0.2323,-0.2309,-0.2312,-0.2361,-0.2486,-0.282,-0.3331,-0.3333,-0.3458,-0.3756,-0.3326,-0.3112,-0.3386,-0.3006,-0.2862,-0.2875,-0.2875,-0.2898,-0.2941,-0.2941,-0.2999,-0.3009,-0.3117,-0.3155,-0.3114,-0.3225,-0.323,-0.323,-0.323,-0.323,-0.323,-0.323,-0.323,-0.323,-0.323,-0.323,-0.323,-0.323,-0.323,-0.323,-0.323,-0.3029,-0.2927,-0.313,-0.323,-0.3331,-0.3331,-0.3533,-0.3736,-0.3835,-0.4137,-0.4437,-0.4437,-0.4638,-0.4716,-0.465,-0.4688,-0.4714,-0.4747,-0.505,-0.5237,-0.5073,-0.52,-0.5473,-0.5856,-0.6095,-0.6477,-0.6973,-0.7076,-0.7327,-0.7604,-0.7801,-0.8188,-0.8553,-0.9119,-0.9505,-0.979,-1.0125,-1.0129,-0.9735,-1.0083,-1.013,-1.0043,-1.0212,-1.0299,-1.0212,-1.117,-1.1701,-1.1883,-1.221,-1.2416,-0.1032,-0.0909,-0.078,-0.0849,-0.1007,-0.0963,-0.0607,0.0,-0.0664,-0.0702,0.0,-0.0717,0.0,0.0,0.0,-0.091,-0.1058,-0.1177,-0.1335,-0.1471,-0.161,-0.183,-0.1923,-0.1981,-0.2057,-0.2339,-0.2684,-0.3008,-0.2852,-0.2898,-0.3092,-0.2919,-0.2811,-0.2867,-0.2877,-0.2819,-0.2873,-0.2875,-0.2877,-0.2884,-0.2884,-0.2827,-0.2706,-0.2941,-0.2995,-0.2856,-0.3106,-0.323,-0.323,-0.323,-0.323,-0.323,-0.323,-0.323,-0.323,-0.323,-0.323,-0.323,-0.323,-0.323,-0.323,-0.323,-0.313,-0.313,-0.323,-0.3332,-0.3635,-0.3833,-0.4135,-0.4338,-0.4636,-0.4736,-0.4734,-0.4734,-0.4636,-0.4435,-0.4427,-0.4431,-0.4433,-0.4722,-0.4836,-0.5075,-0.5558,-0.5872,-0.6282,-0.6807,-0.6894,-0.7006,-0.7114,-0.7319,-0.7512,-0.7601,-0.7822,-0.8131,-0.8407,-0.9103,-0.9596,-0.9596,-1.0356,-1.0619,-1.0269,-1.0074,-1.0062,-1.0038,-1.0038,-1.0386,-1.1176,-1.2112,-1.3016,-1.3903,-1.3057,-1.296,-0.0971,-0.0802,-0.0688,-0.1057,-0.1072,-0.0952,-0.0789,-0.0769,-0.0825,-0.0823,0.0,0.0,0.0,0.0,0.0,0.0,-0.0869,-0.0924,-0.1081,0.0,-0.1154,-0.1514,-0.1571,-0.1716,-0.2003,-0.2121,-0.2335,-0.2731,-0.2562,-0.2606,-0.2968,-0.2773,-0.2713,-0.2898,-0.2678,-0.2637,-0.2693,-0.2694,-0.2694,-0.2694,-0.2694,-0.2633,-0.2593,-0.2708,-0.2748,-0.2798,-0.3016,-0.3146,-0.3179,-0.3179,-0.3198,-0.323,-0.323,-0.323,-0.323,-0.323,-0.323,-0.323,-0.323,-0.323,-0.323,-0.323,-0.3207,-0.3184,-0.3422,-0.3507,-0.3584,-0.3922,-0.4236,-0.4438,-0.4537,-0.4636,-0.4834,-0.4834,-0.4836,-0.4824,-0.4773,-0.4899,-0.512,-0.5167,-0.5361,-0.5672,-0.5921,-0.6241,-0.6567,-0.6826,-0.6972,-0.7181,-0.7486,-0.7808,-0.8038,-0.8141,-0.8538,-0.8737,-0.8832,-0.9624,-1.0023,-0.9929,-1.0609,-1.0882,-1.0617,-1.0428,-1.0299,-1.0038,-1.0038,-1.0391,-1.1262,-1.2283,-1.2934,-1.3369,-1.3309,-1.3661,-0.0734,-0.0503,-0.0515,-0.102,-0.1009,-0.0937,-0.0868,-0.0848,-0.0854,-0.089,-0.086,0.0,0.0,0.0,-0.083,-0.0857,0.0,-0.0692,-0.0845,-0.0748,-0.0809,-0.1201,-0.1263,-0.1431,-0.1775,-0.1772,-0.1917,-0.2261,-0.2106,-0.2161,-0.2667,-0.2461,-0.2525,-0.2913,-0.247,-0.2358,-0.2513,-0.2424,-0.2424,-0.2424,-0.2424,-0.2443,-0.2387,-0.2494,-0.2519,-0.2553,-0.2851,-0.3074,-0.3115,-0.3115,-0.3151,-0.3206,-0.3206,-0.3215,-0.323,-0.323,-0.323,-0.323,-0.323,-0.323,-0.323,-0.323,-0.3189,-0.3151,-0.3515,-0.3587,-0.3644,-0.4014,-0.4336,-0.4537,-0.4537,-0.4738,-0.4937,-0.4937,-0.5138,-0.532,-0.5246,-0.5485,-0.5715,-0.5642,-0.6075,-0.6421,-0.6256,-0.6505,-0.686,-0.7006,-0.7109,-0.7287,-0.783,-0.8331,-0.8634,-0.8737,-0.9034,-0.9236,-0.9133,-0.9924,-1.0413,-1.052,-1.0904,-1.1109,-1.0915,-1.1151,-1.0987,-1.0391,-1.0884,-1.1331,-1.1688,-1.2369,-1.2839,-1.3028,-1.3374,-1.3818,-0.0193,-0.0,-0.0132,-0.0603,-0.0844,-0.0963,-0.0818,-0.0784,-0.0814,-0.0903,-0.0883,-0.0904,-0.0907,-0.0898,-0.0883,-0.082,-0.0629,0.0,0.0,-0.0566,-0.0661,-0.0813,-0.0954,-0.1101,-0.1398,-0.1245,-0.1232,-0.1526,-0.1407,-0.1483,-0.1926,-0.1891,-0.2043,-0.2598,-0.2247,-0.215,-0.2512,-0.2334,-0.2243,-0.2243,-0.2243,-0.2065,-0.1798,-0.211,-0.2222,-0.2226,-0.2551,-0.2859,-0.3147,-0.3147,-0.3089,-0.3142,-0.3142,-0.3179,-0.323,-0.323,-0.323,-0.323,-0.323,-0.323,-0.323,-0.323,-0.3189,-0.3151,-0.3515,-0.3685,-0.3936,-0.4314,-0.4535,-0.4834,-0.4834,-0.4937,-0.514,-0.514,-0.5438,-0.5634,-0.5632,-0.5734,-0.5939,-0.5937,-0.6642,-0.7098,-0.6752,-0.6804,-0.7096,-0.7554,-0.7214,-0.7247,-0.7949,-0.8641,-0.9034,-0.9133,-0.9133,-0.9133,-0.9133,-0.983,-1.0516,-1.1096,-1.1194,-1.1189,-1.1184,-1.2145,-1.2285,-1.1283,-1.3171,-1.3644,-1.2619,-1.2705,-1.3059,-1.3755,-1.3053,-1.304,-0.0192,-0.0,-0.0068,-0.0187,-0.0498,-0.0804,-0.0768,-0.0497,-0.0339,-0.0546,-0.0572,-0.0591,-0.0565,-0.0742,-0.0844,-0.0566,-0.0524,-0.0507,0.0,-0.047,-0.0517,-0.0648,-0.0756,-0.0885,-0.1165,-0.0996,-0.1018,-0.1219,-0.1185,-0.1284,-0.1633,-0.172,-0.1867,-0.2092,-0.1855,-0.185,-0.202,-0.196,-0.1974,-0.1974,-0.1974,-0.1885,-0.1795,-0.1898,-0.1904,-0.1996,-0.2284,-0.2493,-0.2805,-0.2805,-0.286,-0.3135,-0.3095,-0.3117,-0.3176,-0.3215,-0.323,-0.323,-0.3433,-0.3433,-0.3534,-0.3632,-0.3655,-0.3681,-0.3999,-0.4144,-0.4162,-0.4595,-0.4696,-0.4765,-0.5022,-0.5092,-0.5158,-0.5422,-0.5639,-0.5839,-0.5839,-0.6039,-0.6237,-0.6237,-0.6742,-0.7062,-0.7015,-0.7074,-0.7058,-0.7098,-0.7568,-0.8095,-0.8501,-0.9027,-0.9404,-0.9446,-0.943,-0.943,-0.943,-0.9628,-1.0216,-1.11,-1.1194,-1.1194,-1.1194,-1.2845,-1.3654,-1.3304,-1.3243,-1.3411,-1.3755,-1.3049,-1.2851,-1.3059,-1.3028,-1.3386,-0.0131,-0.0,-0.0,-0.0,-0.0253,-0.0497,-0.0678,-0.0454,-0.023,-0.0278,-0.0115,-0.0,-0.0237,-0.0604,-0.0813,-0.0637,-0.0484,-0.0419,0.0,-0.0456,-0.0468,-0.0545,-0.0622,-0.0726,-0.094,-0.0827,-0.0797,-0.0964,-0.0957,-0.1055,-0.1358,-0.1447,-0.1585,-0.1865,-0.1661,-0.158,-0.1824,-0.1687,-0.1615,-0.1615,-0.1615,-0.1615,-0.1705,-0.1794,-0.1884,-0.1974,-0.2243,-0.2442,-0.2749,-0.2749,-0.2801,-0.3071,-0.3033,-0.3053,-0.3112,-0.3151,-0.318,-0.3202,-0.3527,-0.3636,-0.3635,-0.3934,-0.3951,-0.3874,-0.4298,-0.4343,-0.4351,-0.4658,-0.4773,-0.4759,-0.5081,-0.5264,-0.5347,-0.5674,-0.5882,-0.6082,-0.6082,-0.6278,-0.6391,-0.6531,-0.6842,-0.7144,-0.7241,-0.7537,-0.7601,-0.727,-0.7498,-0.7975,-0.8488,-0.9021,-0.9462,-0.9632,-0.9551,-0.9535,-0.962,-1.0314,-1.0998,-1.1688,-1.1785,-1.1785,-1.1785,-1.3044,-1.3913,-1.4298,-1.3435,-1.3332,-1.4014,-1.3133,-1.2619,-1.2454,-1.2631,-1.3163]},{"header":{"parameterUnit":"m.s-1","parameterCategory":1,"la1":30.6,"la2":29.2853,"lo1":-89.7004,"lo2":-87.6739,"dy":0.0162,"dx":0.0183,"nx":112,"ny":82,"refTime":"2023-08-23T12:00:00:Z","depth":0,"parameterNumber":3,"parameterNumberName":"V-component_of_WINDS"},"data":[0.0,0.0,0.0,0.0,0.0,0.0,0.0,0.0,0.0,0.0,0.0,0.0,0.0,0.0,0.0,0.0,0.0,0.0,0.0,0.0,0.0,0.0,0.0,0.0,0.0,0.0,0.0,0.0,0.0,0.0,0.0,0.0,0.0,0.0,0.0,0.0,0.0,0.0,0.0,0.0,0.0,0.0,0.0,0.0,0.0,0.0,0.0,0.0,0.0,0.0,0.0,0.0,0.0,0.0,0.0,0.0,0.0,0.0,0.0,0.0,0.0,0.0,0.0,0.0,0.0,0.0,0.0,0.0,0.0,0.0,0.0,0.0,0.0,0.0,0.0,0.0,0.0,0.0,0.0,0.0,0.0,0.0,0.0,0.0,0.0,0.0,0.0,0.0,0.0,0.0,-1.7307,-1.808,-2.0689,-2.2388,-2.2388,-2.2787,-2.1392,-1.7532,0.0,0.0,0.0,0.0,0.0,0.0,0.0,0.0,0.0,0.0,0.0,0.0,0.0,0.0,0.0,0.0,0.0,0.0,0.0,0.0,0.0,0.0,0.0,0.0,0.0,0.0,0.0,0.0,0.0,0.0,0.0,0.0,0.0,0.0,0.0,0.0,0.0,0.0,0.0,0.0,0.0,0.0,0.0,0.0,0.0,0.0,0.0,0.0,0.0,0.0,0.0,0.0,0.0,0.0,0.0,0.0,0.0,0.0,0.0,0.0,0.0,0.0,0.0,0.0,0.0,0.0,0.0,0.0,0.0,0.0,0.0,0.0,0.0,0.0,0.0,0.0,0.0,0.0,0.0,0.0,0.0,0.0,0.0,0.0,0.0,0.0,0.0,0.0,0.0,0.0,0.0,0.0,0.0,0.0,0.0,0.0,0.0,0.0,0.0,0.0,0.0,0.0,0.0,0.0,-1.7786,-2.2017,-2.347,-2.4111,-2.4111,-2.354,-2.2009,-1.9276,0.0,0.0,0.0,0.0,0.0,0.0,0.0,0.0,0.0,0.0,0.0,0.0,0.0,0.0,0.0,0.0,0.0,0.0,0.0,0.0,0.0,0.0,0.0,0.0,0.0,0.0,0.0,0.0,0.0,0.0,0.0,0.0,0.0,0.0,0.0,0.0,0.0,0.0,0.0,0.0,0.0,0.0,0.0,0.0,0.0,0.0,0.0,0.0,0.0,0.0,0.0,0.0,0.0,0.0,0.0,0.0,0.0,0.0,0.0,0.0,0.0,0.0,0.0,0.0,0.0,0.0,0.0,0.0,0.0,0.0,0.0,0.0,0.0,0.0,0.0,0.0,0.0,0.0,0.0,0.0,0.0,0.0,0.0,0.0,0.0,0.0,0.0,0.0,0.0,0.0,0.0,0.0,0.0,0.0,0.0,0.0,0.0,0.0,0.0,0.0,0.0,0.0,0.0,-1.645,-1.9045,-2.3618,-2.4344,-2.4517,-2.4497,-2.4095,-2.2615,-1.9685,-1.7488,0.0,0.0,0.0,0.0,0.0,0.0,0.0,0.0,0.0,0.0,0.0,0.0,0.0,0.0,0.0,0.0,0.0,0.0,0.0,0.0,0.0,0.0,0.0,0.0,0.0,0.0,0.0,0.0,0.0,0.0,0.0,0.0,0.0,0.0,0.0,0.0,0.0,0.0,0.0,0.0,0.0,0.0,0.0,0.0,0.0,0.0,0.0,0.0,0.0,0.0,0.0,0.0,0.0,0.0,0.0,0.0,0.0,0.0,0.0,0.0,0.0,0.0,0.0,0.0,0.0,0.0,0.0,0.0,0.0,0.0,0.0,0.0,0.0,0.0,0.0,0.0,0.0,0.0,0.0,0.0,0.0,0.0,0.0,0.0,0.0,0.0,0.0,0.0,0.0,0.0,0.0,0.0,0.0,0.0,0.0,0.0,0.0,0.0,0.0,0.0,0.0,0.0,-1.9276,-2.0699,-2.4339,-2.4634,-2.4549,-2.453,-2.3775,-2.2219,-1.969,-1.6287,0.0,0.0,0.0,0.0,0.0,0.0,0.0,0.0,0.0,0.0,0.0,0.0,0.0,0.0,0.0,0.0,0.0,0.0,0.0,0.0,0.0,0.0,0.0,0.0,0.0,0.0,0.0,0.0,0.0,0.0,0.0,0.0,0.0,0.0,0.0,0.0,0.0,0.0,0.0,0.0,0.0,0.0,0.0,0.0,0.0,0.0,0.0,0.0,0.0,0.0,0.0,0.0,0.0,0.0,0.0,0.0,0.0,0.0,0.0,0.0,0.0,0.0,0.0,0.0,0.0,0.0,0.0,0.0,0.0,0.0,0.0,0.0,0.0,0.0,0.0,0.0,0.0,0.0,0.0,0.0,0.0,0.0,0.0,0.0,0.0,0.0,0.0,0.0,0.0,0.0,0.0,0.0,0.0,0.0,0.0,0.0,0.0,0.0,0.0,0.0,0.0,0.0,-2.0188,-2.2741,-2.4584,-2.4791,-2.4745,-2.4615,-2.1793,-1.9911,-1.9601,-1.37,0.0,0.0,0.0,0.0,0.0,0.0,0.0,0.0,0.0,0.0,0.0,0.0,0.0,0.0,0.0,0.0,0.0,0.0,0.0,0.0,0.0,0.0,0.0,0.0,0.0,0.0,0.0,0.0,0.0,0.0,0.0,0.0,0.0,0.0,0.0,0.0,0.0,0.0,0.0,0.0,0.0,0.0,0.0,0.0,0.0,0.0,0.0,0.0,0.0,0.0,0.0,0.0,0.0,0.0,0.0,0.0,0.0,0.0,0.0,0.0,0.0,0.0,0.0,0.0,0.0,0.0,0.0,0.0,0.0,0.0,0.0,0.0,0.0,0.0,0.0,0.0,0.0,0.0,0.0,0.0,0.0,0.0,0.0,0.0,0.0,0.0,0.0,0.0,0.0,0.0,0.0,0.0,0.0,0.0,0.0,0.0,0.0,0.0,0.0,0.0,0.0,0.0,-1.9371,-2.1781,-2.4524,-2.476,-2.4698,-2.4615,-2.3425,-2.16,-1.9018,0.0,0.0,0.0,0.0,0.0,0.0,0.0,0.0,0.0,0.0,0.0,0.0,0.0,0.0,0.0,0.0,0.0,0.0,0.0,0.0,0.0,0.0,0.0,0.0,0.0,0.0,0.0,0.0,0.0,0.0,0.0,0.0,0.0,0.0,0.0,0.0,0.0,0.0,0.0,0.0,0.0,0.0,0.0,0.0,0.0,0.0,0.0,0.0,0.0,0.0,0.0,0.0,0.0,0.0,0.0,0.0,0.0,0.0,0.0,0.0,0.0,0.0,0.0,0.0,0.0,0.0,0.0,0.0,0.0,0.0,0.0,0.0,0.0,0.0,0.0,0.0,0.0,0.0,0.0,0.0,0.0,0.0,0.0,0.0,0.0,0.0,0.0,0.0,0.0,0.0,0.0,0.0,0.0,0.0,0.0,0.0,0.0,0.0,0.0,0.0,0.0,0.0,-1.6943,-1.93,-2.17,-2.4501,-2.476,-2.4698,-2.465,-2.387,-2.1969,-1.8634,0.0,0.0,0.0,0.0,0.0,0.0,0.0,0.0,0.0,0.0,0.0,0.0,0.0,0.0,0.0,0.0,0.0,0.0,0.0,0.0,0.0,0.0,0.0,0.0,0.0,0.0,0.0,0.0,0.0,0.0,0.0,0.0,0.0,0.0,0.0,0.0,0.0,0.0,0.0,0.0,0.0,0.0,0.0,0.0,0.0,0.0,0.0,0.0,0.0,0.0,0.0,0.0,0.0,0.0,0.0,0.0,0.0,0.0,0.0,0.0,0.0,0.0,0.0,0.0,0.0,0.0,0.0,0.0,0.0,0.0,0.0,0.0,0.0,0.0,0.0,0.0,0.0,0.0,0.0,0.0,0.0,0.0,0.0,0.0,0.0,0.0,0.0,0.0,0.0,0.0,0.0,0.0,0.0,0.0,0.0,0.0,0.0,0.0,0.0,0.0,0.0,0.0,-1.6998,-2.0372,-2.3016,-2.4624,-2.4802,-2.4776,-2.4698,-2.2464,-2.0313,0.0,0.0,0.0,0.0,0.0,0.0,0.0,0.0,0.0,0.0,0.0,0.0,0.0,0.0,0.0,0.0,0.0,0.0,0.0,0.0,0.0,0.0,0.0,0.0,0.0,0.0,0.0,0.0,0.0,0.0,0.0,0.0,0.0,0.0,0.0,0.0,0.0,0.0,0.0,0.0,0.0,0.0,0.0,0.0,0.0,0.0,0.0,0.0,0.0,0.0,0.0,0.0,0.0,0.0,0.0,0.0,0.0,0.0,0.0,0.0,0.0,0.0,0.0,0.0,0.0,0.0,0.0,0.0,0.0,0.0,0.0,0.0,0.0,0.0,0.0,0.0,0.0,0.0,0.0,0.0,0.0,0.0,0.0,0.0,0.0,0.0,0.0,0.0,0.0,0.0,0.0,0.0,0.0,0.0,0.0,0.0,0.0,0.0,0.0,0.0,0.0,0.0,0.0,-1.7292,-2.0323,-2.297,-2.4624,-2.4802,-2.476,-2.4631,-2.4054,-2.2192,-1.8659,0.0,0.0,0.0,0.0,0.0,0.0,0.0,0.0,0.0,0.0,0.0,0.0,0.0,0.0,0.0,0.0,0.0,0.0,0.0,0.0,0.0,0.0,0.0,0.0,0.0,0.0,0.0,0.0,0.0,0.0,0.0,0.0,0.0,0.0,0.0,0.0,0.0,0.0,0.0,0.0,0.0,0.0,0.0,0.0,0.0,0.0,0.0,0.0,0.0,0.0,0.0,0.0,0.0,0.0,0.0,0.0,0.0,0.0,0.0,0.0,0.0,0.0,0.0,0.0,0.0,0.0,0.0,0.0,0.0,0.0,0.0,0.0,0.0,0.0,0.0,0.0,0.0,0.0,0.0,0.0,0.0,0.0,0.0,0.0,0.0,0.0,0.0,0.0,0.0,0.0,0.0,0.0,0.0,0.0,0.0,0.0,0.0,0.0,0.0,0.0,0.0,0.0,-1.7416,-2.0335,-2.2965,-2.4624,-2.4802,-2.4776,-2.4692,-2.4757,-2.314,-1.9226,0.0,0.0,0.0,0.0,0.0,0.0,0.0,0.0,0.0,0.0,0.0,0.0,0.0,0.0,0.0,0.0,0.0,0.0,0.0,0.0,0.0,0.0,0.0,0.0,0.0,0.0,0.0,0.0,0.0,0.0,0.0,0.0,0.0,0.0,0.0,0.0,0.0,0.0,0.0,0.0,0.0,0.0,0.0,0.0,0.0,0.0,0.0,0.0,0.0,0.0,0.0,0.0,0.0,0.0,0.0,0.0,0.0,0.0,0.0,0.0,0.0,0.0,0.0,0.0,0.0,0.0,0.0,0.0,0.0,0.0,0.0,0.0,0.0,0.0,0.0,0.0,0.0,0.0,0.0,0.0,0.0,0.0,0.0,0.0,0.0,0.0,0.0,0.0,0.0,0.0,0.0,0.0,0.0,0.0,0.0,0.0,0.0,0.0,0.0,0.0,0.0,0.0,-1.7416,-2.0433,-2.3118,-2.4752,-2.4986,-2.5009,-2.4926,-2.493,-2.3521,-2.0219,0.0,0.0,0.0,0.0,0.0,0.0,0.0,0.0,0.0,0.0,0.0,0.0,0.0,0.0,0.0,0.0,0.0,0.0,0.0,0.0,0.0,0.0,0.0,0.0,0.0,0.0,0.0,0.0,0.0,0.0,0.0,0.0,0.0,0.0,0.0,0.0,0.0,0.0,0.0,0.0,0.0,0.0,0.0,0.0,0.0,0.0,0.0,0.0,0.0,0.0,0.0,0.0,0.0,0.0,0.0,0.0,0.0,0.0,0.0,0.0,-1.7378,-1.6208,0.0,0.0,0.0,0.0,0.0,0.0,0.0,0.0,0.0,0.0,0.0,0.0,0.0,0.0,0.0,0.0,0.0,0.0,0.0,0.0,0.0,0.0,0.0,0.0,0.0,0.0,0.0,0.0,0.0,0.0,0.0,0.0,0.0,0.0,0.0,0.0,0.0,0.0,0.0,0.0,-1.7311,-2.0925,-2.3973,-2.5649,-2.6439,-2.6556,-2.58,-2.5838,-2.4449,-2.1061,-1.9152,0.0,0.0,0.0,0.0,0.0,0.0,0.0,0.0,0.0,0.0,0.0,0.0,0.0,0.0,0.0,0.0,0.0,0.0,0.0,0.0,0.0,0.0,0.0,0.0,0.0,0.0,0.0,0.0,0.0,0.0,0.0,0.0,0.0,0.0,0.0,0.0,0.0,0.0,0.0,0.0,0.0,0.0,0.0,0.0,0.0,0.0,0.0,0.0,0.0,0.0,0.0,0.0,0.0,0.0,0.0,0.0,0.0,0.0,0.0,-2.247,-2.0893,0.0,0.0,0.0,0.0,0.0,0.0,0.0,0.0,0.0,0.0,0.0,0.0,0.0,0.0,0.0,0.0,0.0,0.0,0.0,0.0,0.0,0.0,0.0,0.0,0.0,0.0,0.0,0.0,0.0,0.0,0.0,0.0,0.0,0.0,0.0,0.0,0.0,0.0,0.0,0.0,-1.7871,-2.1694,-2.4582,-2.5433,-2.6687,-2.6915,-2.563,-2.5968,-2.5143,-2.2502,-2.0452,0.0,0.0,0.0,0.0,0.0,0.0,0.0,0.0,0.0,0.0,0.0,0.0,0.0,0.0,0.0,0.0,0.0,0.0,0.0,0.0,0.0,0.0,0.0,0.0,0.0,0.0,0.0,0.0,0.0,0.0,0.0,0.0,0.0,0.0,0.0,0.0,0.0,0.0,0.0,0.0,0.0,0.0,0.0,0.0,0.0,0.0,0.0,0.0,0.0,0.0,0.0,0.0,0.0,-3.3846,-3.2363,-2.9662,-3.0538,-3.1335,-3.1821,-2.8367,-2.6772,-2.6484,-2.4902,0.0,0.0,0.0,0.0,0.0,0.0,0.0,0.0,0.0,0.0,0.0,0.0,0.0,0.0,0.0,0.0,0.0,0.0,0.0,0.0,0.0,0.0,-2.2032,-2.2686,-2.4043,-2.4159,-2.0312,0.0,0.0,0.0,0.0,0.0,0.0,0.0,0.0,0.0,0.0,0.0,-1.8942,-2.2716,-2.5319,-2.5537,-2.6996,-2.7272,-2.5579,-2.6113,-2.5715,-2.3821,-2.1775,-1.9823,0.0,0.0,0.0,0.0,0.0,0.0,0.0,0.0,0.0,0.0,0.0,0.0,0.0,0.0,0.0,0.0,0.0,0.0,0.0,0.0,0.0,0.0,0.0,0.0,0.0,0.0,0.0,0.0,0.0,0.0,0.0,0.0,-1.4097,-1.683,0.0,0.0,0.0,0.0,0.0,0.0,0.0,0.0,0.0,0.0,0.0,0.0,0.0,-2.1913,-2.6578,-3.0609,-3.3641,-3.5664,-3.5664,-3.543,-3.5019,-3.5888,-3.635,-3.6472,-3.6658,0.0,-3.0128,-2.8906,0.0,0.0,0.0,0.0,0.0,0.0,0.0,0.0,0.0,0.0,0.0,0.0,0.0,0.0,0.0,0.0,0.0,0.0,0.0,0.0,0.0,0.0,-2.8037,-2.8153,-2.889,-2.9586,-2.9706,-2.5206,-2.1013,-2.0736,-1.9437,-1.7794,0.0,0.0,0.0,0.0,0.0,0.0,-2.0741,-2.3967,-2.6683,-2.8131,-2.9163,-2.9064,-2.7329,-2.7333,-2.635,-2.3872,-2.3386,-2.2154,-1.9766,-1.8792,0.0,0.0,0.0,0.0,0.0,0.0,0.0,0.0,0.0,0.0,0.0,0.0,0.0,0.0,0.0,0.0,0.0,0.0,0.0,0.0,0.0,0.0,0.0,0.0,0.0,0.0,0.0,0.0,0.0,-1.3769,-1.7634,-1.9272,-2.1495,-2.2021,0.0,0.0,0.0,0.0,0.0,0.0,0.0,0.0,0.0,-2.6501,-2.7672,-3.0759,-3.5859,-3.7908,-3.9237,-3.9883,-3.9883,-3.9531,-3.8945,-3.9783,-4.0168,-4.022,-4.1093,-4.0012,-3.7399,-3.4296,-3.2129,-3.0625,0.0,0.0,0.0,0.0,-2.7386,-2.7073,-2.9982,-3.0645,-3.1092,-3.6497,0.0,0.0,0.0,0.0,0.0,0.0,0.0,-2.6152,-2.6414,-2.8193,-3.0004,-3.0494,-3.121,-3.1917,-3.2295,-2.9997,-2.7198,-2.4974,-2.3802,-2.2029,-1.842,-1.7775,0.0,0.0,0.0,-2.1534,-2.3168,-2.5899,-2.7804,-2.804,-2.9262,-2.9148,-2.6958,-2.7248,-2.6659,-2.4574,-2.4018,-2.305,-2.1476,-2.0209,-1.8393,0.0,0.0,0.0,0.0,0.0,0.0,0.0,0.0,0.0,0.0,0.0,0.0,0.0,0.0,0.0,0.0,0.0,0.0,0.0,0.0,0.0,0.0,0.0,0.0,0.0,0.0,0.0,0.0,-1.7304,-2.0859,-2.24,-2.5969,-2.7041,0.0,0.0,0.0,0.0,0.0,0.0,-2.6656,-2.9803,-3.1582,-3.1601,-3.4216,-3.7401,-4.1131,-4.1484,-4.2012,-4.2773,-4.2773,-4.2441,-4.1854,-4.2459,-4.2734,-4.2768,-4.3411,-4.3469,-4.2825,-3.9234,-3.6816,-3.5312,-3.4658,-3.3729,-3.2882,-3.3782,-3.4371,-3.5271,-3.9136,-3.5701,-3.0487,-3.563,-3.842,-3.9271,-3.6625,0.0,0.0,0.0,0.0,-3.2,-3.0888,-3.1167,-3.1838,-3.2259,-3.2986,-3.3577,-3.3564,-3.3525,-3.2371,-2.8606,-2.7658,-2.6117,-2.1876,-2.0967,0.0,-2.0528,-2.2234,-2.406,-2.5456,-2.7495,-2.8639,-2.8192,-2.9251,-2.9061,-2.6735,-2.7125,-2.6783,-2.5105,-2.4448,-2.3657,-2.2574,-2.1393,-1.9869,-1.7969,0.0,0.0,0.0,0.0,0.0,0.0,0.0,0.0,0.0,0.0,0.0,0.0,0.0,0.0,0.0,0.0,0.0,0.0,0.0,0.0,0.0,0.0,0.0,0.0,0.0,0.0,0.0,0.0,0.0,-2.7519,-2.9583,0.0,0.0,0.0,0.0,-2.786,-3.0209,-3.2026,-3.2904,-3.5468,-3.7285,-3.8105,-3.8789,-3.9763,-4.1085,-4.2242,-4.2676,-4.2422,-4.2422,-4.2828,-4.3587,-4.3626,-4.3635,-4.3647,-4.3685,-4.3676,-4.3606,-4.2859,-4.1829,-4.0715,-4.0652,-3.9603,-3.8112,-3.819,-3.8261,-3.8378,-3.8632,-3.9429,-4.0382,-4.0725,-3.872,-3.6128,-3.5947,-3.7007,0.0,0.0,-3.6232,-3.6598,-3.4651,-3.4734,-3.5145,-3.4357,-3.4776,-3.5374,-3.5372,-3.5359,-3.457,-3.1872,-3.0637,-2.9436,-2.7579,0.0,-2.5734,-2.4903,-2.5533,-2.6407,-2.7277,-2.8221,-2.9076,-2.9798,-2.995,-2.9289,-2.757,-2.7466,-2.6783,-2.5105,-2.5025,-2.4302,-2.2665,-2.2581,-2.1388,-1.8875,-1.7152,0.0,0.0,0.0,0.0,0.0,0.0,0.0,0.0,0.0,0.0,0.0,0.0,0.0,0.0,0.0,0.0,0.0,0.0,0.0,0.0,0.0,0.0,0.0,0.0,0.0,0.0,0.0,0.0,-3.041,-3.2773,0.0,-3.2531,-3.2928,-3.3261,-3.326,-3.513,-3.6907,-3.8339,-3.9785,-4.0976,-4.1855,-4.2065,-4.2628,-4.3609,-4.4034,-4.4467,-4.4902,-4.4917,-4.506,-4.5363,-4.5363,-4.5366,-4.5372,-4.5372,-4.5369,-4.5363,-4.5174,-4.4179,-4.277,-4.2772,-4.2392,-4.1881,-4.2232,-4.19,-4.1515,-4.3037,-4.2479,-4.11,-4.1097,-4.0253,-3.902,-3.7871,-3.7654,-3.7702,-3.7045,-3.6998,-3.6861,-3.5572,-3.5831,-3.6234,-3.5338,-3.5309,-3.5502,-3.5509,-3.5468,-3.5158,-3.4268,-3.3358,-3.1807,-2.9028,-2.8747,-2.8428,-2.6982,-2.7452,-2.8264,-2.9064,-2.9444,-2.9715,-2.9902,-2.994,-2.9485,-2.837,-2.7793,-2.6778,-2.5113,-2.4588,-2.3564,-2.1828,-2.1826,-2.1187,-1.9762,-1.86,-1.6495,0.0,0.0,0.0,0.0,0.0,0.0,0.0,0.0,0.0,0.0,0.0,0.0,0.0,0.0,0.0,0.0,0.0,0.0,0.0,0.0,0.0,0.0,0.0,0.0,0.0,0.0,-3.0559,-3.3103,-3.5722,-3.6972,-3.6093,-3.7324,-3.8164,-3.8164,-3.9765,-4.1054,-4.1738,-4.3008,-4.3711,-4.3691,-4.4264,-4.4845,-4.5426,-4.5436,-4.5731,-4.6307,-4.6297,-4.6306,-4.63,-4.63,-4.63,-4.63,-4.63,-4.63,-4.63,-4.63,-4.5613,-4.4575,-4.4543,-4.4534,-4.4529,-4.427,-4.4083,-4.4,-4.4417,-4.3036,-4.111,-4.111,-4.0812,-4.0273,-3.9064,-3.8268,-3.7808,-3.7792,-3.7638,-3.725,-3.6357,-3.654,-3.6712,-3.5805,-3.5558,-3.5534,-3.5496,-3.5463,-3.5441,-3.546,-3.4735,-3.3286,-3.072,-3.0778,-3.0669,-2.9167,-2.9664,-3.03,-3.0513,-3.0537,-3.0392,-3.001,-2.9956,-2.9599,-2.8768,-2.7945,-2.6892,-2.5487,-2.4726,-2.3694,-2.2242,-2.1951,-2.1455,-2.0641,-1.9517,-1.7699,-1.5209,0.0,0.0,0.0,0.0,0.0,0.0,0.0,0.0,0.0,0.0,0.0,0.0,0.0,0.0,0.0,0.0,0.0,0.0,0.0,0.0,0.0,0.0,0.0,-2.8359,-3.0723,-3.3359,-3.5906,-3.8455,-3.9705,-3.8879,-4.1011,-4.2461,-4.2558,-4.4071,-4.4438,-4.3125,-4.5117,-4.5527,-4.3828,-4.5456,-4.6339,-4.6339,-4.6373,-4.638,-4.638,-4.638,-4.6373,-4.6378,-4.6378,-4.6358,-4.6339,-4.6339,-4.6339,-4.63,-4.63,-4.6292,-4.6284,-4.6231,-4.6201,-4.6008,-4.4293,-4.4734,-4.567,-4.2338,-4.1169,-4.1149,-4.111,-4.0318,-3.9344,-3.9344,-3.8933,-3.8427,-3.8402,-3.8345,-3.8103,-3.719,-3.6987,-3.6774,-3.5836,-3.5623,-3.5623,-3.5509,-3.5515,-3.5509,-3.5427,-3.4721,-3.3876,-3.299,-3.2903,-3.2601,-3.1589,-3.2216,0.0,-3.1531,-3.1401,-3.1062,-3.0198,-3.0038,-2.9649,-2.8821,-2.7979,-2.712,-2.6265,-2.5551,-2.479,-2.3938,-2.313,-2.2336,-2.1569,-1.9896,-1.8665,-1.7889,0.0,0.0,0.0,0.0,0.0,0.0,0.0,0.0,0.0,0.0,0.0,0.0,0.0,0.0,0.0,0.0,0.0,0.0,0.0,0.0,0.0,0.0,-3.123,-3.1387,-3.4551,-3.7792,-4.0344,-4.1824,-4.2802,-4.32,-4.3292,-4.4125,-4.6036,-4.5436,-4.5377,-4.6256,-4.6295,-4.6078,-4.559,-4.6655,-4.7237,-4.7237,-4.7826,-4.8141,-4.8181,-4.8141,-4.8099,-4.8115,-4.8115,-4.7783,-4.7237,-4.7237,-4.6882,-4.6308,-4.6308,-4.6279,-4.624,-4.6255,-4.6245,-4.6144,-4.5657,-4.5274,-4.4773,-4.3397,-4.2539,-4.1941,-4.1305,-4.0844,-4.0532,-4.0536,-3.9976,-3.9213,-3.8585,-3.8402,-3.8015,-3.6464,-3.6571,-3.6842,-3.5908,-3.616,-3.6422,-3.5724,-3.6035,-3.626,-3.5603,-3.5282,-3.4812,-3.3844,-3.3743,-3.3456,-3.2536,-3.2627,-3.246,-3.1522,-3.1408,-3.1073,-3.0179,-3.0087,-2.9992,-2.9741,-2.8403,-2.7216,-2.6403,-2.5027,-2.4162,-2.3981,-2.315,-2.2614,-2.2441,-2.0792,-1.9834,0.0,0.0,0.0,0.0,0.0,0.0,0.0,0.0,0.0,0.0,0.0,0.0,0.0,0.0,0.0,0.0,0.0,0.0,0.0,0.0,0.0,0.0,-3.5545,-3.8334,-3.8334,-3.9413,-4.1015,-4.3234,-4.4257,-4.5135,-4.6009,-4.5637,-4.5963,-4.749,-4.6658,-4.6583,-4.7705,-4.6827,-4.63,-4.63,-4.7256,-4.7764,-4.7764,-4.8447,-4.8818,-4.8857,-4.8818,-4.8798,-4.8798,-4.8798,-4.8681,-4.8466,-4.8205,-4.7693,-4.7006,-4.6865,-4.6557,-4.6209,0.0,0.0,0.0,0.0,-4.5326,-4.4052,-4.3448,-4.287,-4.2214,-4.1338,-4.1032,-4.0991,-4.1007,-4.0388,-3.9585,-3.909,-3.8674,-3.814,-3.7075,-3.7211,-3.7492,-3.6886,-3.6908,-3.689,-3.6269,-3.6238,-3.6137,-3.5605,-3.5515,0.0,-3.4697,-3.4621,-3.4352,-3.3475,-3.3667,-3.3556,-3.2647,-3.2211,-3.1647,-3.0776,-3.0342,-3.0113,-3.0142,-2.8916,0.0,0.0,0.0,-2.5412,-2.5088,-2.4254,0.0,0.0,0.0,-2.2769,-2.3482,-2.2011,0.0,0.0,-2.0397,-2.0037,0.0,0.0,0.0,0.0,0.0,0.0,0.0,0.0,0.0,0.0,0.0,0.0,0.0,0.0,0.0,0.0,-4.1375,-4.6339,-4.6436,-4.4446,-4.3554,-4.5117,-4.6061,-4.6921,-4.7803,-4.7786,-4.7789,-4.7865,-4.7705,-4.7721,-4.7998,-4.7002,0.0,0.0,0.0,-4.8232,-4.8232,-4.8818,-4.9091,-4.9091,-4.9091,-4.9091,-4.9091,-4.9091,-4.9325,-4.9716,-4.9172,-4.8621,-4.805,-4.7649,-4.6995,-4.6183,-4.6086,-4.606,-4.6047,-4.5942,-4.4871,-4.341,-4.302,0.0,0.0,-4.1363,-4.1089,-4.1007,-4.0991,-4.044,-3.982,-3.9742,-3.914,-3.8509,-3.8336,-3.8268,-3.8239,-3.8291,-3.7695,-3.7065,-3.6988,-3.6331,-3.5701,-3.5528,-3.5515,-3.5489,-3.5407,-3.5412,-3.5144,-3.4356,-3.488,-3.5076,-3.4203,-3.3417,-3.2565,-3.158,-3.0734,0.0,-3.0204,-2.9415,-2.8931,-2.8996,-2.8344,-2.7593,-2.6773,-2.609,-2.6042,-2.6737,-2.6044,-2.642,-2.7913,-2.7914,-2.7991,-2.8038,-2.3354,-2.284,0.0,0.0,0.0,0.0,0.0,0.0,0.0,0.0,0.0,0.0,0.0,0.0,0.0,0.0,0.0,-4.3911,-4.5815,-4.6554,-4.7256,-4.6908,-4.6719,-4.7051,-4.7877,-4.8714,-4.9544,-4.8981,-4.8864,-4.9563,-4.8349,-4.7725,-4.7998,-4.7588,-4.7451,-4.7666,-4.8993,-4.9696,-4.9696,-5.0496,-5.0906,-5.0906,-5.0906,0.0,-5.0894,-5.0894,-5.0581,-5.0015,-4.9903,-4.9391,-4.8586,-4.7813,-4.6996,-4.6125,-4.5423,-4.5157,-4.5066,-4.4371,-4.3448,-4.265,-4.3234,-4.248,-4.1344,-4.1863,-4.1568,-4.0991,-4.101,-4.0829,0.0,-3.9878,-3.9529,-3.9199,-3.8491,-3.7783,-3.7569,-3.8733,-3.8035,-3.7142,-3.7274,-3.7003,-3.6499,-3.5719,-3.5591,-3.556,-3.5489,-3.5435,-3.5321,-3.51,-3.52,-3.5013,-3.4114,-3.3876,-3.3153,-3.1592,-3.1302,-3.0949,-3.0251,-2.9396,-2.8931,-2.8995,-2.8898,-2.8491,-2.7678,-2.8121,-2.8132,-2.7662,-2.7499,-2.7595,-2.7971,-2.798,-2.8354,-2.9018,-2.7301,-2.6867,0.0,0.0,0.0,0.0,0.0,0.0,0.0,0.0,0.0,0.0,0.0,-3.5371,0.0,0.0,-4.1326,-4.7068,-4.7042,-4.6593,-4.749,-4.7959,-4.8353,-4.8808,-4.9238,-4.9824,-5.0672,-4.9969,-4.9638,-5.0067,-4.9325,-4.8915,-4.9032,-4.8915,-4.8915,-4.9052,-4.9735,-5.0106,-5.0106,-5.0965,-5.1394,-5.1394,-5.1394,-5.139,-5.1406,-5.1406,-5.1167,-5.0752,-5.0756,-5.0004,-4.871,-4.7385,-4.6592,-4.6098,-4.5241,-4.517,-4.5508,-4.5072,-4.463,-4.4253,-4.424,-4.3389,-4.2373,-4.2802,-4.233,-4.1604,-4.1596,-4.1577,-4.1374,-4.0539,-4.0277,-4.014,-3.9674,-3.9257,-3.9131,-3.9839,-3.884,-3.7762,-3.7839,-3.7054,-3.6192,-3.5701,-3.5589,-3.5596,-3.556,-3.5489,-3.5435,-3.5364,-3.5315,-3.5132,-3.4722,-3.4267,-3.3658,-3.2791,-3.1951,-3.145,-3.1489,-3.0732,-3.0088,-2.9728,-2.9721,-2.9571,-2.9162,-2.9113,-2.9124,-2.9196,-2.8762,-2.9004,-2.9902,-2.9496,-2.9727,-3.053,-2.9687,-2.9522,0.0,0.0,0.0,0.0,0.0,0.0,0.0,0.0,-3.4777,-3.8064,-3.9296,-4.0703,-4.3749,-4.4179,-4.5017,-4.7927,-4.7354,-4.6846,-4.7705,-4.8388,-4.9114,-5.0002,-5.025,-5.0633,-5.1336,-5.077,-5.0282,-5.0106,-5.0106,-5.0087,-5.0028,-5.0067,-5.0184,-5.036,-5.036,-5.036,-5.036,-5.1043,-5.1394,-5.1394,-5.139,-5.139,-5.139,-5.141,-5.1406,-5.1396,-5.14,-5.0504,-4.8925,-4.7528,-4.6741,-4.6371,-4.567,-4.5728,-4.6157,-4.5825,-4.5694,-4.5628,-4.5078,-4.4316,-4.3614,-4.3778,-4.3216,-4.2431,-4.2257,-4.2325,-4.2248,-4.1189,-4.114,-4.1304,-4.0915,-4.0848,-4.0867,-4.0837,-3.9578,-3.8432,-3.8529,-3.7317,-3.6134,-3.5908,-3.5855,-3.5801,-3.5623,-3.5528,-3.5476,-3.5412,-3.533,-3.5304,-3.5277,-3.4671,-3.4159,-3.399,-3.2718,-3.2142,-3.2718,-3.221,-3.1572,-3.0905,-3.0879,-3.0902,-3.0887,-3.0056,-2.9963,-3.0711,-2.9881,-3.0142,-3.1562,-3.0927,-3.1014,-3.1796,-3.1157,-3.1144,-2.7971,-2.6607,0.0,-3.1867,-3.2611,-3.4708,0.0,0.0,-4.8875,-4.859,-4.8599,-4.8801,-4.9213,-4.8703,-4.8584,-4.968,-4.8505,-4.7744,-4.8545,-4.874,-4.9111,-5.0008,-5.0789,-5.1297,-5.1394,-5.1316,-5.0926,-5.0165,-5.0106,-4.9989,-4.9755,-4.9969,-5.0457,-5.1238,-5.1258,-5.1258,-5.1258,-5.1355,-5.1394,-5.1394,-5.1406,-5.1401,-5.1401,-5.1405,-5.1405,-5.1396,-5.14,-5.081,-4.9839,-4.9664,-4.869,-4.7345,-4.7248,-4.68,-4.6001,-4.4462,-4.3883,-4.3985,-4.4669,-4.4289,-4.3635,-4.4411,-4.4083,-4.3199,-4.2422,-4.2733,-4.3005,-4.1374,-4.1974,-4.2776,-4.1285,-4.0837,-4.0826,-4.0877,-3.9607,-3.8587,-3.9296,-3.8694,-3.7762,-3.6914,-3.6745,-3.6497,-3.5739,-3.5528,-3.5476,-3.5412,-3.533,-3.5289,-3.5215,-3.5136,-3.4757,-3.3911,-3.3748,-3.3452,-3.2764,-3.2685,-3.2631,-3.2535,-3.2583,-3.2622,-3.2622,-3.1833,-3.1453,-3.1568,-3.0769,-3.0491,-3.0724,-3.0636,-3.1033,-3.1883,-3.1796,-3.1398,-3.3249,0.0,0.0,0.0,-3.8759,-4.101,-4.5558,-4.7536,-4.8743,-4.9869,-5.0102,-5.0253,-5.0761,-5.0175,-4.9703,0.0,-4.9091,-4.8584,-4.9442,-4.9126,-4.9122,-5.0005,-4.9965,-5.0098,-5.0594,-5.1102,-5.1043,-5.0165,-5.0575,-5.0809,-5.0692,-5.0809,-5.1023,-5.1394,-5.1394,-5.1394,-5.1394,-5.1394,-5.1394,-5.1394,-5.141,-5.1406,-5.1406,-5.1401,-5.1396,-5.1366,-5.0862,-5.0407,-4.9956,-4.9488,-4.8884,-4.8202,-4.7696,-4.7287,-4.68,-4.5572,-4.5083,-4.5118,-4.5526,-4.5048,-4.4482,-4.5851,-4.5716,-4.4929,-4.453,-4.4676,-4.4598,-4.2849,-4.2856,-4.3125,-4.1914,-4.1571,-4.1443,-4.1003,-3.9985,-3.919,-3.9539,-3.8888,-3.8139,-3.7719,-3.7259,-3.6779,-3.6419,-3.5868,-3.5489,-3.5474,-3.5412,-3.5335,-3.5264,-3.5209,-3.4868,-3.4015,-3.4419,-3.4202,-3.2862,-3.325,-3.3355,-3.2889,-3.2878,-3.2904,-3.291,-3.2583,-3.2415,-3.2451,-3.2127,-3.2248,-3.2803,-3.1797,-3.1768,-3.2638,-3.1611,-3.0942,-3.5844,0.0,0.0,-4.0316,-4.3294,-4.5878,-4.66,-4.7619,-4.8918,-5.077,-5.0976,-5.0937,-5.1332,-5.0488,-4.9747,-4.9735,-4.9208,-4.9029,-4.9657,-4.92,-4.9025,-4.9673,-4.9181,-4.8942,-4.9332,-5.0161,-5.0418,-4.979,-5.0551,-5.1043,-5.1043,-5.1277,-5.1394,-5.1394,-5.1394,-5.1394,-5.1394,-5.1648,-5.1648,-5.1394,-5.1644,-5.1625,-5.1394,-5.1394,-5.1401,-5.1355,-5.0738,-5.0426,-5.0307,-4.9722,-4.9352,-4.906,-4.8436,-4.791,-4.7423,-4.678,-4.6524,-4.6461,-4.6539,-4.6099,-4.5755,-4.7271,-4.7164,-4.6416,-4.6376,-4.6521,-4.6307,-4.4314,-4.4087,-4.4141,-4.2803,-4.2451,-4.2257,-4.1459,-4.0595,-3.9945,-3.9927,-3.94,-3.8833,-3.8578,-3.802,-3.7443,-3.6967,-3.628,-3.5765,-3.5526,-3.546,-3.5398,-3.5308,-3.5277,-3.4996,-3.4419,-3.4925,-3.4821,-3.359,-3.4069,-3.418,-3.3626,-3.3588,-3.3602,-3.3622,-3.3391,-3.3269,-3.3326,-3.3111,-3.3349,-3.404,-3.2532,-3.2387,-3.349,-3.1532,-3.0854,0.0,0.0,-3.9262,-4.2637,-4.5462,-4.8092,-5.0634,-5.2486,-5.3696,-5.3774,-5.315,-5.2375,-5.1552,-5.0006,-4.883,-4.8833,-4.8829,-4.8806,-4.8837,-4.8818,-4.8814,-4.8845,-4.881,-4.8478,0.0,-4.8376,-4.8873,-4.8845,-4.9649,-5.0145,-5.0145,-5.0945,-5.1394,-5.1394,-5.1394,-5.1394,-5.1394,-5.2234,-5.2234,-5.1414,-5.226,-5.2221,-5.1394,-5.1394,-5.1401,-5.1394,-5.1375,-5.1317,-5.1261,-5.1222,-5.0735,-4.9956,-4.9937,-4.8923,-4.7501,-4.7462,-4.7408,-4.7381,-4.7435,-4.7404,-4.7466,-4.836,-4.802,-4.7259,-4.7259,-4.7842,-4.7978,-4.5401,-4.5832,-4.6506,-4.4013,-4.3354,-4.3152,-4.2352,-4.1489,-4.0839,-4.0779,-4.0746,-4.0447,-3.9535,-3.9341,-3.8794,-3.7082,-3.6727,-3.6411,-3.5622,-3.5493,-3.5446,-3.5315,-3.5289,-3.5289,-3.5262,-3.527,-3.5289,-3.5224,-3.5258,-3.5292,-3.5321,-3.5336,-3.535,-3.5416,-3.4603,-3.4154,-3.4161,-3.34,-3.3059,-3.314,-3.2242,-3.2677,-3.4294,-3.1775,-3.1513,-3.8965,0.0,-4.2701,-4.6137,-4.8087,-4.9549,-5.1054,-5.1829,-5.2233,-5.2233,-5.1102,-5.0009,-4.9731,-4.8254,-4.725,-4.783,-4.8415,-4.9001,-4.9575,-4.9649,-4.945,-4.886,-4.8289,0.0,0.0,0.0,0.0,-4.7991,-4.9289,-5.0089,-5.0104,-5.0937,-5.139,-5.1406,-5.139,-5.139,-5.1406,-5.2264,-5.2264,-5.1406,-5.1698,-5.1679,-5.1406,-5.1406,-5.1391,-5.1323,-5.1323,-5.1323,-5.13,-5.13,-5.1125,-5.0755,-4.9644,-4.9196,-4.8943,-4.7267,-4.7689,-4.8892,-4.7225,-4.6975,-4.7543,-4.837,-4.8428,-4.8271,-4.8863,-4.9221,-4.9163,-4.7695,-4.7284,-4.695,-4.5495,-4.4269,-4.3191,-4.2341,-4.1466,-4.0823,-4.0792,-4.0788,-4.0694,-4.0327,-3.9805,-3.9185,-3.8565,-3.7464,-3.643,-3.5622,-3.546,-3.5412,-3.5364,-3.5369,-3.5369,-3.5364,-3.5417,-3.5398,-3.5364,-3.5364,-3.5379,-3.546,-3.546,-3.5488,-3.5554,-3.5277,-3.5136,-3.5121,-3.4863,-3.4754,-3.4827,-3.3374,-3.3287,-3.442,-3.2395,-3.2057,-4.2188,-4.4022,-4.5304,-4.8747,-5.0018,-5.0692,-5.1609,-5.183,-5.157,-5.0654,-4.9075,-4.7593,-4.667,-4.4824,-4.3938,-4.544,-4.6645,-4.7933,-4.9425,-4.9894,-4.9889,-4.9332,-4.8767,-4.843,0.0,0.0,0.0,-4.8034,-4.9293,-5.0098,-5.0107,-5.0923,-5.1396,-5.1391,-5.1396,-5.1396,-5.1391,-5.2542,-5.2855,-5.2289,-5.1689,-5.1396,-5.1391,-5.1391,-5.1355,-5.1291,-5.1291,-5.1303,-5.13,-5.13,-5.13,-5.1183,-5.0112,-4.9644,-4.941,-4.8059,-4.8402,-4.9262,-4.7295,-4.7162,-4.7904,-4.8428,-4.8379,-4.8291,-4.9174,-4.9648,-4.9726,-4.8841,-4.841,-4.7862,-4.6348,-4.4909,-4.3559,-4.2419,-4.1446,-4.0792,-4.0792,-4.0808,-4.0778,-4.07,-4.0229,-3.9706,-3.9355,-3.8113,-3.6988,-3.6469,-3.6094,-3.5753,-3.5465,-3.5446,-3.5446,-3.5446,-3.546,-3.5474,-3.5446,-3.5446,-3.5441,-3.5501,-3.5501,-3.5528,-3.5591,-3.5591,-3.5739,-3.6014,-3.5755,-3.577,-3.6124,-3.4409,-3.4022,-3.4885,-3.3471,-3.3229,-4.3267,-4.5007,-4.7087,-5.0372,-5.1288,-5.1559,-5.2299,-5.2472,-5.1729,-4.9079,-4.7111,-4.5072,0.0,0.0,-3.9252,-4.1793,-4.3719,-4.5799,-4.8424,-4.9552,-5.0098,0.0,0.0,0.0,0.0,0.0,0.0,-4.9049,0.0,-5.0107,-5.0107,-5.0926,-5.1394,-5.1394,-5.1394,-5.1394,-5.1394,-5.2974,-5.3813,-5.3871,-5.2194,-5.1394,-5.1394,-5.1394,-5.1362,-5.1291,-5.1291,-5.1303,-5.13,-5.13,-5.13,-5.13,-5.1242,-5.0287,-4.9021,-4.9679,-4.9456,-4.8708,-4.7782,-4.7981,-4.8681,-4.8681,-4.8077,-4.755,-4.8463,-4.9279,-4.9745,-4.8953,-4.9246,-4.922,-4.6739,-4.5401,-4.4296,-4.2701,-4.1546,-4.0787,-4.0787,-4.08,-4.0778,-4.07,-4.0635,-4.0323,-3.9451,-3.8614,-3.8046,-3.8007,-3.7296,-3.6469,-3.568,-3.5545,-3.5493,-3.5493,-3.5493,-3.5493,-3.5493,-3.5507,-3.552,-3.556,-3.5534,-3.5566,-3.5739,-3.57,-3.6047,-3.6858,-3.611,-3.6145,-3.6961,-3.5317,-3.499,-3.5804,-3.4923,-3.5001,-4.6502,-4.8105,-4.9301,-5.082,-5.1705,-5.194,-5.0908,-5.0664,-4.9562,-4.5728,-4.3059,-4.0448,0.0,0.0,0.0,-3.9287,-4.2543,0.0,-4.8424,-4.9547,0.0,-5.0102,0.0,-5.0063,-5.0014,-5.0599,0.0,0.0,-5.068,-5.0082,-5.0029,-5.0894,-5.1388,-5.1336,-5.1369,-5.1388,-5.1336,-5.1746,-5.2604,-5.3871,-5.2207,-5.1369,-5.1336,-5.1336,-5.133,-5.1308,-5.1308,-5.1308,-5.13,-5.13,-5.13,-5.1242,-5.0599,-5.0474,-5.0536,-4.9437,-4.9683,-5.0354,-4.8818,-4.8847,-4.9575,-4.9573,-4.898,-4.8541,-5.0076,-5.0231,-4.9978,-5.0351,-5.0144,-4.9647,-4.8987,-4.6751,-4.4587,-4.4153,-4.2354,-4.0738,-4.072,-4.0726,-4.07,-4.0635,-4.0621,-4.0323,-3.9451,-3.9109,-3.8763,-3.8161,-3.7844,-3.7353,-3.6507,-3.5872,-3.5493,-3.5493,-3.5493,-3.5493,-3.5493,-3.5495,-3.5778,-3.6427,-3.5913,-3.6163,-3.7481,-3.6877,-3.6909,-3.7831,-3.7653,-3.7665,-3.7936,-3.6809,-3.6701,-3.7536,-3.6663,-3.6751,-4.8541,-4.9804,-5.067,-5.1517,-5.1547,-5.0927,-4.9245,-4.7979,-4.5874,-4.1175,-3.8188,0.0,0.0,0.0,0.0,0.0,0.0,0.0,-4.7236,-4.9081,-5.0095,0.0,-5.0745,0.0,-5.114,-5.1932,-5.2645,0.0,-5.2302,-5.1581,-5.1164,-5.1635,-5.1739,-5.1316,-5.1349,-5.172,-5.2426,-5.1686,-5.2173,-5.3888,-5.2168,-5.1349,-5.1296,-5.1296,-5.1289,-5.13,-5.13,-5.13,-5.13,-5.13,-5.13,-5.1242,-5.0755,-5.0641,-5.0644,-5.0023,-5.015,-5.0547,-4.9953,-5.0059,-5.0331,-4.9582,-4.9007,-4.8774,-4.9722,-4.9936,-4.9955,-5.0403,-5.0449,-5.0196,-4.944,-4.7539,-4.5735,-4.5367,-4.3238,-4.1408,-4.177,-4.1261,-4.0733,-4.0621,-4.0588,-4.0439,-3.9952,-3.9841,-3.9687,-3.9259,-3.8845,-3.8392,-3.7892,-3.6776,-3.5892,-3.5545,-3.5493,-3.5641,-3.6007,-3.6054,-3.644,-3.7321,-3.6582,-3.6742,-3.8131,-3.7302,-3.7411,-3.8702,-3.8375,-3.8419,-3.8817,-3.7901,-3.7746,-3.8244,-3.8094,-3.8338,-4.9493,-5.0367,-5.1183,-5.1882,-5.107,-4.9536,-4.7515,-4.5073,-4.1719,-3.6327,0.0,-3.0609,-2.7998,-2.8505,-3.0414,-3.3726,0.0,-4.1987,-4.5533,-4.8178,-4.9841,-5.0056,-5.1459,-5.2441,-5.2441,-5.3315,-5.3853,-5.3736,-5.4048,-5.3755,-5.2664,-5.2606,-5.2197,-5.1339,-5.13,-5.2138,-5.3892,-5.2177,-5.2177,-5.3892,-5.2138,-5.13,-5.13,-5.13,-5.13,-5.13,-5.13,-5.13,-5.13,-5.13,-5.13,-5.13,-5.13,-5.0836,-5.0246,-5.0948,-5.0724,-5.0178,-5.0942,-5.1202,-5.095,-4.9435,-4.8871,-4.8794,-4.8825,-4.929,-4.9821,-4.9918,-5.0519,-5.0752,-4.9239,-4.7973,-4.695,-4.631,-4.3978,-4.2133,-4.295,-4.1899,-4.0746,-4.0621,-4.0602,-4.0607,-4.0603,-4.0457,-4.0419,-4.0569,-3.9846,-3.9311,-3.9296,-3.7777,-3.6488,-3.5892,-3.5738,-3.5988,-3.6796,-3.692,-3.7327,-3.8215,-3.743,-3.7424,-3.8498,-3.763,-3.7919,-3.9541,-3.8884,-3.8909,-3.9681,-3.8914,-3.857,-3.8651,-3.9344,-3.9716,-4.8599,-4.9454,-5.0153,-5.0289,-5.0658,-4.997,-4.6124,-4.3276,0.0,0.0,-2.9576,-2.7024,-2.4452,-2.642,0.0,-3.209,0.0,0.0,0.0,0.0,-4.8463,0.0,0.0,0.0,0.0,0.0,0.0,0.0,-5.4827,-5.5041,-5.2723,-5.2606,-5.2197,-5.1339,-5.13,-5.2138,-5.3892,-5.2177,-5.2177,-5.3892,-5.2138,-5.13,-5.13,-5.13,-5.13,-5.13,-5.13,-5.13,-5.13,-5.13,-5.13,-5.13,-5.13,-5.1178,-5.1006,-5.1152,-5.1093,-5.0994,-5.1156,-5.1194,-5.1139,-5.0845,-5.025,-4.9804,-5.0448,-5.0261,-4.9938,-5.0608,-5.0937,-5.1042,-5.0732,-4.8406,-4.6286,-4.6848,-4.3884,-4.119,-4.2041,-4.1428,-4.07,-4.0621,-4.07,-4.0733,-4.0607,-4.0042,-3.981,-4.0511,-3.9851,-3.9287,-3.9311,-3.7777,-3.693,-3.7507,-3.693,-3.6853,-3.77,-3.7786,-3.8161,-3.9028,-3.8257,-3.8549,-4.0198,-3.9378,-3.9392,-4.0526,-4.0366,-4.0366,-4.0558,-4.0409,-4.0362,-4.0374,-4.0513,-4.0613,-4.8363,-4.9229,-4.9784,-4.9337,-4.9202,-4.7822,-4.2656,0.0,0.0,0.0,-2.5697,-2.3731,-2.2055,0.0,0.0,0.0,0.0,0.0,0.0,0.0,0.0,0.0,0.0,0.0,0.0,0.0,0.0,-5.3307,-5.5275,-5.5353,-5.2742,-5.2177,-5.1737,-5.1316,-5.1308,-5.2146,-5.3888,-5.2614,-5.2614,-5.3888,-5.3062,-5.243,-5.1982,-5.245,-5.2645,-5.2645,-5.2645,-5.2411,-5.1982,-5.1974,-5.1721,-5.13,-5.1256,-5.123,-5.1211,-5.119,-5.1189,-5.1206,-5.1202,-5.1194,-5.1206,-5.1202,-5.088,-5.0596,-5.0991,-5.0778,-5.0505,-5.0918,-5.1087,-5.1087,-5.1053,-4.9491,-4.8043,-4.8412,-4.586,-4.3111,-4.2195,-4.168,-4.1228,-4.0751,-4.07,-4.0733,-4.0668,-4.0307,-4.0171,-4.0596,-4.0279,-3.9981,-3.9986,-3.8873,-3.8084,-3.807,-3.7679,-3.7775,-3.8642,-3.8714,-3.9108,-3.997,-3.9177,-3.9268,-4.0596,-3.9788,-3.973,-4.0681,-4.07,-4.0726,-4.0796,-4.0788,-4.0812,-4.0846,-4.0826,-4.0818,-4.7556,-4.8549,-4.9221,-4.8716,-4.7803,-4.5569,-3.9956,-3.5737,0.0,0.0,-2.2816,-2.1374,-2.087,0.0,0.0,0.0,0.0,0.0,0.0,0.0,0.0,0.0,0.0,0.0,0.0,0.0,0.0,-5.3619,-5.5061,-5.5041,-5.2995,-5.2236,-5.1776,-5.1576,-5.1764,-5.2504,-5.3896,-5.3226,-5.3226,-5.3896,-5.39,-5.3541,-5.2898,-5.3599,-5.3911,-5.3911,-5.3911,-5.3405,-5.2606,-5.2609,-5.2083,-5.1292,-5.1239,-5.1211,-5.1211,-5.121,-5.1197,-5.1194,-5.1194,-5.1194,-5.1194,-5.1194,-5.1152,-5.1095,-5.1095,-5.1056,-5.102,-5.1087,-5.1101,-5.1081,-5.1053,-5.0286,-4.9362,-4.8753,-4.6892,-4.4659,-4.2473,-4.1847,-4.1544,-4.0835,-4.07,-4.0733,-4.07,-4.0668,-4.0654,-4.07,-4.0654,-4.0621,-4.0621,-4.0061,-3.9425,-3.8736,-3.8485,-3.8717,-3.9565,-3.9662,-3.9946,-4.0662,-3.9976,-3.9904,-4.0615,-3.9976,-3.9918,-4.0629,-4.0694,-4.0752,-4.0812,-4.0812,-4.0865,-4.0907,-4.0848,-4.0818,-4.4888,-4.6327,-4.7706,-4.8425,-4.7356,-4.4967,-4.0577,0.0,0.0,-2.5381,-2.2345,-2.0841,-2.1549,-2.1939,-2.3205,0.0,0.0,-3.1719,0.0,0.0,0.0,0.0,0.0,0.0,0.0,0.0,0.0,-5.2723,-5.3599,-5.4028,-5.3794,-5.3697,-5.3307,-5.2508,-5.3245,-5.3732,-5.3892,-5.381,-5.381,-5.3892,-5.3892,-5.3853,-5.3775,-5.3853,-5.3911,-5.3911,-5.3911,-5.3405,-5.2606,-5.2606,-5.2099,-5.13,-5.1295,-5.1249,-5.1211,-5.1211,-5.121,-5.1189,-5.119,-5.121,-5.1208,-5.1208,-5.1144,-5.1095,-5.1095,-5.1108,-5.1087,-5.1101,-5.1108,-5.1102,-5.1081,-4.9854,-4.8024,-4.5635,-4.4279,-4.3247,-4.2222,-4.1429,-4.0875,-4.072,-4.0746,-4.0778,-4.07,-4.0746,-4.0759,-4.07,-4.07,-4.0687,-4.0687,-4.0642,-4.0546,-4.0468,-3.9741,-3.9604,-4.0414,-4.0491,-4.0544,-4.07,-4.0563,-4.0557,-4.0759,-4.0655,-4.0636,-4.0788,-4.0788,-4.0792,-4.0807,-4.0867,-4.0897,-4.0907,-4.0877,-4.0897,-4.3576,-4.5597,-4.7259,-4.7084,-4.5744,-4.3238,-3.8441,0.0,0.0,-2.4526,-2.1932,-2.0604,-2.0945,-2.1455,-2.2426,-2.4316,-2.6089,0.0,0.0,0.0,0.0,0.0,0.0,0.0,0.0,0.0,-5.3814,-5.4866,-5.5275,-5.5002,-5.397,-5.3911,-5.351,-5.2682,-5.3474,-5.3903,-5.391,-5.3903,-5.3896,-5.3908,-5.4426,-5.4691,-5.471,-5.5236,-5.545,-5.5431,-5.4868,-5.4128,-5.329,-5.2766,-5.2037,-5.1239,-5.123,-5.123,-5.1201,-5.1189,-5.1189,-5.119,-5.1208,-5.1208,-5.1208,-5.1206,-5.1152,-5.1095,-5.1159,-5.1121,-5.1101,-5.1153,-5.1134,-5.1095,-5.1102,-4.9808,-4.8348,-4.7804,-4.5854,-4.4034,-4.3653,-4.2524,-4.1432,-4.0866,-4.0781,-4.0781,-4.0764,-4.0788,-4.0781,-4.0764,-4.0757,-4.075,-4.075,-4.075,-4.0761,-4.0754,-4.0442,-4.0366,-4.0694,-4.0713,-4.0726,-4.0752,-4.0688,-4.07,-4.0796,-4.0764,-4.0776,-4.08,-4.0792,-4.0826,-4.0867,-4.0897,-4.0888,-4.0888,-4.0888,-4.0898,-4.1839,-4.4199,-4.6085,-4.5725,-4.4006,-4.1228,0.0,0.0,-2.7892,-2.3923,-2.1714,-2.0499,-2.0494,-2.1,-2.1783,-2.2913,-2.4355,-2.6595,0.0,0.0,0.0,0.0,0.0,0.0,0.0,0.0,-5.4418,-5.5645,-5.621,-5.5743,-5.3989,-5.4379,-5.4169,-5.3085,-5.3858,-5.417,-5.3904,-5.3891,-5.3903,-5.3915,-5.4777,-5.5333,-5.5606,-5.621,-5.6503,-5.6444,-5.5511,-5.4625,-5.3769,-5.2874,-5.1989,-5.124,-5.121,-5.121,-5.1201,-5.1197,-5.1208,-5.119,-5.1197,-5.1197,-5.1197,-5.1206,-5.1171,-5.1139,-5.119,-5.1146,-5.1108,-5.119,-5.1139,-5.1095,-5.1095,-4.997,-4.8941,-4.9271,-4.714,-4.4982,-4.4686,-4.3315,-4.1912,-4.1291,-4.0981,-4.0796,-4.0792,-4.0796,-4.0796,-4.0792,-4.0796,-4.0807,-4.0837,-4.0818,-4.0807,-4.0837,-4.0812,-4.0808,-4.0808,-4.0796,-4.0796,-4.08,-4.0757,-4.0757,-4.08,-4.0812,-4.0812,-4.0823,-4.0815,-4.0964,-4.1286,-4.1024,-4.1034,-4.1276,-4.1014,-4.0772,-3.9247,-4.1606,-4.3734,-4.4608,-4.2267,-3.9058,0.0,0.0,-2.7161,-2.3791,-2.1705,-2.0495,-2.0499,-2.0503,-2.1071,-2.2815,-2.3848,-2.5913,-3.0195,0.0,0.0,0.0,0.0,0.0,0.0,0.0,-5.3911,-5.3931,-5.5528,0.0,-5.3989,-5.5545,-5.5677,-5.3942,-5.4723,-5.4782,-5.3903,-5.3903,-5.3896,-5.3911,-5.4788,-5.5645,-5.6483,-5.6503,-5.6503,-5.6444,-5.5511,-5.4634,-5.3825,-5.2884,-5.2028,-5.1287,-5.1229,-5.121,-5.1211,-5.12,-5.1189,-5.12,-5.1201,-5.1189,-5.1202,-5.1197,-5.1206,-5.1202,-5.1202,-5.1139,-5.1108,-5.1171,-5.1139,-5.1095,-5.1095,-5.0403,-4.9489,-4.8703,-4.7178,-4.5674,-4.4866,-4.3327,-4.2097,-4.2097,-4.1388,-4.0807,-4.0807,-4.0807,-4.0807,-4.0807,-4.0807,-4.0818,-4.0897,-4.0848,-4.0837,-4.0877,-4.0837,-4.0807,-4.0807,-4.0792,-4.08,-4.08,-4.08,-4.08,-4.08,-4.0815,-4.0837,-4.0897,-4.0818,-4.1265,-4.217,-4.1325,-4.1344,-4.217,-4.1305,-4.0441,-3.4104,-3.5857,-3.7284,-3.7003,-3.569,-3.3748,-3.1125,0.0,-2.5432,-2.2021,-2.0406,-1.9613,-1.9614,-1.9617,-2.077,-2.4296,-2.5114,-2.6361,-2.9474,0.0,0.0,0.0,0.0,0.0,0.0,0.0,-5.4145,-5.4749,-5.584,-5.5743,-5.3989,-5.5545,-5.5697,-5.3962,-5.4762,-5.4782,-5.3903,-5.3318,-5.3311,-5.3911,-5.4184,-5.508,-5.6503,-5.6503,-5.6171,-5.5567,-5.4625,-5.3749,-5.2931,-5.2046,-5.1493,-5.122,-5.1259,-5.1249,-5.12,-5.12,-5.12,-5.119,-5.1197,-5.1197,-5.1197,-5.1206,-5.1214,-5.1202,-5.1202,-5.119,-5.1171,-5.1202,-5.1171,-5.1159,-5.1108,-5.0474,-4.9756,-4.9466,-4.7209,-4.5079,-4.4773,-4.2892,-4.1285,-4.1285,-4.1071,-4.0867,-4.0867,-4.0868,-4.0878,-4.0877,-4.0908,-4.0927,-4.0898,-4.0927,-4.0927,-4.0898,-4.0888,-4.0839,-4.0804,-4.08,-4.0812,-4.0796,-4.0796,-4.0807,-4.0868,-4.0878,-4.0888,-4.0898,-4.0888,-4.1005,-4.1315,-4.1034,-4.1034,-4.1296,-4.0451,-3.9616,0.0,-3.1778,-3.2958,-3.2438,-3.1436,0.0,0.0,0.0,-2.3383,-2.0585,-1.9321,-1.8815,-1.9146,-1.9205,-2.0296,-2.3673,-2.4491,-2.5718,-2.8602,0.0,0.0,0.0,0.0,0.0,0.0,-5.282,-5.3989,-5.4203,-5.5333,-5.5256,-5.3502,-5.4746,-5.487,-5.344,-5.4261,-5.4287,-5.3416,-5.2551,-5.2719,-5.3911,-5.3911,-5.4807,-5.6503,-5.6503,-5.6191,-5.5626,-5.4353,-5.3526,0.0,-5.1764,-5.124,-5.121,-5.1249,-5.1249,-5.124,-5.1208,-5.12,-5.1201,-5.1206,-5.1194,-5.1206,-5.1202,-5.1202,-5.1202,-5.1202,-5.1202,-5.1202,-5.1202,-5.1202,-5.1113,-5.0719,-5.0479,-5.011,-4.9091,-4.7253,-4.5548,-4.4843,-4.2953,-4.1383,-4.1392,-4.1131,-4.0898,-4.0898,-4.0927,-4.0936,-4.0937,-4.0974,-4.0971,-4.0935,-4.0963,-4.0982,-4.0945,-4.0917,-4.0878,-4.0834,-4.0804,-4.0815,-4.0837,-4.0818,-4.0828,-4.0908,-4.0898,-4.0907,-4.0907,-4.0898,-4.1053,-4.1393,-4.1723,-4.1704,-4.1374,-4.0888,-4.0014,0.0,0.0,0.0,0.0,0.0,0.0,0.0,0.0,0.0,-1.937,-1.8387,-1.8127,-1.9117,-1.9192,-1.9795,-2.1916,-2.2932,-2.4666,0.0,0.0,0.0,0.0,0.0,0.0,0.0,-5.1963,-5.3541,-5.2664,-5.4203,-5.4437,-5.2684,-5.3479,-5.3545,-5.2547,-5.3401,-5.3474,-5.2616,-5.1737,-5.2138,-5.3814,-5.3864,-5.4768,-5.6405,-5.6405,-5.6405,-5.6308,-5.4489,-5.3701,-5.3584,-5.1901,-5.1211,-5.1211,-5.121,-5.1249,-5.1297,-5.1217,-5.1197,-5.1201,-5.1206,-5.1202,-5.1202,-5.1202,-5.1202,-5.1202,-5.1202,-5.1202,-5.1202,-5.1202,-5.1202,-5.0996,-5.0118,-5.0506,-5.0474,-4.7971,-4.7389,-4.6903,-4.5099,-4.347,-4.2354,-4.2295,-4.1587,-4.0985,-4.0985,-4.0993,-4.101,-4.101,-4.1046,-4.1073,-4.1015,-4.1057,-4.1069,-4.101,-4.0945,-4.0898,-4.0917,-4.0848,-4.0818,-4.0897,-4.0848,-4.0837,-4.0907,-4.0898,-4.0927,-4.0985,-4.1053,-4.148,-4.2287,-4.3102,-4.3083,-4.2287,-4.2112,-4.1257,-1.9731,0.0,-2.1745,-2.107,-2.1109,0.0,0.0,0.0,0.0,0.0,0.0,0.0,0.0,-1.9094,-2.0075,-2.5764,-2.6864,-2.8212,-3.168,0.0,0.0,0.0,0.0,0.0,0.0,-5.2645,-5.3541,-5.2664,-5.4203,-5.4437,-5.2684,-5.4048,-5.3872,-5.169,-5.3093,-5.3491,-5.2614,-5.1729,-5.1838,-5.2912,-5.3535,-5.4402,-5.5434,-5.5434,-5.5424,-5.5326,-5.3565,-5.2835,-5.2792,-5.1715,-5.1278,-5.1278,-5.1276,-5.1249,-5.121,-5.121,-5.1189,-5.1206,-5.1197,-5.1197,-5.1208,-5.12,-5.12,-5.1197,-5.1197,-5.1206,-5.1202,-5.1202,-5.1202,-5.1132,-5.0875,-5.0984,-5.0673,-4.8689,-4.8254,-4.7637,-4.5215,-4.4381,-4.3926,-4.3236,-4.2461,-4.1888,-4.1878,-4.1399,-4.1007,-4.1007,-4.1575,-4.1751,-4.1093,-4.1568,-4.1751,-4.1066,-4.0991,-4.0982,-4.0971,-4.0917,-4.0877,-4.0907,-4.0897,-4.0888,-4.0898,-4.0907,-4.1218,-4.1879,-4.2549,-4.2995,-4.3199,-4.3394,-4.3394,-4.3161,-4.1199,-4.0752,-1.6475,-1.8211,-1.9677,-1.9215,-1.9748,-2.0068,0.0,0.0,0.0,0.0,0.0,0.0,0.0,0.0,0.0,-2.5652,-2.7779,0.0,0.0,0.0,0.0,0.0,0.0,0.0,0.0,-5.2528,-5.2937,-5.208,-5.3249,-5.3424,-5.208,-5.2898,-5.2762,-5.1339,-5.2216,-5.2489,-5.2002,-5.1534,-5.174,-5.2609,-5.3037,-5.371,-5.4558,-5.4558,-5.4538,-5.4479,-5.3136,-5.2581,-5.2531,-5.1654,-5.1295,-5.1306,-5.1267,-5.1249,-5.1249,-5.12,-5.1197,-5.1206,-5.1208,-5.12,-5.121,-5.119,-5.12,-5.1189,-5.1189,-5.1197,-5.1206,-5.1206,-5.0903,-5.06,-5.0557,-5.0872,-5.0748,-4.8973,-4.8569,-4.7989,-4.577,-4.5013,-4.4364,-4.3102,-4.25,-4.2081,-4.171,-4.1288,-4.0991,-4.0991,-4.1746,-4.2006,-4.1162,-4.1785,-4.1979,-4.1089,-4.0996,-4.1007,-4.0996,-4.0963,-4.0956,-4.0946,-4.0927,-4.0907,-4.0907,-4.0936,-4.1353,-4.217,-4.2656,-4.2908,-4.2908,-4.3704,-4.3899,-4.3491,-4.25,-4.2102,-1.54,-1.8142,-2.0565,-2.0046,-2.0666,-2.1029,0.0,0.0,0.0,0.0,0.0,0.0,0.0,0.0,0.0,0.0,0.0,0.0,0.0,0.0,0.0,0.0,0.0,0.0,-5.13,-5.2099,-5.2236,-5.1378,-5.2119,-5.2216,-5.1359,-5.1437,-5.1437,-5.13,-5.1437,-5.1437,-5.13,-5.1437,-5.1924,-5.2773,-5.2773,-5.3163,-5.3883,-5.3747,-5.3766,-5.3844,-5.2968,-5.2589,-5.2542,-5.1791,-5.1421,-5.1287,-5.122,-5.122,-5.1269,-5.1217,-5.1206,-5.1189,-5.12,-5.122,-5.122,-5.121,-5.12,-5.12,-5.12,-5.1111,-5.1033,-5.1161,-5.0673,-5.0106,-5.0106,-5.0545,-5.0595,-4.8984,-4.8696,-4.8271,-4.6402,-4.5578,-4.4676,-4.2937,-4.2392,-4.2002,-4.1326,-4.1096,-4.1013,-4.1013,-4.174,-4.2007,-4.1208,-4.1799,-4.1967,-4.111,-4.1011,-4.1003,-4.1003,-4.1003,-4.0996,-4.0999,-4.0952,-4.0915,-4.0907,-4.1081,-4.1498,-4.2199,-4.2325,-4.2471,-4.2607,-4.4074,-4.4481,-4.3899,-4.4248,-4.3753,-1.6876,-1.9463,-2.0823,-1.7917,-1.8403,-1.9534,0.0,0.0,0.0,0.0,0.0,0.0,0.0,0.0,0.0,0.0,0.0,0.0,0.0,0.0,0.0,0.0,0.0,-5.13,-5.13,-5.2099,-5.2236,-5.1378,-5.2119,-5.2216,-5.1359,-5.2002,-5.206,-5.132,-5.2021,-5.206,-5.132,-5.2041,-5.2812,-5.3613,-5.3623,-5.3692,-5.3789,-5.3049,-5.3118,-5.3779,-5.2884,-5.2543,-5.2598,-5.2387,-5.1911,-5.1287,-5.122,-5.122,-5.12,-5.1208,-5.1208,-5.1219,-5.1269,-5.1276,-5.1284,-5.1287,-5.124,-5.1201,-5.1201,-5.0683,-5.0254,-5.0996,-5.1113,-5.0994,-5.0994,-5.0545,-4.9854,-4.8852,-4.9163,-4.9018,-4.654,-4.6482,-4.6434,-4.4725,-4.3255,-4.2241,-4.212,-4.1539,-4.1085,-4.1085,-4.1786,-4.2007,-4.1208,-4.1805,-4.1981,-4.1163,-4.1032,-4.1025,-4.1078,-4.1032,-4.0999,-4.0999,-4.0988,-4.0954,-4.0907,-4.1616,-4.2072,-4.2198,-4.2918,-4.3656,-4.4404,-4.4666,-4.5084,-4.5569,-4.353,-4.3228,-1.6056,-1.8375,-2.0074,-1.8982,-2.1046,-2.3247,-2.2766,0.0,0.0,0.0,0.0,0.0,0.0,0.0,0.0,0.0,0.0,0.0,0.0,0.0,0.0,0.0,0.0,-5.13,-5.13,-5.1671,-5.1729,-5.1339,-5.1671,-5.1729,-5.132,-5.169,-5.1702,-5.1304,-5.1682,-5.1935,-5.2005,-5.2403,-5.2539,-5.2453,-5.2453,-5.2444,-5.2435,-5.2027,-5.2327,-5.3096,-5.223,-5.2133,-5.257,-5.2056,-5.1599,-5.1249,-5.122,-5.12,-5.1189,-5.1189,-5.12,-5.1201,-5.124,-5.1267,-5.1295,-5.1259,-5.122,-5.119,-5.1201,-5.0908,-5.0703,-5.1123,-5.0879,-5.0614,-5.1083,-5.0888,-5.0372,-4.9506,-4.9653,-4.9361,-4.7173,-4.7056,-4.6844,-4.5142,-4.3836,-4.2868,-4.2429,-4.1662,-4.1109,-4.1095,-4.1816,-4.205,-4.1212,-4.1836,-4.2206,-4.1844,-4.135,-4.1247,-4.1714,-4.1318,-4.1059,-4.1059,-4.1023,-4.098,-4.0968,-4.1341,-4.176,-4.2188,-4.2578,-4.2986,-4.3394,-4.387,-4.4044,-4.3936,-4.3179,-4.3003,-1.5206,-1.7373,-1.9659,-2.0322,0.0,-2.5837,-2.637,0.0,0.0,0.0,0.0,0.0,0.0,0.0,0.0,0.0,0.0,0.0,0.0,0.0,-4.9859,-5.1145,-5.13,-5.13,-5.13,-5.13,-5.13,-5.13,-5.13,-5.13,-5.13,-5.13,-5.1292,-5.1295,-5.1292,-5.1624,-5.2288,-5.2305,-5.2177,-5.1904,-5.171,-5.1593,-5.1593,-5.1398,-5.1671,-5.2275,-5.1807,-5.1877,-5.226,-5.1793,-5.1424,-5.1201,-5.1189,-5.1208,-5.1189,-5.12,-5.122,-5.122,-5.122,-5.1258,-5.1287,-5.122,-5.121,-5.121,-5.1211,-5.1064,-5.0947,-5.1219,-5.0617,-5.0098,-5.0967,-5.1045,-5.0675,-4.9819,-4.9664,-4.9197,-4.7407,-4.7057,-4.6659,-4.5129,-4.4153,-4.3337,-4.2526,-4.1836,-4.1334,-4.113,-4.1676,-4.1852,-4.1189,-4.1676,-4.2105,-4.2095,-4.1504,-4.1343,-4.1968,-4.1637,-4.1305,-4.111,-4.1038,-4.1003,-4.0991,-4.0996,-4.1291,-4.1915,-4.1907,-4.1995,-4.2189,-4.2859,-4.2946,-4.2488,-4.2895,-4.2737,-1.5576,-1.7858,-2.0426,-2.0472,-2.1336,0.0,-2.8048,0.0,0.0,0.0,0.0,0.0,0.0,0.0,0.0,0.0,0.0,0.0,0.0,0.0,-5.1164,-5.13,-5.13,-5.13,-5.13,-5.13,-5.13,-5.13,-5.13,-5.13,-5.13,-5.13,-5.13,-5.13,-5.13,-5.1339,-5.1398,-5.1398,-5.2177,-5.3697,-5.2898,-5.2508,-5.2489,-5.1671,-5.1339,-5.1437,-5.2177,-5.2091,-5.1442,-5.2135,-5.194,-5.1189,-5.1194,-5.1206,-5.12,-5.1201,-5.124,-5.1287,-5.1287,-5.1304,-5.1292,-5.122,-5.124,-5.1287,-5.1287,-5.0685,-5.0169,-5.1044,-5.0627,-5.01,-5.0967,-5.0607,-4.9799,-4.8983,-4.8798,-4.8311,-4.656,-4.6191,-4.5946,-4.5048,-4.4194,-4.3312,-4.2455,-4.2304,-4.2027,-4.1217,-4.1153,-4.1178,-4.1111,-4.1145,-4.1198,-4.1189,-4.1139,-4.1128,-4.1188,-4.1831,-4.1909,-4.1149,-4.1032,-4.0991,-4.0991,-4.101,-4.103,-4.1079,-4.1042,-4.1393,-4.2189,-4.2267,-4.2643,-4.33,-4.2543,-4.2152,-1.4615,-1.7362,-2.0496,-2.0504,0.0,0.0,0.0,0.0,0.0,0.0,0.0,0.0,0.0,0.0,0.0,0.0,0.0,0.0,-4.943,-5.056,-5.13,-5.13,-5.13,-5.13,-5.13,-5.13,-5.13,-5.13,-5.13,-5.13,-5.13,-5.13,-5.1292,-5.1304,-5.1292,-5.1292,-5.1304,-5.1292,-5.1632,-5.2275,-5.1943,-5.1787,-5.1787,-5.1456,-5.1593,-5.2099,-5.1869,-5.189,-5.2018,-5.1784,-5.15,-5.1194,-5.1202,-5.1206,-5.12,-5.1201,-5.1249,-5.1306,-5.1306,-5.1295,-5.1295,-5.122,-5.0889,-5.049,-5.049,-5.0209,-4.9974,-5.0383,-5.0598,-5.0791,-5.1171,-5.0626,-4.9741,-4.8894,-4.8299,-4.7551,-4.6355,-4.613,-4.606,-4.5776,-4.4579,-4.3506,-4.3226,-4.2286,-4.148,-4.1152,-4.1094,-4.1094,-4.1097,-4.1094,-4.1304,-4.1846,-4.1905,-4.1674,-4.1091,-4.1344,-4.1409,-4.1057,-4.1006,-4.0999,-4.1003,-4.0996,-4.0999,-4.101,-4.0974,-4.1092,-4.1383,-4.1392,-4.1526,-4.1792,-4.1463,-4.1272,-1.5034,-1.7371,-2.0156,0.0,0.0,0.0,0.0,0.0,0.0,0.0,0.0,0.0,0.0,0.0,0.0,0.0,0.0,-4.9079,-4.9898,-5.0755,-5.13,-5.13,-5.13,-5.1183,-5.093,-5.0891,-5.0774,-5.0521,-5.0755,-5.0891,-5.0891,-5.1145,-5.1292,-5.1304,-5.1292,-5.1292,-5.1295,-5.1304,-5.1292,-5.13,-5.1292,-5.1292,-5.13,-5.13,-5.1624,-5.2169,-5.1568,-5.1444,-5.1648,-5.1336,-5.1197,-5.1194,-5.1194,-5.1208,-5.124,-5.1211,-5.123,-5.1295,-5.1287,-5.1287,-5.1295,-5.1249,-5.0675,-4.9994,-5.0012,-4.9771,-4.9596,-4.9906,-5.0403,-5.0899,-5.1209,-5.0653,-4.9796,-4.8919,-4.807,-4.7186,-4.6313,-4.6166,-4.6201,-4.6201,-4.5014,-4.3941,-4.3699,-4.247,-4.1429,-4.1143,-4.1101,-4.1199,-4.1479,-4.128,-4.1332,-4.1924,-4.2242,-4.2031,-4.111,-4.1318,-4.1344,-4.1023,-4.0991,-4.0999,-4.0991,-4.0996,-4.0999,-4.0974,-4.0974,-4.0946,-4.0867,-4.0867,-4.0846,-4.0808,-4.0776,-4.0739,-1.7221,-1.812,0.0,0.0,0.0,0.0,0.0,0.0,0.0,0.0,0.0,0.0,0.0,0.0,0.0,-4.5903,-4.7657,-4.906,-4.9878,-5.0735,-5.1281,-5.13,-5.1281,-5.095,-5.0073,-4.9995,-4.9664,-4.8865,-4.9547,-4.9995,-4.9995,-5.0833,-5.13,-5.13,-5.13,-5.13,-5.13,-5.1304,-5.1304,-5.13,-5.1295,-5.1304,-5.13,-5.13,-5.1312,-5.1306,-5.1306,-5.0773,-4.9984,-5.0839,-5.1189,-5.1189,-5.1189,-5.1249,-5.1287,-5.122,-5.1239,-5.1292,-5.123,-5.1239,-5.1292,-5.1295,-5.0702,-5.001,-4.9987,-4.9387,-4.8874,-4.9734,-4.9979,-5.0205,-5.1059,-5.0641,-4.9796,-4.9001,-4.8125,-4.7248,-4.6391,-4.6196,-4.6196,-4.6196,-4.5495,-4.4604,-4.3746,-4.2934,-4.2108,-4.123,-4.11,-4.1417,-4.2295,-4.1655,-4.1115,-4.1115,-4.1876,-4.2042,-4.1169,-4.1838,-4.1921,-4.1045,-4.1003,-4.1007,-4.101,-4.101,-4.0974,-4.0907,-4.0907,-4.0859,-4.0807,-4.0807,-4.0792,-4.079,-4.0733,-4.07,-1.5368,0.0,0.0,0.0,0.0,0.0,0.0,0.0,0.0,0.0,0.0,0.0,0.0,0.0,0.0,-4.5299,-4.6741,-4.8183,-4.904,-4.9372,-4.9742,-5.0326,-4.9898,-4.943,-4.9177,-4.9157,-4.906,-4.8826,-4.9547,-4.9995,-4.9995,-5.0833,-5.13,-5.13,-5.13,-5.1292,-5.1295,-5.1295,-5.1287,-5.123,-5.122,-5.1248,-5.13,-5.1304,-5.1295,-5.1306,-5.1249,-5.1064,-5.0831,-5.1084,-5.1201,-5.1201,-5.1201,-5.124,-5.1287,-5.122,-5.1239,-5.1292,-5.1287,-5.1276,-5.13,-5.1292,-5.0719,-4.9885,-4.927,-4.8903,-4.8749,-4.9008,-4.9523,-5.0205,-5.1059,-5.0221,-4.9091,-4.8865,-4.7676,-4.6507,-4.6254,-4.6196,-4.6196,-4.6196,-4.5033,-4.3977,-4.3704,-4.2954,-4.2303,-4.2057,-4.2011,-4.2108,-4.2373,-4.2163,-4.2017,-4.2007,-4.2247,-4.2025,-4.1117,-4.1247,-4.1291,-4.1027,-4.0999,-4.0991,-4.101,-4.101,-4.0974,-4.0907,-4.0908,-4.0858,-4.0807,-4.0742,-4.0725,-4.0733,-4.0668,-4.0593,-1.6559,0.0,0.0,0.0,0.0,0.0,0.0,0.0,0.0,0.0,0.0,0.0,0.0,-4.5565,0.0,-4.5903,-4.68,-4.7793,-4.867,-4.9079,-4.9333,-4.9508,-4.9372,-4.9021,-4.8358,-4.828,-4.8144,-4.7793,-4.8534,-4.9001,-4.9001,-5.0131,-5.0638,-5.0326,-5.095,-5.1137,-5.078,-5.1102,-5.1249,-5.1211,-5.1211,-5.123,-5.1304,-5.1267,-5.1269,-5.124,-5.085,-5.0694,-5.0724,-5.0695,-5.0899,-5.1249,-5.1249,-5.1258,-5.1295,-5.122,-5.1239,-5.1292,-5.1267,-5.1276,-5.13,-5.13,-5.07,-4.9826,-4.9005,-4.8716,-4.8621,-4.8316,-4.885,-4.9648,-5.017,-4.9294,-4.8378,-4.8729,-4.7462,-4.6196,-4.6196,-4.6196,-4.6196,-4.6196,-4.5105,-4.4181,-4.4187,-4.3183,-4.2397,-4.2409,-4.2698,-4.2908,-4.2885,-4.3188,-4.3144,-4.2466,-4.2393,-4.2019,-4.1117,-4.1025,-4.114,-4.1485,-4.1496,-4.1479,-4.148,-4.114,-4.0936,-4.0888,-4.0888,-4.0837,-4.0754,-4.0718,-4.0688,-4.0654,-4.0593,-4.0534,0.0,0.0,0.0,0.0,0.0,0.0,0.0,0.0,0.0,0.0,0.0,0.0,0.0,-4.5553,-4.5533,-4.7111,-4.7384,-4.7696,-4.8553,-4.9235,-4.941,-4.8768,-4.9255,-4.906,-4.754,-4.7384,-4.7053,-4.6254,-4.7014,-4.7521,-4.7618,-4.9138,-4.9664,-4.8923,-5.0385,-5.0797,-5.0002,-5.0714,-5.1123,-5.1201,-5.1201,-5.124,-5.1297,-5.124,-5.119,-5.115,-5.0273,-4.9945,-5.0004,-4.9926,-5.0413,-5.1198,-5.1276,-5.1304,-5.1292,-5.123,-5.1239,-5.1292,-5.123,-5.1239,-5.13,-5.13,-5.0758,-4.9971,-4.915,-4.8811,-4.8549,-4.7825,-4.8125,-4.869,-4.8787,-4.8144,-4.7696,-4.8495,-4.7404,-4.6196,-4.6196,-4.6196,-4.6196,-4.6196,-4.5443,-4.48,-4.489,-4.3563,-4.2539,-4.2627,-4.3294,-4.3797,-4.3733,-4.4343,-4.4206,-4.2674,-4.244,-4.2039,-4.1163,-4.103,-4.1346,-4.2124,-4.2119,-4.2082,-4.2082,-4.1403,-4.0985,-4.0897,-4.0877,-4.0815,-4.0694,-4.0681,-4.0642,-4.0574,-4.0519,-4.0489,0.0,0.0,0.0,0.0,0.0,0.0,0.0,0.0,0.0,0.0,0.0,0.0,-4.6181,-4.6052,-4.604,-4.641,-4.6468,-4.678,-4.7657,-4.7345,-4.7209,-4.7715,-4.7326,-4.687,-4.6505,-4.6481,-4.6403,-4.6212,-4.7007,-4.7793,-4.8475,-4.9469,-4.9917,-4.9742,-5.0096,-5.0196,-4.9994,-5.0121,-5.0528,-5.1206,-5.1206,-5.1206,-5.1217,-5.121,-5.12,-5.1156,-5.0344,-4.9995,-5.0004,-4.9982,-5.0096,-5.0357,-5.102,-5.1292,-5.1292,-5.123,-5.1239,-5.1292,-5.123,-5.1239,-5.13,-5.13,-5.1167,-5.0867,-5.0007,-4.9259,-4.8677,-4.8546,-4.8164,-4.793,-4.8612,-4.8144,-4.754,-4.7735,-4.6975,-4.6196,-4.6196,-4.6196,-4.6196,-4.6196,-4.4943,-4.4097,-4.4772,-4.4031,-4.3577,-4.4259,-4.4518,-4.4635,-4.4621,-4.4195,-4.3734,-4.3376,-4.2734,-4.1967,-4.1108,-4.1007,-4.1069,-4.1263,-4.1218,-4.1179,-4.117,-4.1665,-4.1577,-4.0843,-4.0781,-4.0725,-4.0694,-4.0593,-4.0534,-4.0519,-4.0444,-4.0377,0.0,0.0,0.0,0.0,0.0,0.0,0.0,0.0,0.0,0.0,0.0,0.0,-4.6201,-4.6189,-4.6196,-4.6196,-4.6196,-4.6352,-4.68,-4.6812,-4.6804,-4.6863,-4.6824,-4.6602,-4.6197,-4.6181,-4.6208,-4.6212,-4.7007,-4.7521,-4.754,-4.9118,-4.9449,-4.8222,-4.9356,-4.9798,-4.9382,-4.9722,-5.0342,-5.1202,-5.1194,-5.1206,-5.1206,-5.1197,-5.0964,-5.0545,-5.013,-4.9722,-4.938,-4.9387,-4.9403,-4.9508,-5.0346,-5.0677,-5.0728,-5.1074,-5.1239,-5.1292,-5.123,-5.1239,-5.13,-5.13,-5.1292,-5.107,-4.982,-4.9111,-4.8577,-4.7774,-4.7228,-4.6975,-4.7443,-4.7209,-4.6878,-4.6878,-4.6527,-4.6196,-4.6196,-4.6196,-4.6196,-4.6196,-4.5462,-4.4982,-4.5442,-4.4448,-4.3902,-4.4773,-4.4214,-4.398,-4.4799,-4.4137,-4.3448,-4.3026,-4.2578,-4.1953,-4.1073,-4.0963,-4.1314,-4.2131,-4.1732,-4.1662,-4.2039,-4.2078,-4.1687,-4.0776,-4.072,-4.0681,-4.0646,-4.0554,-4.0508,-4.0495,-4.0396,-4.0307,0.0,0.0,0.0,0.0,0.0,0.0,0.0,0.0,0.0,0.0,0.0,-4.5806,-4.5942,-4.5981,-4.602,-4.6176,-4.6196,-4.6196,-4.6196,-4.6765,-4.6953,-4.6283,-4.6789,-4.6917,-4.618,-4.6154,-4.6208,-4.6212,-4.687,-4.7033,-4.6449,-4.8417,-4.8585,-4.6468,-4.8452,-4.9264,-4.8691,-4.9352,-5.0195,-5.1202,-5.1206,-5.1208,-5.1197,-5.1194,-5.0806,-5.01,-4.9809,-4.9314,-4.8688,-4.8541,-4.8538,-4.8651,-4.9469,-4.9781,-4.989,-5.0704,-5.1033,-5.1098,-5.1171,-5.1248,-5.13,-5.13,-5.13,-5.1008,-4.9469,-4.8904,-4.8475,-4.6878,-4.6313,-4.6196,-4.6196,-4.6196,-4.6196,-4.6196,-4.6196,-4.6196,-4.6196,-4.6196,-4.6196,-4.6196,-4.6203,-4.6105,-4.5806,-4.4806,-4.4195,-4.4617,-4.3623,-4.3286,-4.452,-4.3909,-4.3097,-4.2362,-4.2147,-4.1762,-4.1046,-4.0926,-4.15,-4.2956,-4.2313,-4.2179,-4.2847,-4.2164,-4.1435,-4.0707,-4.0681,-4.0646,-4.0592,-4.0527,-4.0479,-4.0466,-4.0344,-4.0252,0.0,0.0,0.0,0.0,0.0,0.0,0.0,0.0,0.0,0.0,0.0,-4.4182,-4.4927,-4.5078,-4.5319,-4.6076,-4.6208,-4.6196,-4.6196,-4.6293,-4.6325,-4.6212,-4.6283,-4.6294,-4.6122,-4.6158,-4.6193,-4.6205,-4.6305,-4.6644,-4.7287,-4.7584,-4.7595,-4.7245,-4.7572,-4.803,-4.8603,-4.8718,-4.959,-5.1202,-5.1202,-5.1202,-5.1202,-5.1202,-5.1136,-5.0956,-4.9479,-4.8807,-4.8658,-4.7954,-4.7676,-4.7754,-4.8612,-4.8962,-4.906,-4.9854,-5.0174,-5.0287,-5.1042,-5.1284,-5.13,-5.13,-5.13,-5.1125,-5.0131,-4.9352,-4.8592,-4.7599,-4.678,-4.6196,-4.6196,-4.6196,-4.6196,-4.6196,-4.6196,-4.6196,-4.6196,-4.6196,-4.6196,-4.6196,-4.619,-4.5729,-4.4208,-4.5001,-4.5378,-4.3975,-4.4233,-4.4362,-4.3837,-4.3004,-4.2416,-4.2224,-4.1537,-4.1042,-4.0917,-4.0849,-4.0945,-4.1237,-4.1086,-4.1013,-4.1117,-4.0907,-4.0723,-4.0617,-4.0603,-4.0577,-4.0499,-4.0449,-4.0379,-4.0325,-4.0253,-4.0215,0.0,0.0,0.0,0.0,0.0,0.0,0.0,0.0,0.0,0.0,-4.1208,-4.202,-4.3844,-4.4572,-4.5027,-4.5409,-4.5884,-4.6196,-4.6196,-4.6181,-4.6166,-4.6205,-4.6177,-4.6122,-4.6095,-4.6158,-4.6174,-4.6152,-4.6621,-4.6878,-4.6785,-4.7661,-4.7739,-4.675,-4.7172,-4.7573,-4.7923,-4.7892,-4.8755,-5.0464,-4.9978,-4.9998,-5.0464,-5.0464,-5.0748,-5.1109,-4.944,-4.8701,-4.8602,-4.7291,-4.6761,-4.6858,-4.7735,-4.8066,-4.8222,-4.9523,-4.9999,-5.0131,-5.1003,-5.1304,-5.13,-5.13,-5.0969,-5.0424,-4.9586,-4.8748,-4.7891,-4.7014,-4.6495,-4.619,-4.6203,-4.6196,-4.6203,-4.6203,-4.6203,-4.619,-4.6203,-4.6196,-4.6196,-4.6196,-4.6203,-4.5956,-4.5183,-4.5287,-4.5384,-4.509,-4.4292,-4.3681,-4.36,-4.2416,-4.1563,-4.147,-4.113,-4.0878,-4.0849,-4.0826,-4.1017,-4.1532,-4.1047,-4.0952,-4.139,-4.0844,-4.0554,-4.0546,-4.0546,-4.0499,-4.0396,-4.0362,-4.0308,-4.0253,-4.0215,-4.0176,0.0,0.0,0.0,0.0,0.0,0.0,0.0,0.0,0.0,0.0,-3.9493,-4.039,-4.2279,-4.3682,-4.4637,-4.4864,-4.5631,-4.6196,-4.6196,-4.6166,-4.613,-4.6185,-4.6141,-4.6104,-4.6095,-4.6149,-4.6158,-4.6095,-4.6769,-4.6882,-4.6224,-4.7428,-4.7545,-4.6216,-4.6764,-4.7164,-4.7368,-4.7542,-4.8269,-4.9562,-4.8902,-4.8941,-4.9562,-4.9593,-4.9943,-5.0476,-4.9246,-4.8584,-4.8271,-4.6804,-4.6196,-4.6254,-4.6917,-4.717,-4.7345,-4.8811,-4.9356,-4.9527,-5.0603,-5.0973,-5.0969,-5.0969,-5.0521,-4.982,-4.8787,-4.8027,-4.7326,-4.6449,-4.6209,-4.6196,-4.6203,-4.6196,-4.6189,-4.6203,-4.6209,-4.6196,-4.6203,-4.6196,-4.6196,-4.6196,-4.6196,-4.6137,-4.5916,-4.5507,-4.5305,-4.5523,-4.4277,-4.3296,-4.3253,-4.2099,-4.1187,-4.0908,-4.0869,-4.0849,-4.0796,-4.0781,-4.1047,-4.1698,-4.1074,-4.0944,-4.1538,-4.0881,-4.0492,-4.0466,-4.0449,-4.0379,-4.027,-4.027,-4.0234,-4.0176,-4.0176,-4.0098,0.0,0.0,0.0,0.0,0.0,0.0,0.0,0.0,0.0,0.0,-3.8656,-3.9844,-3.998,-4.2007,-4.3948,-4.4771,-4.5624,-4.6196,-4.6196,-4.6201,-4.6205,-4.6205,-4.6152,-4.6095,-4.6093,-4.6095,-4.6095,-4.6093,-4.6197,-4.6251,-4.6205,-4.6283,-4.6255,-4.6122,-4.6153,-4.6533,-4.7298,-4.8114,-4.8572,-4.8681,-4.8623,-4.8623,-4.8681,-4.872,-4.8759,-4.8739,-4.8701,-4.828,-4.7501,-4.6585,-4.6196,-4.6196,-4.6254,-4.6274,-4.6371,-4.7287,-4.7637,-4.7852,-4.9508,-5.0073,-5.0073,-5.0073,-5.0034,-4.9703,-4.8066,-4.754,-4.7326,-4.6449,-4.6196,-4.6196,-4.6196,-4.6203,-4.6203,-4.6196,-4.6196,-4.6196,-4.6196,-4.6196,-4.6196,-4.6196,-4.6196,-4.5942,-4.5102,-4.5628,-4.5593,-4.3973,-4.4286,-4.4121,-4.2479,-4.2189,-4.1811,-4.0895,-4.0818,-4.0796,-4.08,-4.0739,-4.0713,-4.0771,-4.0668,-4.0612,-4.0665,-4.0558,-4.0476,-4.0413,-4.027,-4.0215,-4.0215,-4.0215,-4.0177,-4.0117,-4.0117,-4.0036,0.0,0.0,0.0,0.0,0.0,0.0,0.0,0.0,0.0,-3.5246,-3.6473,-3.7818,-3.9493,-4.1422,-4.2877,-4.3182,-4.3968,-4.454,-4.454,-4.5013,-4.5375,-4.537,-4.5312,-4.5267,-4.5276,-4.5304,-4.5315,-4.5269,-4.5838,-4.6174,-4.6152,-4.6169,-4.6169,-4.6095,-4.6105,-4.6222,-4.6463,-4.6773,-4.7212,-4.7756,-4.7232,-4.7281,-4.7826,-4.7845,-4.7572,-4.7095,-4.7629,-4.7696,-4.7361,-4.6539,-4.6189,-4.6201,-4.6196,-4.6189,-4.6317,-4.7189,-4.7501,-4.7676,-4.8826,-4.9235,-4.9235,-4.9235,-4.8845,-4.828,-4.7676,-4.7111,-4.6605,-4.6293,-4.6209,-4.619,-4.6203,-4.6196,-4.6209,-4.6196,-4.6196,-4.6201,-4.6201,-4.6166,-4.6138,-4.6138,-4.6174,-4.6096,-4.5784,-4.599,-4.5768,-4.4556,-4.4461,-4.3976,-4.2403,-4.1713,-4.1218,-4.0837,-4.0807,-4.0784,-4.0739,-4.0759,-4.0726,-4.0629,-4.0607,-4.0569,-4.0539,-4.0425,-4.0358,-4.0342,-4.0196,-4.0138,-4.0138,-4.0138,-4.0078,-3.9954,-3.9954,-3.9911,0.0,0.0,0.0,0.0,0.0,0.0,0.0,0.0,0.0,-3.2854,-3.4472,-3.6109,-3.811,-3.9883,-4.1305,-4.2163,-4.3039,-4.3598,-4.3598,-4.409,-4.446,-4.4462,-4.4425,-4.4401,-4.439,-4.4437,-4.4556,-4.4773,-4.5382,-4.5846,-4.6085,-4.6141,-4.6141,-4.6105,-4.6076,-4.592,-4.5589,-4.5861,-4.6162,-4.6464,-4.6222,-4.6425,-4.6999,-4.6997,-4.6703,-4.6224,-4.6777,-4.6991,-4.6953,-4.6422,-4.6189,-4.6201,-4.6196,-4.6189,-4.6279,-4.6858,-4.7053,-4.7189,-4.8054,-4.8366,-4.8366,-4.8366,-4.7976,-4.745,-4.715,-4.6663,-4.6196,-4.6196,-4.6209,-4.6196,-4.6203,-4.6196,-4.6209,-4.6196,-4.5981,-4.5835,-4.6146,-4.6149,-4.6093,-4.6093,-4.6158,-4.6185,-4.6169,-4.5924,-4.5604,-4.5258,-4.4569,-4.385,-4.3131,-4.2277,-4.1606,-4.1261,-4.1493,-4.1381,-4.0739,-4.0984,-4.0996,-4.0598,-4.0573,-4.0527,-4.0425,-4.036,-4.0289,-4.0272,-4.0157,-4.0096,-4.0036,-4.0036,-3.9994,-3.9867,-3.9867,-3.9823,0.0,0.0,0.0,0.0,0.0,0.0,0.0,0.0,0.0,-2.994,-3.2712,-3.4774,-3.566,-3.7225,-3.9213,-4.1734,-4.2903,-4.3481,-4.3481,-4.3525,-4.3557,-4.3559,-4.3569,-4.3564,-4.3569,-4.3553,-4.3878,-4.4657,-4.4781,-4.517,-4.6018,-4.6065,-4.6046,-4.6018,-4.5959,-4.555,-4.4773,-4.555,-4.5561,-4.4809,-4.5685,-4.6149,-4.6205,-4.6208,-4.6208,-4.6193,-4.6208,-4.6196,-4.6196,-4.6196,-4.6196,-4.6196,-4.6196,-4.6196,-4.6196,-4.6196,-4.6196,-4.632,-4.7171,-4.747,-4.747,-4.745,-4.745,-4.7294,-4.6456,-4.6196,-4.6196,-4.6196,-4.6196,-4.6196,-4.6196,-4.6196,-4.6196,-4.6196,-4.5558,-4.5173,-4.601,-4.613,-4.6093,-4.6093,-4.6149,-4.6177,-4.6114,-4.5404,-4.5083,-4.5813,-4.454,-4.3772,-4.4478,-4.3857,-4.2989,-4.2156,-4.2775,-4.2537,-4.0835,-4.1412,-4.1465,-4.0562,-4.0515,-4.0449,-4.0307,-4.0307,-4.0272,-4.0196,-4.0137,-4.0036,-3.9889,-3.9889,-3.9848,-3.9804,-3.9804,-3.9773,-0.9777,0.0,0.0,0.0,0.0,0.0,0.0,0.0,0.0,-2.6403,-2.8657,-3.0837,-3.358,-3.4964,-3.6323,-3.8285,-3.9864,-4.0857,-4.0857,-4.1903,-4.2663,-4.2663,-4.2668,-4.2654,-4.2661,-4.2654,-4.2735,-4.2907,-4.4128,-4.4965,-4.5162,-4.5162,-4.4871,-4.4239,-4.419,-4.4083,-4.387,-4.4705,-4.5015,-4.4809,-4.5721,-4.6185,-4.6205,-4.6208,-4.6203,-4.6209,-4.6203,-4.6203,-4.6196,-4.6203,-4.6208,-4.6201,-4.6196,-4.6208,-4.6201,-4.6196,-4.6196,-4.6235,-4.6475,-4.6553,-4.656,-4.6554,-4.6554,-4.6515,-4.6273,-4.6209,-4.6196,-4.6196,-4.6196,-4.6193,-4.6193,-4.6208,-4.6196,-4.6196,-4.5979,-4.583,-4.6083,-4.6075,-4.6037,-4.6093,-4.6102,-4.6122,-4.6093,-4.5899,-4.5384,-4.4336,-4.3763,-4.3072,-4.2091,-4.1698,-4.1412,-4.1112,-4.1248,-4.1137,-4.0607,-4.0766,-4.0758,-4.0449,-4.043,-4.0396,-4.0307,-4.0253,-4.0215,-4.0137,-4.0015,-3.9911,-3.9826,-3.9826,-3.9781,-3.9735,-3.9727,-3.9626,0.0,0.0,0.0,0.0,0.0,0.0,-1.9317,-1.9803,-2.0579,0.0,-2.6214,-2.7982,-3.0728,-3.1913,-3.3044,-3.4789,-3.6537,-3.8174,-3.9591,-4.0643,-4.1266,-4.1266,-4.126,-4.1253,-4.1253,-4.1253,-4.1532,-4.2194,-4.3222,-4.3945,-4.4229,-4.4258,-4.4016,-4.352,-4.3529,-4.3363,-4.3002,-4.3867,-4.4303,-4.432,-4.5231,-4.5842,-4.6201,-4.6196,-4.6203,-4.6196,-4.6203,-4.6203,-4.619,-4.6203,-4.6189,-4.6201,-4.6196,-4.6189,-4.6201,-4.6196,-4.6196,-4.6196,-4.6209,-4.6209,-4.619,-4.6203,-4.6209,-4.6195,-4.6209,-4.6209,-4.6203,-4.6196,-4.6196,-4.6201,-4.6201,-4.6201,-4.6208,-4.6208,-4.5866,-4.5665,-4.6016,-4.5774,-4.5619,-4.5988,-4.6075,-4.6104,-4.6104,-4.5492,-4.4909,-4.4579,-4.3266,-4.236,-4.2424,-4.209,-4.1686,-4.1235,-4.2135,-4.2305,-4.1139,-4.1373,-4.1399,-4.0917,-4.0535,-4.0307,-4.029,-4.0215,-4.0137,-4.0117,-3.9994,-3.9889,-3.9781,-3.9777,-3.9708,-3.9656,-3.9626,-3.9546,0.0,0.0,0.0,0.0,-1.6395,0.0,-2.1237,-2.01,-1.908,0.0,-2.4371,-2.55,-2.7186,-2.8285,-2.9475,-3.1114,-3.2922,-3.5354,-3.887,-3.9532,-3.9669,-3.9669,-3.9669,-3.9669,-3.9669,-3.9747,-4.0416,-4.1894,-4.219,-4.2605,-4.3316,-4.3364,-4.3315,-4.3218,-4.3275,-4.2941,-4.2163,-4.3019,-4.3463,-4.3467,-4.4343,-4.5207,-4.6059,-4.6059,-4.6098,-4.6203,-4.6196,-4.6196,-4.6203,-4.6196,-4.6196,-4.6196,-4.6196,-4.6196,-4.6196,-4.6196,-4.6196,-4.6203,-4.6196,-4.6203,-4.6203,-4.6203,-4.6195,-4.6201,-4.6196,-4.6196,-4.6203,-4.6196,-4.6196,-4.6196,-4.6189,-4.6193,-4.6185,-4.6185,-4.5546,-4.5159,-4.5918,-4.5492,-4.5153,-4.5871,-4.6066,-4.6095,-4.6085,-4.4803,-4.4258,-4.565,-4.3183,-4.1966,-4.4182,-4.3718,-4.2899,-4.2126,-4.4109,-4.4523,-4.2143,-4.2626,-4.2691,-4.1781,-4.0941,-4.0463,-4.0425,-4.0309,-4.0172,-4.0096,-3.9996,-3.9911,-3.9777,-3.9722,-3.9669,-3.9596,-3.9502,-3.9495,0.0,0.0,0.0,-1.8423,-1.8675,0.0,-1.8152,-1.7976,-1.8249,0.0,-1.9944,-2.1052,-2.2747,-2.4322,-2.574,-2.6782,-2.8942,-3.1943,-3.6084,-3.7876,-3.8753,-3.8753,-3.8753,-3.8753,-3.8753,-3.9396,-3.9909,-4.0186,-4.1466,-4.2285,-4.2451,-4.2497,-4.2213,-4.1513,-4.1498,-4.1427,-4.1252,-4.2123,-4.2539,-4.2565,-4.3442,-4.4299,-4.5144,-4.5144,-4.5547,-4.6196,-4.6203,-4.6209,-4.6196,-4.6203,-4.6196,-4.6196,-4.6196,-4.6196,-4.6196,-4.6196,-4.6196,-4.6196,-4.6203,-4.6203,-4.6203,-4.6203,-4.6209,-4.6189,-4.6195,-4.6195,-4.6196,-4.6127,-4.6158,-4.6185,-4.6132,-4.6113,-4.6122,-4.6122,-4.5985,-4.5879,-4.6054,-4.5959,-4.5881,-4.6056,-4.6095,-4.6076,-4.6037,-4.5735,-4.5403,-4.5006,-4.4149,-4.3543,-4.355,-4.2976,-4.2671,-4.2917,-4.3339,-4.3387,-4.2821,-4.2811,-4.2775,-4.2585,-4.2335,-4.1893,-4.1206,-4.1125,-4.0718,-3.9951,-3.9819,-3.9703,-3.965,-3.9645,-3.9602,-3.9596,-3.9483,-3.938,-2.2545,-2.2465,-2.2795,-2.1509,-2.1216,0.0,0.0,-1.9892,-1.9659,-2.0929,-2.0183,-1.9946,-2.2055,-2.2812,-2.3525,-2.484,-2.7222,-2.9636,-3.1758,-3.4642,-3.6727,-3.7155,-3.6824,-3.6727,-3.7155,-3.7993,-3.8838,-3.9634,-4.0085,-4.0302,-4.0304,-4.0754,-4.0789,-4.0373,-4.0811,-4.1059,-4.1059,-4.1474,-4.1909,-4.2318,-4.2747,-4.3643,-4.489,-4.489,-4.5384,-4.619,-4.6203,-4.6203,-4.619,-4.6203,-4.6196,-4.6196,-4.6196,-4.6196,-4.6196,-4.6196,-4.6196,-4.6196,-4.6196,-4.6196,-4.6203,-4.6209,-4.6196,-4.6203,-4.6203,-4.6196,-4.6183,-4.6154,-4.6166,-4.6185,-4.616,-4.6123,-4.6095,-4.6095,-4.6066,-4.594,-4.5531,-4.5775,-4.592,-4.5531,-4.6124,-4.654,-4.6074,-4.5636,-4.5343,-4.5297,-4.4415,-4.3795,-4.3891,-4.3603,-4.3327,-4.3185,-4.3869,-4.4145,-4.3652,-4.3484,-4.3368,-4.3348,-4.2883,-4.221,-4.1374,-4.129,-4.0824,-3.9908,-3.9819,-3.975,-3.975,-3.965,-3.9602,-3.9596,-3.9451,-3.9328,-2.4868,-2.4614,-2.5063,-2.4729,-2.4009,-2.3483,0.0,0.0,0.0,-2.3351,0.0,0.0,0.0,0.0,0.0,-2.3193,0.0,0.0,0.0,-3.038,0.0,-3.4296,-3.4082,-3.414,-3.4861,-3.5558,-3.6865,-3.9057,-3.8097,-3.7634,-3.8136,-3.8999,-3.9546,-3.97,-4.0455,-4.0935,-4.111,-4.111,-4.1442,-4.2065,-4.2065,-4.2883,-4.4429,-4.4579,-4.5124,-4.5969,-4.6118,-4.6196,-4.6196,-4.6196,-4.6196,-4.6196,-4.6196,-4.6196,-4.6196,-4.6196,-4.6196,-4.6196,-4.6196,-4.6196,-4.6196,-4.6196,-4.6209,-4.6196,-4.6203,-4.6196,-4.6189,-4.6189,-4.6174,-4.6177,-4.6149,-4.6123,-4.6076,-4.6076,-4.6056,-4.5832,-4.5191,-4.556,-4.5813,-4.5161,-4.6111,-4.6876,-4.6324,-4.5642,-4.5394,-4.6035,-4.4782,-4.3998,-4.4654,-4.4677,-4.438,-4.3679,-4.4814,-4.5281,-4.4518,-4.4326,-4.4244,-4.4162,-4.3425,-4.2601,-4.1751,-4.1206,-4.0631,-3.9908,-3.9845,-3.9823,-3.9845,-3.9607,-3.982,-4.0439,-3.9626,-3.9378,-2.7813,-2.7778,-2.7489,-2.5943,-2.7149,-2.7581,-2.3176,0.0,-2.3408,-2.1434,0.0,-2.0534,0.0,0.0,0.0,-1.9842,-2.2025,-2.3427,-2.2636,-2.4937,-2.7296,-2.8887,-3.0349,-3.1265,-3.1378,-3.1476,-3.3173,-3.7183,-3.5256,-3.488,-3.7215,-3.815,-3.8981,-3.976,-3.9896,-4.0312,-4.1091,-4.111,-4.1149,-4.1247,-4.1247,-4.174,-4.2707,-4.3416,-4.4215,-4.5085,-4.5852,-4.6196,-4.6196,-4.6196,-4.6196,-4.6196,-4.6196,-4.6196,-4.6196,-4.6196,-4.6196,-4.6196,-4.6196,-4.6196,-4.6196,-4.6196,-4.6203,-4.6203,-4.6196,-4.6208,-4.6185,-4.613,-4.6104,-4.6105,-4.6037,-4.6026,-4.6007,-4.6007,-4.6037,-4.6056,-4.5979,-4.6018,-4.6037,-4.589,-4.6016,-4.6344,-4.6957,-4.6978,-4.6925,-4.695,-4.6128,-4.5519,-4.5561,-4.5568,-4.5497,-4.5423,-4.5524,-4.553,-4.536,-4.5246,-4.5144,-4.5144,-4.4855,-4.4231,-4.319,-4.1168,-3.9984,-3.9889,-3.9889,-3.98,-3.9626,-3.9309,-4.0663,-4.3434,-4.0486,-3.9593,-2.7815,-2.827,-2.8644,-2.6893,-2.7284,-2.7268,-2.4089,-2.3503,-2.3638,-2.3579,0.0,0.0,0.0,0.0,0.0,0.0,-2.0958,-2.1171,-1.9795,0.0,-2.2979,-2.5678,-2.6633,-2.8053,-3.0559,-3.0336,-3.1417,-3.4697,-3.2556,-3.2219,-3.4795,-3.6242,-3.7617,-3.8994,-3.9538,-4.0226,-4.1084,-4.1103,-4.1103,-4.1103,-4.1103,-4.1557,-4.2401,-4.2746,-4.337,-4.4169,-4.4527,-4.4988,-4.5455,-4.5455,-4.5728,-4.6196,-4.6196,-4.6196,-4.6196,-4.6196,-4.6196,-4.6196,-4.6196,-4.6196,-4.6196,-4.6196,-4.5864,-4.5533,-4.6045,-4.5842,-4.5543,-4.5985,-4.6095,-4.6095,-4.6066,-4.6037,-4.5997,-4.5997,-4.6016,-4.5899,-4.5414,-4.5656,-4.5828,-4.5351,-4.6154,-4.7042,-4.7366,-4.7403,-4.7478,-4.7816,-4.665,-4.5986,-4.661,-4.6042,-4.5586,-4.5587,-4.5515,-4.5477,-4.5438,-4.5277,-4.5211,-4.5252,-4.5057,-4.4469,-4.3388,-4.106,-3.9823,-3.9889,-3.9889,-3.9819,-3.9602,-3.9256,-3.9807,-4.1144,-4.0362,-4.0533,-2.8037,-2.8804,-2.9488,-2.7501,-2.7188,-2.6839,-2.4848,-2.4282,-2.4458,-2.5492,-2.4614,0.0,0.0,0.0,-2.1136,-2.0666,0.0,-1.9812,-1.7597,-1.8031,-1.9514,-2.1998,-2.313,-2.5194,-2.9028,-2.7971,-2.8294,-3.1344,-2.9201,-2.908,-3.2096,-3.413,-3.6103,-3.8072,-3.8984,-3.9989,-4.1095,-4.11,-4.11,-4.11,-4.11,-4.1432,-4.2042,-4.229,-4.2719,-4.3284,-4.35,-4.3955,-4.454,-4.454,-4.5066,-4.5845,-4.5845,-4.5981,-4.6196,-4.6196,-4.6196,-4.6196,-4.6196,-4.6196,-4.6196,-4.6196,-4.5611,-4.5066,-4.594,-4.5582,-4.5048,-4.5879,-4.6085,-4.6066,-4.6066,-4.6046,-4.6005,-4.6005,-4.5983,-4.5805,-4.5165,-4.5491,-4.5718,-4.5137,-4.6145,-4.7182,-4.752,-4.7801,-4.8048,-4.8323,-4.6866,-4.6008,-4.6791,-4.6069,-4.5477,-4.5477,-4.5419,-4.5398,-4.5399,-4.5233,-4.5103,-4.5118,-4.4986,-4.4554,-4.3777,-4.1982,-4.0651,-3.9819,-4.0618,-4.0516,-3.9458,-3.9229,-3.9222,-3.9509,-3.997,-4.0707,-2.9433,-3.0176,-3.0234,-2.765,-2.7624,-2.7581,-2.4987,-2.5672,-2.6648,-2.5863,-2.6978,-2.7602,-2.5961,-2.4202,-2.2483,-2.0863,-2.0596,0.0,0.0,-1.6221,-1.6823,-1.6934,-1.986,-2.2923,-2.5606,-2.2798,-2.2564,-2.6871,-2.4784,-2.5152,-2.939,-3.2073,-3.4647,-3.7155,-3.8098,-3.9375,-4.1075,-4.1106,-4.1091,-4.1091,-4.1091,-4.112,-4.1172,-4.2017,-4.2403,-4.2481,-4.3265,-4.3617,-4.3637,-4.3637,-4.4169,-4.4929,-4.4929,-4.5455,-4.6196,-4.6196,-4.6196,-4.6196,-4.6196,-4.6196,-4.6196,-4.6196,-4.5611,-4.5066,-4.594,-4.5554,-4.4984,-4.5852,-4.6047,-4.5997,-4.5997,-4.6005,-4.6003,-4.6003,-4.5949,-4.5886,-4.5866,-4.5873,-4.5887,-4.5867,-4.581,-4.6117,-4.7294,-4.8411,-4.8941,-4.8378,-4.687,-4.5758,-4.5661,-4.5515,-4.5419,-4.5399,-4.5399,-4.5399,-4.5399,-4.5273,-4.5099,-4.4919,-4.4895,-4.4876,-4.4857,-4.4546,-4.2844,-3.9677,-4.2416,-4.2307,-3.9129,-3.9101,-3.9602,-4.0522,-3.9583,-3.9546,-2.9296,-3.0527,-3.1133,-2.8515,-2.8511,-2.8328,-2.5125,-2.5308,-2.5896,-2.5014,-2.6224,-2.7083,-2.5912,-2.4285,-2.2738,-2.1633,-2.0013,-1.7864,0.0,-1.4348,-1.4815,-1.6491,-1.9243,-2.1349,-2.2235,-2.1735,-2.2203,-2.4266,-2.3603,-2.4498,-2.7686,-3.0283,-3.2877,-3.5466,-3.6946,-3.851,-4.0223,-4.0812,-4.1105,-4.1105,-4.1105,-4.1109,-4.1113,-4.1402,-4.1538,-4.1554,-4.1832,-4.227,-4.2799,-4.2799,-4.3637,-4.4832,-4.4267,-4.4579,-4.5416,-4.5981,-4.6196,-4.6196,-4.6201,-4.6201,-4.6193,-4.6146,-4.5184,-4.43,-4.5704,-4.5103,-4.4238,-4.5629,-4.5638,-4.5336,-4.5859,-4.5576,-4.5273,-4.5813,-4.5925,-4.5899,-4.5899,-4.5874,-4.5827,-4.5827,-4.5795,-4.5885,-4.6248,-4.6634,-4.7229,-4.8211,-4.7783,-4.7736,-4.8836,-4.7549,-4.6221,-4.5415,-4.5338,-4.5338,-4.5338,-4.5297,-4.5148,-4.4938,-4.4895,-4.4895,-4.4895,-4.443,-4.3636,-4.2518,-4.137,-4.1274,-4.2333,-4.016,-3.9259,-3.9602,-3.9221,-3.9719,-3.0117,-3.0976,-3.1641,-2.9336,-2.8944,-2.8472,-2.5909,-2.5992,-2.6386,-2.5506,-2.6465,-2.7383,-2.7128,-2.5168,-2.3287,-2.2452,-2.015,-1.7436,0.0,-1.3918,-1.4289,-1.5615,-1.7802,-1.9576,-2.0506,-1.9944,-2.0277,-2.2088,-2.1913,-2.3003,-2.5921,-2.8811,-3.1562,-3.4168,-3.6231,-3.8092,-3.9782,-4.0668,-4.1101,-4.1101,-4.1101,-4.1101,-4.1097,-4.1094,-4.109,-4.1105,-4.1091,-4.1412,-4.1941,-4.1941,-4.274,-4.3916,-4.3371,-4.3663,-4.4501,-4.5066,-4.5475,-4.5787,-4.6096,-4.6205,-4.6185,-4.6122,-4.5159,-4.4284,-4.5677,-4.5104,-4.4181,-4.5269,-4.5414,-4.5278,-4.5479,-4.532,-4.5173,-4.5389,-4.5441,-4.5434,-4.5434,-4.5388,-4.5471,-4.5747,-4.5781,-4.5754,-4.5719,-4.5651,-4.6037,-4.7237,-4.7339,-4.7658,-4.8759,-4.6954,-4.5491,-4.5316,-4.4934,-4.4857,-4.5258,-4.5125,-4.4943,-4.4789,-4.4764,-4.4764,-4.4764,-4.4393,-4.4128,-4.4005,-4.1349,-4.1033,-4.3132,-4.042,-3.9129,-3.9202,-3.9166,-3.9629]}]]